Wetterdaten: Mittwoch, 13.03.2019
Datum Zeit Temp. A. Feuchte A. Luftdruck Regen Wind Richtung Richtung Sonnenschein ET UV Solar Taupunkt Windchill Windböen
13.03.2019 00:00 6,4 °C 49 % 1009,2 hPa 0,0 mm 0,0 km/h (0 Bft) S 184 ° 0 min 0,000 mm 0,0 UV-I 0 W/m² -3,5 °C 6,4 °C 0,0 km/h (0 Bft)
13.03.2019 00:01 6,4 °C 49 % 1009,1 hPa 0,0 mm 1,0 km/h (0 Bft) S 184 ° 0 min 0,000 mm 0,0 UV-I 0 W/m² -3,5 °C 6,4 °C 3,2 km/h (1 Bft)
13.03.2019 00:02 6,4 °C 49 % 1009,1 hPa 0,0 mm 0,0 km/h (0 Bft) S 184 ° 0 min 0,000 mm 0,0 UV-I 0 W/m² -3,5 °C 6,4 °C 0,0 km/h (0 Bft)
13.03.2019 00:03 6,5 °C 48 % 1009,1 hPa 0,0 mm 1,0 km/h (0 Bft) S 184 ° 0 min 0,000 mm 0,0 UV-I 0 W/m² -3,7 °C 6,5 °C 3,2 km/h (1 Bft)
13.03.2019 00:04 6,5 °C 48 % 1009,1 hPa 0,0 mm 0,1 km/h (0 Bft) S 184 ° 0 min 0,000 mm 0,0 UV-I 0 W/m² -3,7 °C 6,5 °C 1,6 km/h (1 Bft)
13.03.2019 00:05 6,6 °C 47 % 1009,1 hPa 0,0 mm 2,1 km/h (1 Bft) S 184 ° 0 min 0,000 mm 0,0 UV-I 0 W/m² -3,9 °C 6,6 °C 3,2 km/h (1 Bft)
13.03.2019 00:06 6,7 °C 48 % 1008,9 hPa 0,0 mm 1,3 km/h (1 Bft) SW 221 ° 0 min 0,000 mm 0,0 UV-I 0 W/m² -3,5 °C 6,7 °C 4,8 km/h (1 Bft)
13.03.2019 00:07 6,7 °C 48 % 1009,1 hPa 0,0 mm 4,8 km/h (1 Bft) W-SW 238 ° 0 min 0,000 mm 0,0 UV-I 0 W/m² -3,5 °C 6,1 °C 8,0 km/h (2 Bft)
13.03.2019 00:08 6,8 °C 47 % 1009,1 hPa 0,0 mm 6,5 km/h (2 Bft) S-SW 200 ° 0 min 0,000 mm 0,0 UV-I 0 W/m² -3,7 °C 5,6 °C 11,3 km/h (2 Bft)
13.03.2019 00:09 6,8 °C 48 % 1009,0 hPa 0,0 mm 4,3 km/h (1 Bft) S-SO 162 ° 0 min 0,000 mm 0,0 UV-I 0 W/m² -3,4 °C 6,8 °C 8,0 km/h (2 Bft)
13.03.2019 00:10 7,1 °C 47 % 1008,9 hPa 0,0 mm 10,2 km/h (2 Bft) S-SW 198 ° 0 min 0,000 mm 0,0 UV-I 0 W/m² -3,4 °C 5,1 °C 17,7 km/h (3 Bft)
13.03.2019 00:11 7,3 °C 48 % 1009,0 hPa 0,0 mm 6,3 km/h (2 Bft) S-SO 168 ° 0 min 0,000 mm 0,0 UV-I 0 W/m² -3,0 °C 6,3 °C 9,7 km/h (2 Bft)
13.03.2019 00:12 7,4 °C 47 % 1008,9 hPa 0,0 mm 2,1 km/h (1 Bft) S-SO 168 ° 0 min 0,000 mm 0,0 UV-I 0 W/m² -3,2 °C 7,4 °C 6,4 km/h (2 Bft)
13.03.2019 00:13 7,4 °C 48 % 1008,9 hPa 0,0 mm 3,6 km/h (1 Bft) S 169 ° 0 min 0,000 mm 0,0 UV-I 0 W/m² -2,9 °C 7,4 °C 6,4 km/h (2 Bft)
13.03.2019 00:14 7,4 °C 48 % 1008,8 hPa 0,0 mm 0,1 km/h (0 Bft) S 169 ° 0 min 0,000 mm 0,0 UV-I 0 W/m² -2,9 °C 7,4 °C 1,6 km/h (1 Bft)
13.03.2019 00:15 7,3 °C 48 % 1008,8 hPa 0,0 mm 0,0 km/h (0 Bft) S 169 ° 0 min 0,000 mm 0,0 UV-I 0 W/m² -3,0 °C 7,3 °C 0,0 km/h (0 Bft)
13.03.2019 00:16 7,1 °C 50 % 1008,9 hPa 0,0 mm 0,0 km/h (0 Bft) S 169 ° 0 min 0,000 mm 0,0 UV-I 0 W/m² -2,6 °C 7,1 °C 0,0 km/h (0 Bft)
13.03.2019 00:17 6,9 °C 50 % 1008,8 hPa 0,0 mm 0,1 km/h (0 Bft) S 169 ° 0 min 0,000 mm 0,0 UV-I 0 W/m² -2,8 °C 6,9 °C 1,6 km/h (1 Bft)
13.03.2019 00:18 6,5 °C 53 % 1008,8 hPa 0,0 mm 0,0 km/h (0 Bft) S 169 ° 0 min 0,000 mm 0,0 UV-I 0 W/m² -2,4 °C 6,5 °C 0,0 km/h (0 Bft)
13.03.2019 00:19 6,2 °C 55 % 1008,8 hPa 0,0 mm 0,4 km/h (0 Bft) S 169 ° 0 min 0,000 mm 0,0 UV-I 0 W/m² -2,2 °C 6,2 °C 1,6 km/h (1 Bft)
13.03.2019 00:20 6,0 °C 54 % 1008,7 hPa 0,0 mm 1,7 km/h (1 Bft) S-SO 150 ° 0 min 0,000 mm 0,0 UV-I 0 W/m² -2,6 °C 6,0 °C 4,8 km/h (1 Bft)
13.03.2019 00:21 6,1 °C 53 % 1008,8 hPa 0,0 mm 2,5 km/h (1 Bft) S 174 ° 0 min 0,000 mm 0,0 UV-I 0 W/m² -2,7 °C 6,1 °C 8,0 km/h (2 Bft)
13.03.2019 00:22 6,1 °C 53 % 1008,7 hPa 0,0 mm 0,0 km/h (0 Bft) S 174 ° 0 min 0,000 mm 0,0 UV-I 0 W/m² -2,7 °C 6,1 °C 0,0 km/h (0 Bft)
13.03.2019 00:23 6,2 °C 52 % 1008,7 hPa 0,0 mm 0,5 km/h (0 Bft) S 174 ° 0 min 0,000 mm 0,0 UV-I 0 W/m² -2,9 °C 6,2 °C 3,2 km/h (1 Bft)
13.03.2019 00:24 6,3 °C 52 % 1008,7 hPa 0,0 mm 1,4 km/h (1 Bft) S 174 ° 0 min 0,000 mm 0,0 UV-I 0 W/m² -2,8 °C 6,3 °C 4,8 km/h (1 Bft)
13.03.2019 00:25 6,4 °C 50 % 1008,8 hPa 0,0 mm 1,6 km/h (1 Bft) S 180 ° 0 min 0,000 mm 0,0 UV-I 0 W/m² -3,2 °C 6,4 °C 4,8 km/h (1 Bft)
13.03.2019 00:26 6,5 °C 50 % 1008,7 hPa 0,0 mm 0,6 km/h (0 Bft) S 180 ° 0 min 0,000 mm 0,0 UV-I 0 W/m² -3,2 °C 6,5 °C 1,6 km/h (1 Bft)
13.03.2019 00:27 6,6 °C 51 % 1008,7 hPa 0,0 mm 1,8 km/h (1 Bft) S 180 ° 0 min 0,000 mm 0,0 UV-I 0 W/m² -2,8 °C 6,6 °C 3,2 km/h (1 Bft)
13.03.2019 00:28 6,6 °C 51 % 1008,7 hPa 0,0 mm 3,7 km/h (1 Bft) S 178 ° 0 min 0,000 mm 0,0 UV-I 0 W/m² -2,8 °C 6,6 °C 4,8 km/h (1 Bft)
13.03.2019 00:29 6,6 °C 51 % 1008,7 hPa 0,0 mm 3,2 km/h (1 Bft) S 178 ° 0 min 0,000 mm 0,0 UV-I 0 W/m² -2,8 °C 6,6 °C 4,8 km/h (1 Bft)
13.03.2019 00:30 6,7 °C 50 % 1008,7 hPa 0,0 mm 0,7 km/h (0 Bft) S 178 ° 0 min 0,000 mm 0,0 UV-I 0 W/m² -3,0 °C 6,7 °C 3,2 km/h (1 Bft)
13.03.2019 00:31 6,7 °C 51 % 1008,7 hPa 0,0 mm 0,0 km/h (0 Bft) S 178 ° 0 min 0,000 mm 0,0 UV-I 0 W/m² -2,7 °C 6,7 °C 0,0 km/h (0 Bft)
13.03.2019 00:32 6,6 °C 52 % 1008,7 hPa 0,0 mm 0,0 km/h (0 Bft) S 178 ° 0 min 0,000 mm 0,0 UV-I 0 W/m² -2,5 °C 6,6 °C 0,0 km/h (0 Bft)
13.03.2019 00:33 6,3 °C 54 % 1008,7 hPa 0,0 mm 0,0 km/h (0 Bft) S 178 ° 0 min 0,000 mm 0,0 UV-I 0 W/m² -2,3 °C 6,3 °C 0,0 km/h (0 Bft)
13.03.2019 00:34 5,8 °C 56 % 1008,7 hPa 0,0 mm 0,0 km/h (0 Bft) S 178 ° 0 min 0,000 mm 0,0 UV-I 0 W/m² -2,3 °C 5,8 °C 0,0 km/h (0 Bft)
13.03.2019 00:35 5,4 °C 57 % 1008,6 hPa 0,0 mm 3,2 km/h (1 Bft) S 178 ° 0 min 0,000 mm 0,0 UV-I 0 W/m² -2,4 °C 5,4 °C 4,8 km/h (1 Bft)
13.03.2019 00:36 5,3 °C 58 % 1008,7 hPa 0,0 mm 0,6 km/h (0 Bft) S 178 ° 0 min 0,000 mm 0,0 UV-I 0 W/m² -2,3 °C 5,3 °C 1,6 km/h (1 Bft)
13.03.2019 00:37 5,3 °C 58 % 1008,7 hPa 0,0 mm 0,0 km/h (0 Bft) S 178 ° 0 min 0,000 mm 0,0 UV-I 0 W/m² -2,3 °C 5,3 °C 0,0 km/h (0 Bft)
13.03.2019 00:38 5,4 °C 55 % 1008,7 hPa 0,0 mm 0,0 km/h (0 Bft) S 178 ° 0 min 0,000 mm 0,0 UV-I 0 W/m² -2,9 °C 5,4 °C 0,0 km/h (0 Bft)
13.03.2019 00:39 5,6 °C 55 % 1008,7 hPa 0,0 mm 0,1 km/h (0 Bft) S 178 ° 0 min 0,000 mm 0,0 UV-I 0 W/m² -2,7 °C 5,6 °C 1,6 km/h (1 Bft)
13.03.2019 00:40 5,7 °C 56 % 1008,7 hPa 0,0 mm 0,0 km/h (0 Bft) S 178 ° 0 min 0,000 mm 0,0 UV-I 0 W/m² -2,4 °C 5,7 °C 0,0 km/h (0 Bft)
13.03.2019 00:41 5,5 °C 57 % 1008,7 hPa 0,0 mm 0,5 km/h (0 Bft) S 178 ° 0 min 0,000 mm 0,0 UV-I 0 W/m² -2,3 °C 5,5 °C 1,6 km/h (1 Bft)
13.03.2019 00:42 5,2 °C 58 % 1008,7 hPa 0,0 mm 0,3 km/h (0 Bft) S 178 ° 0 min 0,000 mm 0,0 UV-I 0 W/m² -2,4 °C 5,2 °C 1,6 km/h (1 Bft)
13.03.2019 00:43 4,8 °C 60 % 1008,7 hPa 0,0 mm 0,0 km/h (0 Bft) S 178 ° 0 min 0,000 mm 0,0 UV-I 0 W/m² -2,3 °C 4,8 °C 0,0 km/h (0 Bft)
13.03.2019 00:44 4,5 °C 61 % 1008,8 hPa 0,0 mm 0,0 km/h (0 Bft) S 178 ° 0 min 0,000 mm 0,0 UV-I 0 W/m² -2,4 °C 4,5 °C 0,0 km/h (0 Bft)
13.03.2019 00:45 4,2 °C 62 % 1008,7 hPa 0,0 mm 0,0 km/h (0 Bft) S 178 ° 0 min 0,000 mm 0,0 UV-I 0 W/m² -2,4 °C 4,2 °C 0,0 km/h (0 Bft)
13.03.2019 00:46 4,0 °C 63 % 1008,7 hPa 0,0 mm 0,0 km/h (0 Bft) S 178 ° 0 min 0,000 mm 0,0 UV-I 0 W/m² -2,4 °C 4,0 °C 0,0 km/h (0 Bft)
13.03.2019 00:47 4,0 °C 63 % 1008,7 hPa 0,0 mm 0,0 km/h (0 Bft) S 178 ° 0 min 0,000 mm 0,0 UV-I 0 W/m² -2,4 °C 4,0 °C 0,0 km/h (0 Bft)
13.03.2019 00:48 3,9 °C 64 % 1008,7 hPa 0,0 mm 0,5 km/h (0 Bft) S 178 ° 0 min 0,000 mm 0,0 UV-I 0 W/m² -2,3 °C 3,9 °C 1,6 km/h (1 Bft)
13.03.2019 00:49 3,9 °C 65 % 1008,6 hPa 0,0 mm 1,2 km/h (1 Bft) S 178 ° 0 min 0,000 mm 0,0 UV-I 0 W/m² -2,1 °C 3,9 °C 3,2 km/h (1 Bft)
13.03.2019 00:50 4,0 °C 64 % 1008,6 hPa 0,0 mm 1,7 km/h (1 Bft) S 178 ° 0 min 0,000 mm 0,0 UV-I 0 W/m² -2,2 °C 4,0 °C 3,2 km/h (1 Bft)
13.03.2019 00:51 4,3 °C 61 % 1008,6 hPa 0,0 mm 3,1 km/h (1 Bft) S 178 ° 0 min 0,000 mm 0,0 UV-I 0 W/m² -2,5 °C 4,3 °C 4,8 km/h (1 Bft)
13.03.2019 00:52 4,8 °C 60 % 1008,6 hPa 0,0 mm 3,0 km/h (1 Bft) S 178 ° 0 min 0,000 mm 0,0 UV-I 0 W/m² -2,3 °C 4,8 °C 4,8 km/h (1 Bft)
13.03.2019 00:53 5,0 °C 60 % 1008,7 hPa 0,0 mm 5,6 km/h (1 Bft) NW 322 ° 0 min 0,000 mm 0,0 UV-I 0 W/m² -2,1 °C 3,9 °C 9,7 km/h (2 Bft)
13.03.2019 00:54 4,8 °C 60 % 1008,7 hPa 0,0 mm 1,6 km/h (1 Bft) NW 322 ° 0 min 0,000 mm 0,0 UV-I 0 W/m² -2,3 °C 4,8 °C 4,8 km/h (1 Bft)
13.03.2019 00:55 4,3 °C 62 % 1008,7 hPa 0,0 mm 0,0 km/h (0 Bft) NW 322 ° 0 min 0,000 mm 0,0 UV-I 0 W/m² -2,3 °C 4,3 °C 0,0 km/h (0 Bft)
13.03.2019 00:56 4,0 °C 63 % 1008,7 hPa 0,0 mm 0,5 km/h (0 Bft) NW 322 ° 0 min 0,000 mm 0,0 UV-I 0 W/m² -2,4 °C 4,0 °C 3,2 km/h (1 Bft)
13.03.2019 00:57 3,8 °C 64 % 1008,7 hPa 0,0 mm 4,1 km/h (1 Bft) S-SO 155 ° 0 min 0,000 mm 0,0 UV-I 0 W/m² -2,4 °C 3,8 °C 6,4 km/h (2 Bft)
13.03.2019 00:58 3,8 °C 64 % 1008,7 hPa 0,0 mm 0,1 km/h (0 Bft) S-SO 155 ° 0 min 0,000 mm 0,0 UV-I 0 W/m² -2,4 °C 3,8 °C 1,6 km/h (1 Bft)
13.03.2019 00:59 3,7 °C 64 % 1008,7 hPa 0,0 mm 0,0 km/h (0 Bft) S-SO 155 ° 0 min 0,000 mm 0,0 UV-I 0 W/m² -2,5 °C 3,7 °C 0,0 km/h (0 Bft)
13.03.2019 01:00 3,7 °C 65 % 1008,7 hPa 0,0 mm 0,6 km/h (0 Bft) S-SO 155 ° 0 min 0,000 mm 0,0 UV-I 0 W/m² -2,3 °C 3,7 °C 3,2 km/h (1 Bft)
13.03.2019 01:01 3,7 °C 64 % 1008,7 hPa 0,0 mm 1,7 km/h (1 Bft) S-SO 155 ° 0 min 0,025 mm 0,0 UV-I 0 W/m² -2,5 °C 3,7 °C 3,2 km/h (1 Bft)
13.03.2019 01:02 3,9 °C 63 % 1008,7 hPa 0,0 mm 0,0 km/h (0 Bft) S-SO 155 ° 0 min 0,000 mm 0,0 UV-I 0 W/m² -2,5 °C 3,9 °C 0,0 km/h (0 Bft)
13.03.2019 01:03 4,1 °C 63 % 1008,7 hPa 0,0 mm 2,0 km/h (1 Bft) S-SO 155 ° 0 min 0,000 mm 0,0 UV-I 0 W/m² -2,3 °C 4,1 °C 3,2 km/h (1 Bft)
13.03.2019 01:04 4,3 °C 61 % 1008,6 hPa 0,0 mm 3,6 km/h (1 Bft) S-SO 155 ° 0 min 0,000 mm 0,0 UV-I 0 W/m² -2,5 °C 4,3 °C 4,8 km/h (1 Bft)
13.03.2019 01:05 4,6 °C 60 % 1008,5 hPa 0,0 mm 3,7 km/h (1 Bft) S-SO 155 ° 0 min 0,000 mm 0,0 UV-I 0 W/m² -2,5 °C 4,6 °C 6,4 km/h (2 Bft)
13.03.2019 01:06 4,8 °C 61 % 1008,5 hPa 0,0 mm 3,3 km/h (1 Bft) S-SO 155 ° 0 min 0,000 mm 0,0 UV-I 0 W/m² -2,1 °C 4,8 °C 6,4 km/h (2 Bft)
13.03.2019 01:07 5,0 °C 58 % 1008,5 hPa 0,0 mm 2,1 km/h (1 Bft) S-SO 155 ° 0 min 0,000 mm 0,0 UV-I 0 W/m² -2,6 °C 5,0 °C 3,2 km/h (1 Bft)
13.03.2019 01:08 5,3 °C 58 % 1008,5 hPa 0,0 mm 0,4 km/h (0 Bft) S-SO 155 ° 0 min 0,000 mm 0,0 UV-I 0 W/m² -2,3 °C 5,3 °C 1,6 km/h (1 Bft)
13.03.2019 01:09 5,5 °C 57 % 1008,5 hPa 0,0 mm 0,0 km/h (0 Bft) S-SO 155 ° 0 min 0,000 mm 0,0 UV-I 0 W/m² -2,3 °C 5,5 °C 0,0 km/h (0 Bft)
13.03.2019 01:10 5,7 °C 57 % 1008,5 hPa 0,0 mm 0,0 km/h (0 Bft) S-SO 155 ° 0 min 0,000 mm 0,0 UV-I 0 W/m² -2,1 °C 5,7 °C 0,0 km/h (0 Bft)
13.03.2019 01:11 5,8 °C 57 % 1008,5 hPa 0,0 mm 0,0 km/h (0 Bft) S-SO 155 ° 0 min 0,000 mm 0,0 UV-I 0 W/m² -2,0 °C 5,8 °C 0,0 km/h (0 Bft)
13.03.2019 01:12 6,1 °C 55 % 1008,4 hPa 0,0 mm 0,0 km/h (0 Bft) S-SO 155 ° 0 min 0,000 mm 0,0 UV-I 0 W/m² -2,2 °C 6,1 °C 0,0 km/h (0 Bft)
13.03.2019 01:13 6,2 °C 57 % 1008,3 hPa 0,0 mm 0,0 km/h (0 Bft) S-SO 155 ° 0 min 0,000 mm 0,0 UV-I 0 W/m² -1,7 °C 6,2 °C 0,0 km/h (0 Bft)
13.03.2019 01:14 6,1 °C 57 % 1008,4 hPa 0,0 mm 0,0 km/h (0 Bft) S-SO 155 ° 0 min 0,000 mm 0,0 UV-I 0 W/m² -1,8 °C 6,1 °C 0,0 km/h (0 Bft)
13.03.2019 01:15 5,8 °C 58 % 1008,4 hPa 0,0 mm 0,0 km/h (0 Bft) S-SO 155 ° 0 min 0,000 mm 0,0 UV-I 0 W/m² -1,8 °C 5,8 °C 0,0 km/h (0 Bft)
13.03.2019 01:16 5,4 °C 59 % 1008,4 hPa 0,0 mm 0,0 km/h (0 Bft) S-SO 155 ° 0 min 0,000 mm 0,0 UV-I 0 W/m² -2,0 °C 5,4 °C 0,0 km/h (0 Bft)
13.03.2019 01:17 5,3 °C 60 % 1008,4 hPa 0,0 mm 0,0 km/h (0 Bft) S-SO 155 ° 0 min 0,000 mm 0,0 UV-I 0 W/m² -1,8 °C 5,3 °C 0,0 km/h (0 Bft)
13.03.2019 01:18 5,2 °C 59 % 1008,5 hPa 0,0 mm 0,0 km/h (0 Bft) S-SO 155 ° 0 min 0,000 mm 0,0 UV-I 0 W/m² -2,1 °C 5,2 °C 0,0 km/h (0 Bft)
13.03.2019 01:19 5,2 °C 59 % 1008,5 hPa 0,0 mm 0,0 km/h (0 Bft) S-SO 155 ° 0 min 0,000 mm 0,0 UV-I 0 W/m² -2,1 °C 5,2 °C 0,0 km/h (0 Bft)
13.03.2019 01:20 5,2 °C 59 % 1008,4 hPa 0,0 mm 0,0 km/h (0 Bft) S-SO 155 ° 0 min 0,000 mm 0,0 UV-I 0 W/m² -2,1 °C 5,2 °C 0,0 km/h (0 Bft)
13.03.2019 01:21 5,1 °C 59 % 1008,5 hPa 0,0 mm 0,0 km/h (0 Bft) S-SO 155 ° 0 min 0,000 mm 0,0 UV-I 0 W/m² -2,2 °C 5,1 °C 0,0 km/h (0 Bft)
13.03.2019 01:22 5,1 °C 59 % 1008,5 hPa 0,0 mm 0,5 km/h (0 Bft) S-SO 155 ° 0 min 0,000 mm 0,0 UV-I 0 W/m² -2,2 °C 5,1 °C 1,6 km/h (1 Bft)
13.03.2019 01:23 5,1 °C 60 % 1008,4 hPa 0,0 mm 0,0 km/h (0 Bft) S-SO 155 ° 0 min 0,000 mm 0,0 UV-I 0 W/m² -2,0 °C 5,1 °C 0,0 km/h (0 Bft)
13.03.2019 01:24 5,0 °C 59 % 1008,5 hPa 0,0 mm 0,5 km/h (0 Bft) S-SO 155 ° 0 min 0,000 mm 0,0 UV-I 0 W/m² -2,3 °C 5,0 °C 1,6 km/h (1 Bft)
13.03.2019 01:25 5,1 °C 58 % 1008,5 hPa 0,0 mm 2,7 km/h (1 Bft) S-SO 155 ° 0 min 0,000 mm 0,0 UV-I 0 W/m² -2,5 °C 5,1 °C 3,2 km/h (1 Bft)
13.03.2019 01:26 5,4 °C 56 % 1008,4 hPa 0,0 mm 3,5 km/h (1 Bft) S-SO 157 ° 0 min 0,000 mm 0,0 UV-I 0 W/m² -2,7 °C 5,4 °C 4,8 km/h (1 Bft)
13.03.2019 01:27 5,7 °C 54 % 1008,4 hPa 0,0 mm 3,3 km/h (1 Bft) S-SO 157 ° 0 min 0,000 mm 0,0 UV-I 0 W/m² -2,9 °C 5,7 °C 4,8 km/h (1 Bft)
13.03.2019 01:28 6,1 °C 54 % 1008,5 hPa 0,0 mm 4,8 km/h (1 Bft) S-SO 161 ° 0 min 0,000 mm 0,0 UV-I 0 W/m² -2,5 °C 5,4 °C 8,0 km/h (2 Bft)
13.03.2019 01:29 6,4 °C 53 % 1008,4 hPa 0,0 mm 2,7 km/h (1 Bft) W-SW 252 ° 0 min 0,000 mm 0,0 UV-I 0 W/m² -2,5 °C 6,4 °C 6,4 km/h (2 Bft)
13.03.2019 01:30 6,6 °C 51 % 1008,5 hPa 0,0 mm 4,4 km/h (1 Bft) S-SW 198 ° 0 min 0,000 mm 0,0 UV-I 0 W/m² -2,8 °C 6,6 °C 6,4 km/h (2 Bft)
13.03.2019 01:31 6,8 °C 51 % 1008,5 hPa 0,0 mm 4,0 km/h (1 Bft) S-SW 193 ° 0 min 0,000 mm 0,0 UV-I 0 W/m² -2,6 °C 6,8 °C 6,4 km/h (2 Bft)
13.03.2019 01:32 6,9 °C 49 % 1008,4 hPa 0,0 mm 6,0 km/h (2 Bft) S-SW 204 ° 0 min 0,000 mm 0,0 UV-I 0 W/m² -3,1 °C 5,9 °C 8,0 km/h (2 Bft)
13.03.2019 01:33 7,2 °C 50 % 1008,4 hPa 0,0 mm 2,9 km/h (1 Bft) S-SW 201 ° 0 min 0,000 mm 0,0 UV-I 0 W/m² -2,5 °C 7,2 °C 4,8 km/h (1 Bft)
13.03.2019 01:34 7,3 °C 50 % 1008,3 hPa 0,0 mm 1,7 km/h (1 Bft) S 191 ° 0 min 0,000 mm 0,0 UV-I 0 W/m² -2,4 °C 7,3 °C 6,4 km/h (2 Bft)
13.03.2019 01:35 7,3 °C 49 % 1008,4 hPa 0,0 mm 3,0 km/h (1 Bft) S 191 ° 0 min 0,000 mm 0,0 UV-I 0 W/m² -2,7 °C 7,3 °C 4,8 km/h (1 Bft)
13.03.2019 01:36 7,3 °C 49 % 1008,4 hPa 0,0 mm 5,8 km/h (2 Bft) S 182 ° 0 min 0,000 mm 0,0 UV-I 0 W/m² -2,7 °C 6,4 °C 8,0 km/h (2 Bft)
13.03.2019 01:37 7,4 °C 48 % 1008,4 hPa 0,0 mm 7,6 km/h (2 Bft) S 173 ° 0 min 0,000 mm 0,0 UV-I 0 W/m² -2,9 °C 6,0 °C 9,7 km/h (2 Bft)
13.03.2019 01:38 7,4 °C 49 % 1008,2 hPa 0,0 mm 6,4 km/h (2 Bft) S 172 ° 0 min 0,000 mm 0,0 UV-I 0 W/m² -2,6 °C 6,4 °C 8,0 km/h (2 Bft)
13.03.2019 01:39 7,4 °C 50 % 1008,3 hPa 0,0 mm 4,6 km/h (1 Bft) S 186 ° 0 min 0,000 mm 0,0 UV-I 0 W/m² -2,3 °C 7,0 °C 6,4 km/h (2 Bft)
13.03.2019 01:40 7,3 °C 50 % 1008,3 hPa 0,0 mm 4,1 km/h (1 Bft) S-SW 196 ° 0 min 0,000 mm 0,0 UV-I 0 W/m² -2,4 °C 7,3 °C 6,4 km/h (2 Bft)
13.03.2019 01:41 7,1 °C 51 % 1008,2 hPa 0,0 mm 1,6 km/h (1 Bft) S-SW 194 ° 0 min 0,000 mm 0,0 UV-I 0 W/m² -2,3 °C 7,1 °C 4,8 km/h (1 Bft)
13.03.2019 01:42 6,7 °C 55 % 1008,1 hPa 0,0 mm 0,0 km/h (0 Bft) S-SW 194 ° 0 min 0,000 mm 0,0 UV-I 0 W/m² -1,7 °C 6,7 °C 0,0 km/h (0 Bft)
13.03.2019 01:43 6,4 °C 53 % 1008,2 hPa 0,0 mm 0,1 km/h (0 Bft) S-SW 194 ° 0 min 0,000 mm 0,0 UV-I 0 W/m² -2,5 °C 6,4 °C 1,6 km/h (1 Bft)
13.03.2019 01:44 6,2 °C 55 % 1008,2 hPa 0,0 mm 0,4 km/h (0 Bft) S-SW 194 ° 0 min 0,000 mm 0,0 UV-I 0 W/m² -2,2 °C 6,2 °C 1,6 km/h (1 Bft)
13.03.2019 01:45 5,9 °C 55 % 1008,2 hPa 0,0 mm 0,0 km/h (0 Bft) S-SW 194 ° 0 min 0,000 mm 0,0 UV-I 0 W/m² -2,4 °C 5,9 °C 0,0 km/h (0 Bft)
13.03.2019 01:46 5,6 °C 56 % 1008,1 hPa 0,0 mm 1,3 km/h (1 Bft) S-SW 192 ° 0 min 0,000 mm 0,0 UV-I 0 W/m² -2,5 °C 5,6 °C 4,8 km/h (1 Bft)
13.03.2019 01:47 5,5 °C 56 % 1008,0 hPa 0,0 mm 5,5 km/h (1 Bft) S-SO 167 ° 0 min 0,000 mm 0,0 UV-I 0 W/m² -2,6 °C 4,5 °C 8,0 km/h (2 Bft)
13.03.2019 01:48 5,6 °C 55 % 1007,9 hPa 0,0 mm 5,8 km/h (2 Bft) SO 138 ° 0 min 0,000 mm 0,0 UV-I 0 W/m² -2,7 °C 4,5 °C 9,7 km/h (2 Bft)
13.03.2019 01:49 5,8 °C 54 % 1007,9 hPa 0,0 mm 7,9 km/h (2 Bft) S 188 ° 0 min 0,000 mm 0,0 UV-I 0 W/m² -2,8 °C 4,1 °C 11,3 km/h (2 Bft)
13.03.2019 01:50 6,0 °C 54 % 1007,9 hPa 0,0 mm 6,4 km/h (2 Bft) S-SO 148 ° 0 min 0,000 mm 0,0 UV-I 0 W/m² -2,6 °C 4,7 °C 8,0 km/h (2 Bft)
13.03.2019 01:51 6,1 °C 54 % 1007,8 hPa 0,0 mm 5,5 km/h (1 Bft) S-SO 147 ° 0 min 0,000 mm 0,0 UV-I 0 W/m² -2,5 °C 5,2 °C 6,4 km/h (2 Bft)
13.03.2019 01:52 6,1 °C 55 % 1007,8 hPa 0,0 mm 2,3 km/h (1 Bft) S-SO 147 ° 0 min 0,000 mm 0,0 UV-I 0 W/m² -2,2 °C 6,1 °C 3,2 km/h (1 Bft)
13.03.2019 01:53 6,1 °C 54 % 1007,8 hPa 0,0 mm 0,2 km/h (0 Bft) S-SO 147 ° 0 min 0,000 mm 0,0 UV-I 0 W/m² -2,5 °C 6,1 °C 1,6 km/h (1 Bft)
13.03.2019 01:54 6,1 °C 54 % 1007,8 hPa 0,0 mm 0,0 km/h (0 Bft) S-SO 147 ° 0 min 0,000 mm 0,0 UV-I 0 W/m² -2,5 °C 6,1 °C 0,0 km/h (0 Bft)
13.03.2019 01:55 6,0 °C 54 % 1007,8 hPa 0,0 mm 0,0 km/h (0 Bft) S-SO 147 ° 0 min 0,000 mm 0,0 UV-I 0 W/m² -2,6 °C 6,0 °C 0,0 km/h (0 Bft)
13.03.2019 01:56 5,9 °C 54 % 1007,8 hPa 0,0 mm 0,0 km/h (0 Bft) S-SO 147 ° 0 min 0,000 mm 0,0 UV-I 0 W/m² -2,7 °C 5,9 °C 0,0 km/h (0 Bft)
13.03.2019 01:57 5,9 °C 54 % 1007,7 hPa 0,0 mm 0,0 km/h (0 Bft) S-SO 147 ° 0 min 0,000 mm 0,0 UV-I 0 W/m² -2,7 °C 5,9 °C 0,0 km/h (0 Bft)
13.03.2019 01:58 5,8 °C 54 % 1007,8 hPa 0,0 mm 0,4 km/h (0 Bft) N-NW 336 ° 0 min 0,000 mm 0,0 UV-I 0 W/m² -2,8 °C 5,8 °C 4,8 km/h (1 Bft)
13.03.2019 01:59 5,6 °C 55 % 1007,8 hPa 0,0 mm 4,4 km/h (1 Bft) N-NW 336 ° 0 min 0,000 mm 0,0 UV-I 0 W/m² -2,7 °C 5,6 °C 6,4 km/h (2 Bft)
13.03.2019 02:00 5,3 °C 58 % 1007,8 hPa 0,0 mm 3,2 km/h (1 Bft) N-NW 336 ° 0 min 0,026 mm 0,0 UV-I 0 W/m² -2,3 °C 5,3 °C 4,8 km/h (1 Bft)
13.03.2019 02:01 4,8 °C 59 % 1007,8 hPa 0,0 mm 1,1 km/h (1 Bft) N-NW 336 ° 0 min 0,000 mm 0,0 UV-I 0 W/m² -2,5 °C 4,8 °C 3,2 km/h (1 Bft)
13.03.2019 02:02 4,4 °C 60 % 1007,8 hPa 0,0 mm 1,5 km/h (1 Bft) N-NW 337 ° 0 min 0,000 mm 0,0 UV-I 0 W/m² -2,7 °C 4,4 °C 3,2 km/h (1 Bft)
13.03.2019 02:03 4,2 °C 61 % 1007,8 hPa 0,0 mm 2,1 km/h (1 Bft) N-NW 337 ° 0 min 0,000 mm 0,0 UV-I 0 W/m² -2,6 °C 4,2 °C 3,2 km/h (1 Bft)
13.03.2019 02:04 4,0 °C 62 % 1007,8 hPa 0,0 mm 3,9 km/h (1 Bft) W-NW 289 ° 0 min 0,000 mm 0,0 UV-I 0 W/m² -2,6 °C 4,0 °C 6,4 km/h (2 Bft)
13.03.2019 02:05 3,8 °C 64 % 1008,0 hPa 0,0 mm 2,7 km/h (1 Bft) W-NW 289 ° 0 min 0,000 mm 0,0 UV-I 0 W/m² -2,4 °C 3,8 °C 3,2 km/h (1 Bft)
13.03.2019 02:06 3,7 °C 65 % 1008,1 hPa 0,0 mm 4,0 km/h (1 Bft) W 263 ° 0 min 0,000 mm 0,0 UV-I 0 W/m² -2,3 °C 3,7 °C 6,4 km/h (2 Bft)
13.03.2019 02:07 3,6 °C 65 % 1008,3 hPa 0,0 mm 5,8 km/h (2 Bft) W-SW 239 ° 0 min 0,000 mm 0,0 UV-I 0 W/m² -2,4 °C 2,2 °C 9,7 km/h (2 Bft)
13.03.2019 02:08 3,6 °C 65 % 1008,3 hPa 0,0 mm 7,7 km/h (2 Bft) W-SW 247 ° 0 min 0,000 mm 0,0 UV-I 0 W/m² -2,4 °C 1,6 °C 11,3 km/h (2 Bft)
13.03.2019 02:09 3,7 °C 65 % 1008,3 hPa 0,0 mm 4,5 km/h (1 Bft) W-SW 249 ° 0 min 0,000 mm 0,0 UV-I 0 W/m² -2,3 °C 3,7 °C 9,7 km/h (2 Bft)
13.03.2019 02:10 3,8 °C 64 % 1008,2 hPa 0,0 mm 4,5 km/h (1 Bft) W 262 ° 0 min 0,000 mm 0,0 UV-I 0 W/m² -2,4 °C 3,8 °C 6,4 km/h (2 Bft)
13.03.2019 02:11 3,9 °C 63 % 1008,4 hPa 0,0 mm 4,6 km/h (1 Bft) W-SW 250 ° 0 min 0,000 mm 0,0 UV-I 0 W/m² -2,5 °C 3,0 °C 6,4 km/h (2 Bft)
13.03.2019 02:12 4,2 °C 62 % 1008,5 hPa 0,0 mm 5,0 km/h (1 Bft) SW 232 ° 0 min 0,000 mm 0,0 UV-I 0 W/m² -2,4 °C 3,2 °C 6,4 km/h (2 Bft)
13.03.2019 02:13 4,3 °C 61 % 1008,5 hPa 0,0 mm 5,8 km/h (2 Bft) S 178 ° 0 min 0,000 mm 0,0 UV-I 0 W/m² -2,5 °C 3,0 °C 8,0 km/h (2 Bft)
13.03.2019 02:14 4,6 °C 59 % 1008,5 hPa 0,0 mm 5,5 km/h (1 Bft) S 175 ° 0 min 0,000 mm 0,0 UV-I 0 W/m² -2,7 °C 3,4 °C 9,7 km/h (2 Bft)
13.03.2019 02:15 4,9 °C 60 % 1008,3 hPa 0,0 mm 4,3 km/h (1 Bft) S 175 ° 0 min 0,000 mm 0,0 UV-I 0 W/m² -2,2 °C 4,9 °C 6,4 km/h (2 Bft)
13.03.2019 02:16 5,0 °C 59 % 1008,4 hPa 0,0 mm 8,3 km/h (2 Bft) S 180 ° 0 min 0,000 mm 0,0 UV-I 0 W/m² -2,3 °C 3,1 °C 9,7 km/h (2 Bft)
13.03.2019 02:17 5,2 °C 59 % 1008,3 hPa 0,0 mm 9,5 km/h (2 Bft) S 172 ° 0 min 0,000 mm 0,0 UV-I 0 W/m² -2,1 °C 3,0 °C 11,3 km/h (2 Bft)
13.03.2019 02:18 5,3 °C 60 % 1008,3 hPa 0,0 mm 8,2 km/h (2 Bft) S 173 ° 0 min 0,000 mm 0,0 UV-I 0 W/m² -1,8 °C 3,4 °C 11,3 km/h (2 Bft)
13.03.2019 02:19 5,4 °C 58 % 1008,4 hPa 0,0 mm 5,7 km/h (1 Bft) S 174 ° 0 min 0,000 mm 0,0 UV-I 0 W/m² -2,2 °C 4,3 °C 11,3 km/h (2 Bft)
13.03.2019 02:20 5,6 °C 57 % 1008,4 hPa 0,0 mm 10,3 km/h (2 Bft) S-SO 168 ° 0 min 0,000 mm 0,0 UV-I 0 W/m² -2,2 °C 3,3 °C 20,9 km/h (4 Bft)
13.03.2019 02:21 5,8 °C 55 % 1008,5 hPa 0,0 mm 7,9 km/h (2 Bft) S-SW 213 ° 0 min 0,000 mm 0,0 UV-I 0 W/m² -2,5 °C 4,1 °C 20,9 km/h (4 Bft)
13.03.2019 02:22 6,1 °C 52 % 1008,5 hPa 0,0 mm 4,2 km/h (1 Bft) S-SW 202 ° 0 min 0,000 mm 0,0 UV-I 0 W/m² -3,0 °C 6,1 °C 8,0 km/h (2 Bft)
13.03.2019 02:23 6,4 °C 51 % 1008,5 hPa 0,0 mm 8,3 km/h (2 Bft) W 265 ° 0 min 0,000 mm 0,0 UV-I 0 W/m² -3,0 °C 4,7 °C 12,9 km/h (3 Bft)
13.03.2019 02:24 6,6 °C 51 % 1008,7 hPa 0,0 mm 6,8 km/h (2 Bft) S-SW 213 ° 0 min 0,000 mm 0,0 UV-I 0 W/m² -2,8 °C 5,3 °C 12,9 km/h (3 Bft)
13.03.2019 02:25 6,7 °C 50 % 1008,7 hPa 0,0 mm 6,2 km/h (2 Bft) SW 222 ° 0 min 0,000 mm 0,0 UV-I 0 W/m² -3,0 °C 5,6 °C 8,0 km/h (2 Bft)
13.03.2019 02:26 6,9 °C 50 % 1008,7 hPa 0,0 mm 6,5 km/h (2 Bft) S-SW 192 ° 0 min 0,000 mm 0,0 UV-I 0 W/m² -2,8 °C 5,8 °C 12,9 km/h (3 Bft)
13.03.2019 02:27 6,9 °C 50 % 1008,7 hPa 0,0 mm 6,2 km/h (2 Bft) W-SW 255 ° 0 min 0,000 mm 0,0 UV-I 0 W/m² -2,8 °C 5,8 °C 9,7 km/h (2 Bft)
13.03.2019 02:28 7,1 °C 49 % 1008,8 hPa 0,0 mm 6,8 km/h (2 Bft) SW 236 ° 0 min 0,000 mm 0,0 UV-I 0 W/m² -2,9 °C 5,9 °C 8,0 km/h (2 Bft)
13.03.2019 02:29 7,1 °C 48 % 1008,9 hPa 0,0 mm 8,3 km/h (2 Bft) SW 219 ° 0 min 0,000 mm 0,0 UV-I 0 W/m² -3,2 °C 5,5 °C 11,3 km/h (2 Bft)
13.03.2019 02:30 7,2 °C 48 % 1008,9 hPa 0,0 mm 7,3 km/h (2 Bft) S-SW 197 ° 0 min 0,000 mm 0,0 UV-I 0 W/m² -3,1 °C 5,9 °C 11,3 km/h (2 Bft)
13.03.2019 02:31 7,2 °C 49 % 1008,9 hPa 0,0 mm 8,0 km/h (2 Bft) W-SW 248 ° 0 min 0,000 mm 0,0 UV-I 0 W/m² -2,8 °C 5,7 °C 12,9 km/h (3 Bft)
13.03.2019 02:32 7,2 °C 48 % 1009,0 hPa 0,0 mm 5,5 km/h (1 Bft) W-SW 252 ° 0 min 0,000 mm 0,0 UV-I 0 W/m² -3,1 °C 6,4 °C 8,0 km/h (2 Bft)
13.03.2019 02:33 7,2 °C 49 % 1009,0 hPa 0,0 mm 12,3 km/h (3 Bft) W 271 ° 0 min 0,000 mm 0,0 UV-I 0 W/m² -2,8 °C 4,9 °C 19,3 km/h (3 Bft)
13.03.2019 02:34 7,1 °C 49 % 1009,0 hPa 0,0 mm 13,2 km/h (3 Bft) W-SW 245 ° 0 min 0,000 mm 0,0 UV-I 0 W/m² -2,9 °C 4,6 °C 17,7 km/h (3 Bft)
13.03.2019 02:35 7,1 °C 50 % 1009,1 hPa 0,0 mm 12,9 km/h (3 Bft) W 267 ° 0 min 0,000 mm 0,0 UV-I 0 W/m² -2,6 °C 4,7 °C 25,7 km/h (4 Bft)
13.03.2019 02:36 7,1 °C 50 % 1009,1 hPa 0,0 mm 8,2 km/h (2 Bft) W-NW 291 ° 0 min 0,000 mm 0,0 UV-I 0 W/m² -2,6 °C 5,6 °C 14,5 km/h (3 Bft)
13.03.2019 02:37 7,0 °C 49 % 1009,2 hPa 0,0 mm 13,2 km/h (3 Bft) W-SW 254 ° 0 min 0,000 mm 0,0 UV-I 0 W/m² -3,0 °C 4,5 °C 24,1 km/h (4 Bft)
13.03.2019 02:38 7,1 °C 49 % 1009,1 hPa 0,0 mm 14,7 km/h (3 Bft) W 262 ° 0 min 0,000 mm 0,0 UV-I 0 W/m² -2,9 °C 4,4 °C 24,1 km/h (4 Bft)
13.03.2019 02:39 7,1 °C 49 % 1009,3 hPa 0,0 mm 14,8 km/h (3 Bft) W-NW 299 ° 0 min 0,000 mm 0,0 UV-I 0 W/m² -2,9 °C 4,4 °C 25,7 km/h (4 Bft)
13.03.2019 02:40 7,2 °C 49 % 1009,3 hPa 0,0 mm 15,9 km/h (3 Bft) W 271 ° 0 min 0,000 mm 0,0 UV-I 0 W/m² -2,8 °C 4,3 °C 25,7 km/h (4 Bft)
13.03.2019 02:41 7,2 °C 50 % 1009,4 hPa 0,0 mm 12,9 km/h (3 Bft) W-NW 286 ° 0 min 0,000 mm 0,0 UV-I 0 W/m² -2,5 °C 4,8 °C 17,7 km/h (3 Bft)
13.03.2019 02:42 7,2 °C 50 % 1009,6 hPa 0,0 mm 20,5 km/h (4 Bft) W-NW 294 ° 0 min 0,000 mm 0,0 UV-I 0 W/m² -2,5 °C 3,8 °C 27,4 km/h (4 Bft)
13.03.2019 02:43 7,2 °C 49 % 1009,5 hPa 0,0 mm 19,6 km/h (3 Bft) W-NW 298 ° 0 min 0,000 mm 0,0 UV-I 0 W/m² -2,8 °C 3,9 °C 29,0 km/h (5 Bft)
13.03.2019 02:44 7,3 °C 50 % 1009,6 hPa 0,0 mm 18,8 km/h (3 Bft) NW 314 ° 0 min 0,000 mm 0,0 UV-I 0 W/m² -2,4 °C 4,1 °C 30,6 km/h (5 Bft)
13.03.2019 02:45 7,3 °C 50 % 1009,6 hPa 0,0 mm 19,9 km/h (4 Bft) W-SW 247 ° 0 min 0,000 mm 0,0 UV-I 0 W/m² -2,4 °C 4,0 °C 25,7 km/h (4 Bft)
13.03.2019 02:46 7,3 °C 51 % 1009,7 hPa 0,0 mm 18,3 km/h (3 Bft) W-SW 248 ° 0 min 0,000 mm 0,0 UV-I 0 W/m² -2,2 °C 4,2 °C 32,2 km/h (5 Bft)
13.03.2019 02:47 7,4 °C 51 % 1009,8 hPa 0,0 mm 21,4 km/h (4 Bft) NW 315 ° 0 min 0,000 mm 0,0 UV-I 0 W/m² -2,1 °C 3,9 °C 33,8 km/h (5 Bft)
13.03.2019 02:48 7,4 °C 51 % 1009,8 hPa 0,0 mm 24,8 km/h (4 Bft) W-NW 297 ° 0 min 0,000 mm 0,0 UV-I 0 W/m² -2,1 °C 3,6 °C 35,4 km/h (5 Bft)
13.03.2019 02:49 7,5 °C 51 % 1009,8 hPa 0,0 mm 23,9 km/h (4 Bft) W-NW 292 ° 0 min 0,000 mm 0,0 UV-I 0 W/m² -2,0 °C 3,8 °C 30,6 km/h (5 Bft)
13.03.2019 02:50 7,5 °C 51 % 1010,0 hPa 0,0 mm 15,5 km/h (3 Bft) W 265 ° 0 min 0,000 mm 0,0 UV-I 0 W/m² -2,0 °C 4,8 °C 22,5 km/h (4 Bft)
13.03.2019 02:51 7,4 °C 52 % 1010,0 hPa 0,0 mm 34,7 km/h (5 Bft) W 267 ° 0 min 0,000 mm 0,0 UV-I 0 W/m² -1,8 °C 2,8 °C 54,7 km/h (7 Bft)
13.03.2019 02:52 7,4 °C 52 % 1010,0 hPa 0,0 mm 28,5 km/h (4 Bft) SW 219 ° 0 min 0,000 mm 0,0 UV-I 0 W/m² -1,8 °C 3,3 °C 49,9 km/h (6 Bft)
13.03.2019 02:53 7,4 °C 52 % 1010,0 hPa 0,0 mm 24,5 km/h (4 Bft) NW 314 ° 0 min 0,000 mm 0,0 UV-I 0 W/m² -1,8 °C 3,6 °C 38,6 km/h (5 Bft)
13.03.2019 02:54 7,3 °C 53 % 1010,0 hPa 0,0 mm 21,3 km/h (4 Bft) W 265 ° 0 min 0,000 mm 0,0 UV-I 0 W/m² -1,6 °C 3,8 °C 29,0 km/h (5 Bft)
13.03.2019 02:55 7,2 °C 53 % 1010,1 hPa 0,0 mm 20,3 km/h (4 Bft) W 266 ° 0 min 0,000 mm 0,0 UV-I 0 W/m² -1,7 °C 3,8 °C 37,0 km/h (5 Bft)
13.03.2019 02:56 7,2 °C 54 % 1010,1 hPa 0,0 mm 20,4 km/h (4 Bft) W-NW 282 ° 0 min 0,000 mm 0,0 UV-I 0 W/m² -1,5 °C 3,8 °C 29,0 km/h (5 Bft)
13.03.2019 02:57 7,1 °C 54 % 1010,1 hPa 0,0 mm 19,2 km/h (3 Bft) NW 306 ° 0 min 0,000 mm 0,0 UV-I 0 W/m² -1,6 °C 3,8 °C 32,2 km/h (5 Bft)
13.03.2019 02:58 7,0 °C 54 % 1010,1 hPa 0,0 mm 28,8 km/h (4 Bft) W 269 ° 0 min 0,000 mm 0,0 UV-I 0 W/m² -1,7 °C 2,8 °C 48,3 km/h (6 Bft)
13.03.2019 02:59 7,0 °C 55 % 1010,2 hPa 0,0 mm 22,2 km/h (4 Bft) W-SW 249 ° 0 min 0,000 mm 0,0 UV-I 0 W/m² -1,4 °C 3,4 °C 37,0 km/h (5 Bft)
13.03.2019 03:00 6,9 °C 55 % 1010,3 hPa 0,0 mm 32,2 km/h (5 Bft) NW 319 ° 0 min 0,000 mm 0,0 UV-I 0 W/m² -1,5 °C 2,4 °C 43,5 km/h (6 Bft)
13.03.2019 03:01 6,9 °C 55 % 1010,2 hPa 0,0 mm 27,6 km/h (4 Bft) W 279 ° 0 min 0,076 mm 0,0 UV-I 0 W/m² -1,5 °C 2,7 °C 41,8 km/h (6 Bft)
13.03.2019 03:02 6,9 °C 56 % 1010,2 hPa 0,0 mm 24,7 km/h (4 Bft) W-NW 295 ° 0 min 0,000 mm 0,0 UV-I 0 W/m² -1,3 °C 3,0 °C 35,4 km/h (5 Bft)
13.03.2019 03:03 6,8 °C 56 % 1010,2 hPa 0,0 mm 21,4 km/h (4 Bft) W 262 ° 0 min 0,000 mm 0,0 UV-I 0 W/m² -1,4 °C 3,2 °C 33,8 km/h (5 Bft)
13.03.2019 03:04 6,8 °C 56 % 1010,3 hPa 0,0 mm 19,6 km/h (3 Bft) W 269 ° 0 min 0,000 mm 0,0 UV-I 0 W/m² -1,4 °C 3,4 °C 27,4 km/h (4 Bft)
13.03.2019 03:05 6,8 °C 56 % 1010,3 hPa 0,0 mm 25,0 km/h (4 Bft) W-SW 258 ° 0 min 0,000 mm 0,0 UV-I 0 W/m² -1,4 °C 2,8 °C 37,0 km/h (5 Bft)
13.03.2019 03:06 6,8 °C 57 % 1010,3 hPa 0,0 mm 23,1 km/h (4 Bft) W-NW 289 ° 0 min 0,000 mm 0,0 UV-I 0 W/m² -1,1 °C 3,0 °C 30,6 km/h (5 Bft)
13.03.2019 03:07 6,7 °C 57 % 1010,3 hPa 0,0 mm 20,2 km/h (4 Bft) W 277 ° 0 min 0,000 mm 0,0 UV-I 0 W/m² -1,2 °C 3,2 °C 29,0 km/h (5 Bft)
13.03.2019 03:08 6,7 °C 57 % 1010,4 hPa 0,0 mm 18,4 km/h (3 Bft) W 262 ° 0 min 0,000 mm 0,0 UV-I 0 W/m² -1,2 °C 3,4 °C 27,4 km/h (4 Bft)
13.03.2019 03:09 6,6 °C 57 % 1010,4 hPa 0,0 mm 22,9 km/h (4 Bft) SW 225 ° 0 min 0,000 mm 0,0 UV-I 0 W/m² -1,3 °C 2,8 °C 32,2 km/h (5 Bft)
13.03.2019 03:10 6,6 °C 57 % 1010,5 hPa 0,0 mm 24,5 km/h (4 Bft) W 272 ° 0 min 0,000 mm 0,0 UV-I 0 W/m² -1,3 °C 2,6 °C 41,8 km/h (6 Bft)
13.03.2019 03:11 6,6 °C 58 % 1010,5 hPa 0,0 mm 24,4 km/h (4 Bft) W-SW 240 ° 0 min 0,000 mm 0,0 UV-I 0 W/m² -1,1 °C 2,6 °C 33,8 km/h (5 Bft)
13.03.2019 03:12 6,5 °C 58 % 1010,5 hPa 0,0 mm 24,7 km/h (4 Bft) W-NW 291 ° 0 min 0,000 mm 0,0 UV-I 0 W/m² -1,2 °C 2,5 °C 38,6 km/h (5 Bft)
13.03.2019 03:13 6,6 °C 58 % 1010,5 hPa 0,0 mm 26,5 km/h (4 Bft) W 271 ° 0 min 0,000 mm 0,0 UV-I 0 W/m² -1,1 °C 2,4 °C 43,5 km/h (6 Bft)
13.03.2019 03:14 6,5 °C 59 % 1010,6 hPa 0,0 mm 26,2 km/h (4 Bft) W-NW 296 ° 0 min 0,000 mm 0,0 UV-I 0 W/m² -0,9 °C 2,3 °C 43,5 km/h (6 Bft)
13.03.2019 03:15 6,5 °C 59 % 1010,3 hPa 0,0 mm 27,7 km/h (4 Bft) W 263 ° 0 min 0,000 mm 0,0 UV-I 0 W/m² -0,9 °C 2,2 °C 41,8 km/h (6 Bft)
13.03.2019 03:16 6,5 °C 60 % 1010,6 hPa 0,0 mm 28,9 km/h (5 Bft) W 260 ° 0 min 0,000 mm 0,0 UV-I 0 W/m² -0,7 °C 2,1 °C 37,0 km/h (5 Bft)
13.03.2019 03:17 6,5 °C 60 % 1010,7 hPa 0,0 mm 23,9 km/h (4 Bft) W-NW 294 ° 0 min 0,000 mm 0,0 UV-I 0 W/m² -0,7 °C 2,5 °C 35,4 km/h (5 Bft)
13.03.2019 03:18 6,5 °C 60 % 1010,7 hPa 0,0 mm 18,0 km/h (3 Bft) W-NW 298 ° 0 min 0,000 mm 0,0 UV-I 0 W/m² -0,7 °C 3,2 °C 30,6 km/h (5 Bft)
13.03.2019 03:19 6,4 °C 60 % 1010,7 hPa 0,0 mm 22,3 km/h (4 Bft) W 274 ° 0 min 0,000 mm 0,0 UV-I 0 W/m² -0,8 °C 2,6 °C 35,4 km/h (5 Bft)
13.03.2019 03:20 6,4 °C 60 % 1010,9 hPa 0,0 mm 21,6 km/h (4 Bft) W 266 ° 0 min 0,000 mm 0,0 UV-I 0 W/m² -0,8 °C 2,7 °C 40,2 km/h (6 Bft)
13.03.2019 03:21 6,4 °C 61 % 1010,9 hPa 0,0 mm 23,9 km/h (4 Bft) W-SW 255 ° 0 min 0,000 mm 0,0 UV-I 0 W/m² -0,6 °C 2,4 °C 32,2 km/h (5 Bft)
13.03.2019 03:22 6,4 °C 61 % 1010,8 hPa 0,0 mm 31,2 km/h (5 Bft) W-SW 250 ° 0 min 0,000 mm 0,0 UV-I 0 W/m² -0,6 °C 1,8 °C 46,7 km/h (6 Bft)
13.03.2019 03:23 6,4 °C 61 % 1010,8 hPa 0,0 mm 15,0 km/h (3 Bft) W 261 ° 0 min 0,000 mm 0,0 UV-I 0 W/m² -0,6 °C 3,5 °C 22,5 km/h (4 Bft)
13.03.2019 03:24 6,3 °C 62 % 1010,7 hPa 0,0 mm 21,9 km/h (4 Bft) W-NW 289 ° 0 min 0,000 mm 0,0 UV-I 0 W/m² -0,4 °C 2,5 °C 30,6 km/h (5 Bft)
13.03.2019 03:25 6,3 °C 62 % 1010,7 hPa 0,0 mm 17,4 km/h (3 Bft) W 265 ° 0 min 0,000 mm 0,0 UV-I 0 W/m² -0,4 °C 3,0 °C 27,4 km/h (4 Bft)
13.03.2019 03:26 6,3 °C 62 % 1010,8 hPa 0,0 mm 19,8 km/h (3 Bft) NW 312 ° 0 min 0,000 mm 0,0 UV-I 0 W/m² -0,4 °C 2,7 °C 25,7 km/h (4 Bft)
13.03.2019 03:27 6,3 °C 62 % 1010,9 hPa 0,0 mm 26,0 km/h (4 Bft) W 279 ° 0 min 0,000 mm 0,0 UV-I 0 W/m² -0,4 °C 2,1 °C 37,0 km/h (5 Bft)
13.03.2019 03:28 6,3 °C 62 % 1010,9 hPa 0,0 mm 21,5 km/h (4 Bft) W-SW 242 ° 0 min 0,000 mm 0,0 UV-I 0 W/m² -0,4 °C 2,5 °C 32,2 km/h (5 Bft)
13.03.2019 03:29 6,2 °C 62 % 1011,0 hPa 0,0 mm 21,1 km/h (4 Bft) W 265 ° 0 min 0,000 mm 0,0 UV-I 0 W/m² -0,5 °C 2,5 °C 27,4 km/h (4 Bft)
13.03.2019 03:30 6,2 °C 62 % 1010,9 hPa 0,0 mm 26,4 km/h (4 Bft) W-NW 290 ° 0 min 0,000 mm 0,0 UV-I 0 W/m² -0,5 °C 1,9 °C 35,4 km/h (5 Bft)
13.03.2019 03:31 6,2 °C 62 % 1010,9 hPa 0,0 mm 29,6 km/h (5 Bft) W-SW 239 ° 0 min 0,000 mm 0,0 UV-I 0 W/m² -0,5 °C 1,6 °C 40,2 km/h (6 Bft)
13.03.2019 03:32 6,2 °C 63 % 1011,0 hPa 0,0 mm 25,0 km/h (4 Bft) W 277 ° 0 min 0,000 mm 0,0 UV-I 0 W/m² -0,3 °C 2,1 °C 37,0 km/h (5 Bft)
13.03.2019 03:33 6,2 °C 63 % 1011,0 hPa 0,0 mm 18,5 km/h (3 Bft) W 261 ° 0 min 0,000 mm 0,0 UV-I 0 W/m² -0,3 °C 2,8 °C 25,7 km/h (4 Bft)
13.03.2019 03:34 6,2 °C 63 % 1011,0 hPa 0,0 mm 20,5 km/h (4 Bft) NW 319 ° 0 min 0,000 mm 0,0 UV-I 0 W/m² -0,3 °C 2,5 °C 27,4 km/h (4 Bft)
13.03.2019 03:35 6,1 °C 63 % 1011,0 hPa 0,0 mm 18,6 km/h (3 Bft) W 271 ° 0 min 0,000 mm 0,0 UV-I 0 W/m² -0,4 °C 2,6 °C 35,4 km/h (5 Bft)
13.03.2019 03:36 6,1 °C 63 % 1011,0 hPa 0,0 mm 24,8 km/h (4 Bft) W 280 ° 0 min 0,000 mm 0,0 UV-I 0 W/m² -0,4 °C 1,9 °C 35,4 km/h (5 Bft)
13.03.2019 03:37 6,1 °C 63 % 1011,1 hPa 0,0 mm 19,3 km/h (3 Bft) W 268 ° 0 min 0,000 mm 0,0 UV-I 0 W/m² -0,4 °C 2,5 °C 27,4 km/h (4 Bft)
13.03.2019 03:38 6,1 °C 63 % 1011,1 hPa 0,0 mm 26,2 km/h (4 Bft) W-NW 296 ° 0 min 0,000 mm 0,0 UV-I 0 W/m² -0,4 °C 1,8 °C 35,4 km/h (5 Bft)
13.03.2019 03:39 6,1 °C 63 % 1011,1 hPa 0,0 mm 20,4 km/h (4 Bft) W 267 ° 0 min 0,000 mm 0,0 UV-I 0 W/m² -0,4 °C 2,4 °C 29,0 km/h (5 Bft)
13.03.2019 03:40 6,0 °C 64 % 1011,2 hPa 0,0 mm 24,9 km/h (4 Bft) W-NW 299 ° 0 min 0,000 mm 0,0 UV-I 0 W/m² -0,3 °C 1,8 °C 48,3 km/h (6 Bft)
13.03.2019 03:41 6,0 °C 64 % 1011,2 hPa 0,0 mm 28,1 km/h (4 Bft) W 279 ° 0 min 0,000 mm 0,0 UV-I 0 W/m² -0,3 °C 1,5 °C 38,6 km/h (5 Bft)
13.03.2019 03:42 5,9 °C 64 % 1011,1 hPa 0,0 mm 24,5 km/h (4 Bft) W-NW 292 ° 0 min 0,000 mm 0,0 UV-I 0 W/m² -0,4 °C 1,7 °C 43,5 km/h (6 Bft)
13.03.2019 03:43 5,9 °C 65 % 1011,2 hPa 0,0 mm 25,1 km/h (4 Bft) W 274 ° 0 min 0,000 mm 0,0 UV-I 0 W/m² -0,2 °C 1,7 °C 38,6 km/h (5 Bft)
13.03.2019 03:44 5,9 °C 65 % 1011,2 hPa 0,0 mm 21,5 km/h (4 Bft) W 273 ° 0 min 0,000 mm 0,0 UV-I 0 W/m² -0,2 °C 2,0 °C 40,2 km/h (6 Bft)
13.03.2019 03:45 5,8 °C 66 % 1011,2 hPa 0,0 mm 26,2 km/h (4 Bft) W-NW 282 ° 0 min 0,000 mm 0,0 UV-I 0 W/m² -0,0 °C 1,4 °C 45,1 km/h (6 Bft)
13.03.2019 03:46 5,7 °C 67 % 1011,2 hPa 0,0 mm 21,3 km/h (4 Bft) W-NW 293 ° 0 min 0,000 mm 0,0 UV-I 0 W/m² 0,1 °C 1,8 °C 41,8 km/h (6 Bft)
13.03.2019 03:47 5,7 °C 67 % 1011,2 hPa 0,0 mm 29,9 km/h (5 Bft) W 259 ° 0 min 0,000 mm 0,0 UV-I 0 W/m² 0,1 °C 1,0 °C 43,5 km/h (6 Bft)
13.03.2019 03:48 5,6 °C 67 % 1011,2 hPa 0,0 mm 29,6 km/h (5 Bft) W-NW 287 ° 0 min 0,000 mm 0,0 UV-I 0 W/m² -0,0 °C 0,9 °C 40,2 km/h (6 Bft)
13.03.2019 03:49 5,6 °C 68 % 1011,2 hPa 0,0 mm 21,4 km/h (4 Bft) W-SW 239 ° 0 min 0,000 mm 0,0 UV-I 0 W/m² 0,2 °C 1,7 °C 33,8 km/h (5 Bft)
13.03.2019 03:50 5,5 °C 68 % 1011,3 hPa 0,0 mm 20,7 km/h (4 Bft) W-NW 292 ° 0 min 0,000 mm 0,0 UV-I 0 W/m² 0,1 °C 1,6 °C 30,6 km/h (5 Bft)
13.03.2019 03:51 5,4 °C 68 % 1011,4 hPa 0,0 mm 18,6 km/h (3 Bft) W 272 ° 0 min 0,000 mm 0,0 UV-I 0 W/m² -0,0 °C 1,7 °C 27,4 km/h (4 Bft)
13.03.2019 03:52 5,4 °C 68 % 1011,3 hPa 0,0 mm 23,7 km/h (4 Bft) W 265 ° 0 min 0,000 mm 0,0 UV-I 0 W/m² -0,0 °C 1,2 °C 35,4 km/h (5 Bft)
13.03.2019 03:53 5,3 °C 69 % 1011,3 hPa 0,0 mm 30,5 km/h (5 Bft) W-NW 296 ° 0 min 0,000 mm 0,0 UV-I 0 W/m² 0,1 °C 0,4 °C 41,8 km/h (6 Bft)
13.03.2019 03:54 5,3 °C 69 % 1011,3 hPa 0,0 mm 31,7 km/h (5 Bft) W-NW 297 ° 0 min 0,000 mm 0,0 UV-I 0 W/m² 0,1 °C 0,3 °C 45,1 km/h (6 Bft)
13.03.2019 03:55 5,3 °C 69 % 1011,3 hPa 0,0 mm 31,2 km/h (5 Bft) W-SW 254 ° 0 min 0,000 mm 0,0 UV-I 0 W/m² 0,1 °C 0,3 °C 48,3 km/h (6 Bft)
13.03.2019 03:56 5,3 °C 69 % 1011,5 hPa 0,0 mm 21,0 km/h (4 Bft) W-NW 294 ° 0 min 0,000 mm 0,0 UV-I 0 W/m² 0,1 °C 1,3 °C 29,0 km/h (5 Bft)
13.03.2019 03:57 5,3 °C 70 % 1011,3 hPa 0,0 mm 21,0 km/h (4 Bft) W 270 ° 0 min 0,000 mm 0,0 UV-I 0 W/m² 0,3 °C 1,3 °C 32,2 km/h (5 Bft)
13.03.2019 03:58 5,2 °C 70 % 1011,3 hPa 0,0 mm 25,2 km/h (4 Bft) W 270 ° 0 min 0,000 mm 0,0 UV-I 0 W/m² 0,2 °C 0,8 °C 32,2 km/h (5 Bft)
13.03.2019 03:59 5,2 °C 70 % 1011,4 hPa 0,0 mm 31,2 km/h (5 Bft) W 266 ° 0 min 0,000 mm 0,0 UV-I 0 W/m² 0,2 °C 0,2 °C 54,7 km/h (7 Bft)
13.03.2019 04:00 5,2 °C 70 % 1011,5 hPa 0,0 mm 28,8 km/h (4 Bft) W 263 ° 0 min 0,076 mm 0,0 UV-I 0 W/m² 0,2 °C 0,4 °C 56,3 km/h (7 Bft)
13.03.2019 04:01 5,2 °C 71 % 1011,5 hPa 0,0 mm 24,3 km/h (4 Bft) W 266 ° 0 min 0,000 mm 0,0 UV-I 0 W/m² 0,4 °C 0,8 °C 37,0 km/h (5 Bft)
13.03.2019 04:02 5,1 °C 71 % 1011,5 hPa 0,0 mm 24,2 km/h (4 Bft) W-NW 284 ° 0 min 0,000 mm 0,0 UV-I 0 W/m² 0,3 °C 0,7 °C 35,4 km/h (5 Bft)
13.03.2019 04:03 5,1 °C 72 % 1011,6 hPa 0,0 mm 25,3 km/h (4 Bft) W-NW 297 ° 0 min 0,000 mm 0,0 UV-I 0 W/m² 0,5 °C 0,6 °C 35,4 km/h (5 Bft)
13.03.2019 04:04 5,1 °C 72 % 1011,5 hPa 0,0 mm 23,7 km/h (4 Bft) W 273 ° 0 min 0,000 mm 0,0 UV-I 0 W/m² 0,5 °C 0,8 °C 41,8 km/h (6 Bft)
13.03.2019 04:05 5,1 °C 73 % 1011,5 hPa 0,0 mm 25,1 km/h (4 Bft) W 268 ° 0 min 0,000 mm 0,0 UV-I 0 W/m² 0,7 °C 0,6 °C 32,2 km/h (5 Bft)
13.03.2019 04:06 5,0 °C 73 % 1011,6 hPa 0,0 mm 22,9 km/h (4 Bft) SW 227 ° 0 min 0,000 mm 0,0 UV-I 0 W/m² 0,6 °C 0,7 °C 29,0 km/h (5 Bft)
13.03.2019 04:07 4,9 °C 73 % 1011,5 hPa 0,0 mm 34,3 km/h (5 Bft) W-NW 296 ° 0 min 0,000 mm 0,0 UV-I 0 W/m² 0,5 °C -0,4 °C 45,1 km/h (6 Bft)
13.03.2019 04:08 4,9 °C 74 % 1011,4 hPa 0,0 mm 28,4 km/h (4 Bft) W 264 ° 0 min 0,000 mm 0,0 UV-I 0 W/m² 0,7 °C 0,1 °C 37,0 km/h (5 Bft)
13.03.2019 04:09 4,9 °C 74 % 1011,4 hPa 0,0 mm 24,7 km/h (4 Bft) W-SW 250 ° 0 min 0,000 mm 0,0 UV-I 0 W/m² 0,7 °C 0,4 °C 32,2 km/h (5 Bft)
13.03.2019 04:10 4,8 °C 74 % 1011,5 hPa 0,0 mm 19,9 km/h (4 Bft) W-NW 286 ° 0 min 0,000 mm 0,0 UV-I 0 W/m² 0,6 °C 0,8 °C 29,0 km/h (5 Bft)
13.03.2019 04:11 4,8 °C 75 % 1011,5 hPa 0,0 mm 25,9 km/h (4 Bft) W-SW 250 ° 0 min 0,000 mm 0,0 UV-I 0 W/m² 0,8 °C 0,2 °C 45,1 km/h (6 Bft)
13.03.2019 04:12 4,8 °C 75 % 1011,5 hPa 0,0 mm 27,2 km/h (4 Bft) W 270 ° 0 min 0,000 mm 0,0 UV-I 0 W/m² 0,8 °C 0,0 °C 40,2 km/h (6 Bft)
13.03.2019 04:13 4,7 °C 75 % 1011,5 hPa 0,0 mm 25,0 km/h (4 Bft) W-SW 250 ° 0 min 0,000 mm 0,0 UV-I 0 W/m² 0,7 °C 0,1 °C 41,8 km/h (6 Bft)
13.03.2019 04:14 4,7 °C 76 % 1011,5 hPa 0,0 mm 22,0 km/h (4 Bft) W 269 ° 0 min 0,000 mm 0,0 UV-I 0 W/m² 0,8 °C 0,5 °C 32,2 km/h (5 Bft)
13.03.2019 04:15 4,6 °C 76 % 1011,5 hPa 0,0 mm 25,5 km/h (4 Bft) NW 308 ° 0 min 0,000 mm 0,0 UV-I 0 W/m² 0,7 °C -0,0 °C 41,8 km/h (6 Bft)
13.03.2019 04:16 4,6 °C 76 % 1011,6 hPa 0,0 mm 19,6 km/h (3 Bft) W 273 ° 0 min 0,000 mm 0,0 UV-I 0 W/m² 0,7 °C 0,6 °C 32,2 km/h (5 Bft)
13.03.2019 04:17 4,6 °C 76 % 1011,6 hPa 0,0 mm 26,9 km/h (4 Bft) SW 228 ° 0 min 0,000 mm 0,0 UV-I 0 W/m² 0,7 °C -0,2 °C 40,2 km/h (6 Bft)
13.03.2019 04:18 4,5 °C 76 % 1011,6 hPa 0,0 mm 25,6 km/h (4 Bft) W-NW 289 ° 0 min 0,000 mm 0,0 UV-I 0 W/m² 0,6 °C -0,2 °C 43,5 km/h (6 Bft)
13.03.2019 04:19 4,4 °C 77 % 1011,6 hPa 0,0 mm 22,9 km/h (4 Bft) W 265 ° 0 min 0,000 mm 0,0 UV-I 0 W/m² 0,7 °C -0,0 °C 35,4 km/h (5 Bft)
13.03.2019 04:20 4,4 °C 77 % 1011,6 hPa 0,0 mm 20,3 km/h (4 Bft) W-SW 257 ° 0 min 0,000 mm 0,0 UV-I 0 W/m² 0,7 °C 0,3 °C 32,2 km/h (5 Bft)
13.03.2019 04:21 4,3 °C 77 % 1011,5 hPa 0,0 mm 24,7 km/h (4 Bft) W 272 ° 0 min 0,000 mm 0,0 UV-I 0 W/m² 0,6 °C -0,4 °C 43,5 km/h (6 Bft)
13.03.2019 04:22 4,3 °C 77 % 1011,5 hPa 0,0 mm 23,7 km/h (4 Bft) W 262 ° 0 min 0,000 mm 0,0 UV-I 0 W/m² 0,6 °C -0,2 °C 27,4 km/h (4 Bft)
13.03.2019 04:23 4,3 °C 77 % 1011,6 hPa 0,0 mm 21,2 km/h (4 Bft) W-SW 252 ° 0 min 0,000 mm 0,0 UV-I 0 W/m² 0,6 °C 0,0 °C 32,2 km/h (5 Bft)
13.03.2019 04:24 4,3 °C 77 % 1011,7 hPa 0,0 mm 23,9 km/h (4 Bft) W-SW 240 ° 0 min 0,000 mm 0,0 UV-I 0 W/m² 0,6 °C -0,3 °C 35,4 km/h (5 Bft)
13.03.2019 04:25 4,3 °C 78 % 1011,7 hPa 0,0 mm 23,5 km/h (4 Bft) NW 305 ° 0 min 0,000 mm 0,0 UV-I 0 W/m² 0,8 °C -0,2 °C 37,0 km/h (5 Bft)
13.03.2019 04:26 4,3 °C 77 % 1011,7 hPa 0,0 mm 22,3 km/h (4 Bft) W 267 ° 0 min 0,000 mm 0,0 UV-I 0 W/m² 0,6 °C -0,1 °C 30,6 km/h (5 Bft)
13.03.2019 04:27 4,3 °C 78 % 1011,8 hPa 0,0 mm 17,0 km/h (3 Bft) W-SW 248 ° 0 min 0,000 mm 0,0 UV-I 0 W/m² 0,8 °C 0,6 °C 29,0 km/h (5 Bft)
13.03.2019 04:28 4,2 °C 77 % 1011,8 hPa 0,0 mm 21,7 km/h (4 Bft) W 262 ° 0 min 0,000 mm 0,0 UV-I 0 W/m² 0,5 °C -0,1 °C 29,0 km/h (5 Bft)
13.03.2019 04:29 4,2 °C 77 % 1011,8 hPa 0,0 mm 24,1 km/h (4 Bft) W-NW 298 ° 0 min 0,000 mm 0,0 UV-I 0 W/m² 0,5 °C -0,4 °C 46,7 km/h (6 Bft)
13.03.2019 04:30 4,2 °C 78 % 1011,8 hPa 0,0 mm 16,0 km/h (3 Bft) W 264 ° 0 min 0,000 mm 0,0 UV-I 0 W/m² 0,7 °C 0,6 °C 24,1 km/h (4 Bft)
13.03.2019 04:31 4,2 °C 78 % 1011,7 hPa 0,0 mm 14,9 km/h (3 Bft) W-NW 284 ° 0 min 0,000 mm 0,0 UV-I 0 W/m² 0,7 °C 0,8 °C 24,1 km/h (4 Bft)
13.03.2019 04:32 4,1 °C 78 % 1011,6 hPa 0,0 mm 19,8 km/h (3 Bft) W-SW 251 ° 0 min 0,000 mm 0,0 UV-I 0 W/m² 0,6 °C -0,0 °C 33,8 km/h (5 Bft)
13.03.2019 04:33 4,1 °C 78 % 1011,7 hPa 0,0 mm 21,1 km/h (4 Bft) W-SW 240 ° 0 min 0,000 mm 0,0 UV-I 0 W/m² 0,6 °C -0,2 °C 27,4 km/h (4 Bft)
13.03.2019 04:34 4,1 °C 78 % 1011,7 hPa 0,0 mm 18,7 km/h (3 Bft) W 267 ° 0 min 0,000 mm 0,0 UV-I 0 W/m² 0,6 °C 0,1 °C 25,7 km/h (4 Bft)
13.03.2019 04:35 4,0 °C 79 % 1011,7 hPa 0,0 mm 17,8 km/h (3 Bft) W-NW 293 ° 0 min 0,000 mm 0,0 UV-I 0 W/m² 0,7 °C 0,1 °C 24,1 km/h (4 Bft)
13.03.2019 04:36 3,9 °C 79 % 1011,7 hPa 0,0 mm 12,9 km/h (3 Bft) W-SW 252 ° 0 min 0,000 mm 0,0 UV-I 0 W/m² 0,6 °C 0,8 °C 19,3 km/h (3 Bft)
13.03.2019 04:37 3,9 °C 79 % 1011,7 hPa 0,0 mm 15,9 km/h (3 Bft) W-SW 249 ° 0 min 0,000 mm 0,0 UV-I 0 W/m² 0,6 °C 0,3 °C 24,1 km/h (4 Bft)
13.03.2019 04:38 3,9 °C 79 % 1011,7 hPa 0,0 mm 9,8 km/h (2 Bft) W-SW 257 ° 0 min 0,000 mm 0,0 UV-I 0 W/m² 0,6 °C 1,4 °C 20,9 km/h (4 Bft)
13.03.2019 04:39 3,9 °C 79 % 1011,8 hPa 0,0 mm 11,1 km/h (2 Bft) W-SW 257 ° 0 min 0,000 mm 0,0 UV-I 0 W/m² 0,6 °C 1,1 °C 14,5 km/h (3 Bft)
13.03.2019 04:40 3,8 °C 80 % 1011,8 hPa 0,0 mm 14,3 km/h (3 Bft) W 271 ° 0 min 0,000 mm 0,0 UV-I 0 W/m² 0,7 °C 0,4 °C 17,7 km/h (3 Bft)
13.03.2019 04:41 3,8 °C 80 % 1011,8 hPa 0,0 mm 16,6 km/h (3 Bft) W 262 ° 0 min 0,000 mm 0,0 UV-I 0 W/m² 0,7 °C 0,0 °C 27,4 km/h (4 Bft)
13.03.2019 04:42 3,8 °C 80 % 1011,7 hPa 0,0 mm 16,2 km/h (3 Bft) W-SW 252 ° 0 min 0,000 mm 0,0 UV-I 0 W/m² 0,7 °C 0,1 °C 30,6 km/h (5 Bft)
13.03.2019 04:43 3,8 °C 80 % 1011,7 hPa 0,0 mm 22,1 km/h (4 Bft) W-SW 247 ° 0 min 0,000 mm 0,0 UV-I 0 W/m² 0,7 °C -0,7 °C 30,6 km/h (5 Bft)
13.03.2019 04:44 3,8 °C 81 % 1011,8 hPa 0,0 mm 19,5 km/h (3 Bft) W-SW 251 ° 0 min 0,000 mm 0,0 UV-I 0 W/m² 0,8 °C -0,4 °C 29,0 km/h (5 Bft)
13.03.2019 04:45 3,7 °C 81 % 1011,7 hPa 0,0 mm 15,2 km/h (3 Bft) W-NW 286 ° 0 min 0,000 mm 0,0 UV-I 0 W/m² 0,7 °C 0,1 °C 29,0 km/h (5 Bft)
13.03.2019 04:46 3,7 °C 81 % 1011,9 hPa 0,0 mm 25,5 km/h (4 Bft) W-SW 241 ° 0 min 0,000 mm 0,0 UV-I 0 W/m² 0,7 °C -1,2 °C 35,4 km/h (5 Bft)
13.03.2019 04:47 3,7 °C 81 % 1011,9 hPa 0,0 mm 20,6 km/h (4 Bft) W-SW 250 ° 0 min 0,000 mm 0,0 UV-I 0 W/m² 0,7 °C -0,6 °C 32,2 km/h (5 Bft)
13.03.2019 04:48 3,7 °C 81 % 1011,9 hPa 0,0 mm 28,6 km/h (4 Bft) NW 308 ° 0 min 0,000 mm 0,0 UV-I 0 W/m² 0,7 °C -1,5 °C 40,2 km/h (6 Bft)
13.03.2019 04:49 3,7 °C 81 % 1011,9 hPa 0,0 mm 19,2 km/h (3 Bft) SW 229 ° 0 min 0,000 mm 0,0 UV-I 0 W/m² 0,7 °C -0,5 °C 27,4 km/h (4 Bft)
13.03.2019 04:50 3,7 °C 81 % 1011,8 hPa 0,0 mm 23,4 km/h (4 Bft) W 267 ° 0 min 0,000 mm 0,0 UV-I 0 W/m² 0,7 °C -1,0 °C 40,2 km/h (6 Bft)
13.03.2019 04:51 3,7 °C 81 % 1011,8 hPa 0,0 mm 17,0 km/h (3 Bft) W 265 ° 0 min 0,000 mm 0,0 UV-I 0 W/m² 0,7 °C -0,2 °C 25,7 km/h (4 Bft)
13.03.2019 04:52 3,7 °C 81 % 1011,9 hPa 0,0 mm 20,2 km/h (4 Bft) W-SW 257 ° 0 min 0,000 mm 0,0 UV-I 0 W/m² 0,7 °C -0,6 °C 33,8 km/h (5 Bft)
13.03.2019 04:53 3,6 °C 82 % 1012,0 hPa 0,0 mm 21,9 km/h (4 Bft) W 273 ° 0 min 0,000 mm 0,0 UV-I 0 W/m² 0,8 °C -0,9 °C 29,0 km/h (5 Bft)
13.03.2019 04:54 3,6 °C 82 % 1012,0 hPa 0,0 mm 20,7 km/h (4 Bft) W-NW 292 ° 0 min 0,000 mm 0,0 UV-I 0 W/m² 0,8 °C -0,8 °C 33,8 km/h (5 Bft)
13.03.2019 04:55 3,6 °C 82 % 1012,0 hPa 0,0 mm 15,8 km/h (3 Bft) W 264 ° 0 min 0,000 mm 0,0 UV-I 0 W/m² 0,8 °C -0,1 °C 25,7 km/h (4 Bft)
13.03.2019 04:56 3,6 °C 82 % 1011,9 hPa 0,0 mm 24,4 km/h (4 Bft) W 268 ° 0 min 0,000 mm 0,0 UV-I 0 W/m² 0,8 °C -1,2 °C 33,8 km/h (5 Bft)
13.03.2019 04:57 3,5 °C 82 % 1011,9 hPa 0,0 mm 19,2 km/h (3 Bft) W 272 ° 0 min 0,000 mm 0,0 UV-I 0 W/m² 0,7 °C -0,7 °C 29,0 km/h (5 Bft)
13.03.2019 04:58 3,5 °C 82 % 1012,0 hPa 0,0 mm 20,1 km/h (4 Bft) W-SW 256 ° 0 min 0,000 mm 0,0 UV-I 0 W/m² 0,7 °C -0,8 °C 27,4 km/h (4 Bft)
13.03.2019 04:59 3,4 °C 82 % 1011,9 hPa 0,0 mm 14,3 km/h (3 Bft) W 279 ° 0 min 0,000 mm 0,0 UV-I 0 W/m² 0,6 °C -0,1 °C 19,3 km/h (3 Bft)
13.03.2019 05:00 3,4 °C 83 % 1012,0 hPa 0,0 mm 14,4 km/h (3 Bft) W-SW 253 ° 0 min 0,051 mm 0,0 UV-I 0 W/m² 0,8 °C -0,1 °C 24,1 km/h (4 Bft)
13.03.2019 05:01 3,4 °C 83 % 1012,0 hPa 0,0 mm 17,7 km/h (3 Bft) W-NW 288 ° 0 min 0,000 mm 0,0 UV-I 0 W/m² 0,8 °C -0,6 °C 27,4 km/h (4 Bft)
13.03.2019 05:02 3,4 °C 83 % 1012,0 hPa 0,0 mm 23,2 km/h (4 Bft) W 259 ° 0 min 0,000 mm 0,0 UV-I 0 W/m² 0,8 °C -1,3 °C 38,6 km/h (5 Bft)
13.03.2019 05:03 3,3 °C 83 % 1012,0 hPa 0,0 mm 23,5 km/h (4 Bft) W-SW 252 ° 0 min 0,000 mm 0,0 UV-I 0 W/m² 0,7 °C -1,5 °C 40,2 km/h (6 Bft)
13.03.2019 05:04 3,3 °C 83 % 1012,0 hPa 0,0 mm 23,5 km/h (4 Bft) W-NW 298 ° 0 min 0,000 mm 0,0 UV-I 0 W/m² 0,7 °C -1,5 °C 37,0 km/h (5 Bft)
13.03.2019 05:05 3,3 °C 83 % 1012,1 hPa 0,0 mm 21,6 km/h (4 Bft) W 270 ° 0 min 0,000 mm 0,0 UV-I 0 W/m² 0,7 °C -1,3 °C 29,0 km/h (5 Bft)
13.03.2019 05:06 3,3 °C 83 % 1012,1 hPa 0,0 mm 21,9 km/h (4 Bft) W-NW 298 ° 0 min 0,000 mm 0,0 UV-I 0 W/m² 0,7 °C -1,3 °C 29,0 km/h (5 Bft)
13.03.2019 05:07 3,3 °C 84 % 1012,2 hPa 0,0 mm 23,2 km/h (4 Bft) W-SW 250 ° 0 min 0,000 mm 0,0 UV-I 0 W/m² 0,9 °C -1,5 °C 33,8 km/h (5 Bft)
13.03.2019 05:08 3,3 °C 84 % 1012,2 hPa 0,0 mm 21,2 km/h (4 Bft) W-SW 254 ° 0 min 0,000 mm 0,0 UV-I 0 W/m² 0,9 °C -1,2 °C 29,0 km/h (5 Bft)
13.03.2019 05:09 3,2 °C 84 % 1012,1 hPa 0,0 mm 13,5 km/h (3 Bft) W 267 ° 0 min 0,000 mm 0,0 UV-I 0 W/m² 0,8 °C -0,2 °C 20,9 km/h (4 Bft)
13.03.2019 05:10 3,2 °C 84 % 1012,1 hPa 0,0 mm 16,3 km/h (3 Bft) NW 315 ° 0 min 0,000 mm 0,0 UV-I 0 W/m² 0,8 °C -0,7 °C 27,4 km/h (4 Bft)
13.03.2019 05:11 3,2 °C 84 % 1012,1 hPa 0,0 mm 15,1 km/h (3 Bft) W 259 ° 0 min 0,000 mm 0,0 UV-I 0 W/m² 0,8 °C -0,5 °C 32,2 km/h (5 Bft)
13.03.2019 05:12 3,1 °C 84 % 1012,0 hPa 0,0 mm 19,7 km/h (3 Bft) W-SW 257 ° 0 min 0,000 mm 0,0 UV-I 0 W/m² 0,7 °C -1,3 °C 32,2 km/h (5 Bft)
13.03.2019 05:13 3,1 °C 85 % 1012,0 hPa 0,0 mm 15,6 km/h (3 Bft) W 269 ° 0 min 0,000 mm 0,0 UV-I 0 W/m² 0,8 °C -0,7 °C 25,7 km/h (4 Bft)
13.03.2019 05:14 3,1 °C 84 % 1012,1 hPa 0,0 mm 23,9 km/h (4 Bft) W-NW 289 ° 0 min 0,000 mm 0,0 UV-I 0 W/m² 0,7 °C -1,8 °C 41,8 km/h (6 Bft)
13.03.2019 05:15 2,9 °C 84 % 1012,1 hPa 0,0 mm 17,5 km/h (3 Bft) SW 234 ° 0 min 0,000 mm 0,0 UV-I 0 W/m² 0,5 °C -1,2 °C 24,1 km/h (4 Bft)
13.03.2019 05:16 2,9 °C 85 % 1012,1 hPa 0,0 mm 16,1 km/h (3 Bft) W-SW 246 ° 0 min 0,000 mm 0,0 UV-I 0 W/m² 0,6 °C -1,0 °C 27,4 km/h (4 Bft)
13.03.2019 05:17 2,9 °C 85 % 1012,0 hPa 0,2 mm 17,5 km/h (3 Bft) W 260 ° 0 min 0,000 mm 0,0 UV-I 0 W/m² 0,6 °C -1,2 °C 29,0 km/h (5 Bft)
13.03.2019 05:18 2,9 °C 85 % 1012,0 hPa 0,0 mm 18,8 km/h (3 Bft) W 274 ° 0 min 0,000 mm 0,0 UV-I 0 W/m² 0,6 °C -1,4 °C 33,8 km/h (5 Bft)
13.03.2019 05:19 2,9 °C 85 % 1011,8 hPa 0,0 mm 17,8 km/h (3 Bft) W 262 ° 0 min 0,000 mm 0,0 UV-I 0 W/m² 0,6 °C -1,3 °C 27,4 km/h (4 Bft)
13.03.2019 05:20 2,9 °C 85 % 1011,9 hPa 0,0 mm 21,1 km/h (4 Bft) W-SW 258 ° 0 min 0,000 mm 0,0 UV-I 0 W/m² 0,6 °C -1,7 °C 33,8 km/h (5 Bft)
13.03.2019 05:21 2,9 °C 85 % 1012,0 hPa 0,0 mm 15,7 km/h (3 Bft) W-NW 288 ° 0 min 0,000 mm 0,0 UV-I 0 W/m² 0,6 °C -1,0 °C 22,5 km/h (4 Bft)
13.03.2019 05:22 2,9 °C 85 % 1012,1 hPa 0,0 mm 13,9 km/h (3 Bft) W 272 ° 0 min 0,000 mm 0,0 UV-I 0 W/m² 0,6 °C -0,6 °C 30,6 km/h (5 Bft)
13.03.2019 05:23 2,9 °C 85 % 1012,1 hPa 0,0 mm 14,1 km/h (3 Bft) W-SW 251 ° 0 min 0,000 mm 0,0 UV-I 0 W/m² 0,6 °C -0,7 °C 20,9 km/h (4 Bft)
13.03.2019 05:24 2,9 °C 85 % 1012,1 hPa 0,0 mm 14,2 km/h (3 Bft) W 274 ° 0 min 0,000 mm 0,0 UV-I 0 W/m² 0,6 °C -0,7 °C 27,4 km/h (4 Bft)
13.03.2019 05:25 2,9 °C 84 % 1012,1 hPa 0,0 mm 22,3 km/h (4 Bft) W 280 ° 0 min 0,000 mm 0,0 UV-I 0 W/m² 0,5 °C -1,9 °C 32,2 km/h (5 Bft)
13.03.2019 05:26 2,9 °C 84 % 1012,1 hPa 0,0 mm 14,9 km/h (3 Bft) W 266 ° 0 min 0,000 mm 0,0 UV-I 0 W/m² 0,5 °C -0,8 °C 20,9 km/h (4 Bft)
13.03.2019 05:27 2,9 °C 84 % 1012,2 hPa 0,0 mm 15,0 km/h (3 Bft) W-NW 285 ° 0 min 0,000 mm 0,0 UV-I 0 W/m² 0,5 °C -0,8 °C 20,9 km/h (4 Bft)
13.03.2019 05:28 2,9 °C 84 % 1012,2 hPa 0,0 mm 16,6 km/h (3 Bft) W-NW 286 ° 0 min 0,000 mm 0,0 UV-I 0 W/m² 0,5 °C -1,1 °C 27,4 km/h (4 Bft)
13.03.2019 05:29 2,9 °C 84 % 1012,2 hPa 0,0 mm 9,4 km/h (2 Bft) W-NW 290 ° 0 min 0,000 mm 0,0 UV-I 0 W/m² 0,5 °C 0,3 °C 20,9 km/h (4 Bft)
13.03.2019 05:30 2,9 °C 83 % 1012,3 hPa 0,0 mm 13,2 km/h (3 Bft) W 264 ° 0 min 0,000 mm 0,0 UV-I 0 W/m² 0,3 °C -0,5 °C 25,7 km/h (4 Bft)
13.03.2019 05:31 2,9 °C 83 % 1012,3 hPa 0,0 mm 21,7 km/h (4 Bft) W 260 ° 0 min 0,000 mm 0,0 UV-I 0 W/m² 0,3 °C -1,8 °C 35,4 km/h (5 Bft)
13.03.2019 05:32 2,9 °C 83 % 1012,3 hPa 0,0 mm 9,5 km/h (2 Bft) W-SW 247 ° 0 min 0,000 mm 0,0 UV-I 0 W/m² 0,3 °C 0,3 °C 17,7 km/h (3 Bft)
13.03.2019 05:33 2,9 °C 83 % 1012,4 hPa 0,0 mm 20,3 km/h (4 Bft) W 261 ° 0 min 0,000 mm 0,0 UV-I 0 W/m² 0,3 °C -1,6 °C 25,7 km/h (4 Bft)
13.03.2019 05:34 3,0 °C 82 % 1012,3 hPa 0,0 mm 24,4 km/h (4 Bft) W 269 ° 0 min 0,000 mm 0,0 UV-I 0 W/m² 0,2 °C -2,0 °C 37,0 km/h (5 Bft)
13.03.2019 05:35 3,0 °C 82 % 1012,5 hPa 0,0 mm 22,3 km/h (4 Bft) W-NW 289 ° 0 min 0,000 mm 0,0 UV-I 0 W/m² 0,2 °C -1,7 °C 27,4 km/h (4 Bft)
13.03.2019 05:36 3,0 °C 82 % 1012,4 hPa 0,0 mm 15,7 km/h (3 Bft) W 277 ° 0 min 0,000 mm 0,0 UV-I 0 W/m² 0,2 °C -0,8 °C 20,9 km/h (4 Bft)
13.03.2019 05:37 3,1 °C 81 % 1012,4 hPa 0,0 mm 10,3 km/h (2 Bft) W 276 ° 0 min 0,000 mm 0,0 UV-I 0 W/m² 0,2 °C 0,3 °C 16,1 km/h (3 Bft)
13.03.2019 05:38 3,1 °C 81 % 1012,4 hPa 0,0 mm 14,7 km/h (3 Bft) NW 310 ° 0 min 0,000 mm 0,0 UV-I 0 W/m² 0,2 °C -0,5 °C 19,3 km/h (3 Bft)
13.03.2019 05:39 3,1 °C 81 % 1012,5 hPa 0,0 mm 11,5 km/h (2 Bft) W-NW 285 ° 0 min 0,000 mm 0,0 UV-I 0 W/m² 0,2 °C 0,1 °C 14,5 km/h (3 Bft)
13.03.2019 05:40 3,1 °C 81 % 1012,5 hPa 0,0 mm 15,0 km/h (3 Bft) W 277 ° 0 min 0,000 mm 0,0 UV-I 0 W/m² 0,2 °C -0,6 °C 19,3 km/h (3 Bft)
13.03.2019 05:41 3,1 °C 81 % 1012,5 hPa 0,0 mm 13,6 km/h (3 Bft) W-SW 255 ° 0 min 0,000 mm 0,0 UV-I 0 W/m² 0,2 °C -0,4 °C 19,3 km/h (3 Bft)
13.03.2019 05:42 3,1 °C 81 % 1012,5 hPa 0,0 mm 10,5 km/h (2 Bft) W-SW 245 ° 0 min 0,000 mm 0,0 UV-I 0 W/m² 0,2 °C 0,3 °C 17,7 km/h (3 Bft)
13.03.2019 05:43 3,1 °C 82 % 1012,5 hPa 0,0 mm 11,1 km/h (2 Bft) W-SW 246 ° 0 min 0,000 mm 0,0 UV-I 0 W/m² 0,3 °C 0,1 °C 19,3 km/h (3 Bft)
13.03.2019 05:44 3,1 °C 82 % 1012,6 hPa 0,0 mm 12,9 km/h (3 Bft) W-NW 293 ° 0 min 0,000 mm 0,0 UV-I 0 W/m² 0,3 °C -0,2 °C 17,7 km/h (3 Bft)
13.03.2019 05:45 3,1 °C 82 % 1012,6 hPa 0,0 mm 15,0 km/h (3 Bft) W 267 ° 0 min 0,000 mm 0,0 UV-I 0 W/m² 0,3 °C -0,6 °C 24,1 km/h (4 Bft)
13.03.2019 05:46 3,1 °C 82 % 1012,6 hPa 0,0 mm 12,5 km/h (3 Bft) W-NW 284 ° 0 min 0,000 mm 0,0 UV-I 0 W/m² 0,3 °C -0,1 °C 19,3 km/h (3 Bft)
13.03.2019 05:47 3,1 °C 82 % 1012,6 hPa 0,0 mm 17,4 km/h (3 Bft) W-NW 289 ° 0 min 0,000 mm 0,0 UV-I 0 W/m² 0,3 °C -1,0 °C 22,5 km/h (4 Bft)
13.03.2019 05:48 3,1 °C 82 % 1012,6 hPa 0,0 mm 11,1 km/h (2 Bft) W-NW 295 ° 0 min 0,000 mm 0,0 UV-I 0 W/m² 0,3 °C 0,1 °C 16,1 km/h (3 Bft)
13.03.2019 05:49 3,0 °C 82 % 1012,6 hPa 0,0 mm 9,6 km/h (2 Bft) W 265 ° 0 min 0,000 mm 0,0 UV-I 0 W/m² 0,2 °C 0,4 °C 19,3 km/h (3 Bft)
13.03.2019 05:50 3,0 °C 82 % 1012,6 hPa 0,0 mm 13,9 km/h (3 Bft) W-NW 292 ° 0 min 0,000 mm 0,0 UV-I 0 W/m² 0,2 °C -0,5 °C 19,3 km/h (3 Bft)
13.03.2019 05:51 2,9 °C 82 % 1012,7 hPa 0,0 mm 20,4 km/h (4 Bft) NW 314 ° 0 min 0,000 mm 0,0 UV-I 0 W/m² 0,1 °C -1,6 °C 27,4 km/h (4 Bft)
13.03.2019 05:52 2,9 °C 82 % 1012,7 hPa 0,0 mm 19,6 km/h (3 Bft) W 267 ° 0 min 0,000 mm 0,0 UV-I 0 W/m² 0,1 °C -1,5 °C 29,0 km/h (5 Bft)
13.03.2019 05:53 2,9 °C 82 % 1012,6 hPa 0,0 mm 14,1 km/h (3 Bft) NW 315 ° 0 min 0,000 mm 0,0 UV-I 0 W/m² 0,1 °C -0,7 °C 19,3 km/h (3 Bft)
13.03.2019 05:54 2,9 °C 82 % 1012,7 hPa 0,0 mm 16,2 km/h (3 Bft) W 271 ° 0 min 0,000 mm 0,0 UV-I 0 W/m² 0,1 °C -1,0 °C 24,1 km/h (4 Bft)
13.03.2019 05:55 2,9 °C 82 % 1012,6 hPa 0,0 mm 13,1 km/h (3 Bft) W-NW 285 ° 0 min 0,000 mm 0,0 UV-I 0 W/m² 0,1 °C -0,5 °C 16,1 km/h (3 Bft)
13.03.2019 05:56 2,9 °C 82 % 1012,7 hPa 0,0 mm 15,1 km/h (3 Bft) W-NW 298 ° 0 min 0,000 mm 0,0 UV-I 0 W/m² 0,1 °C -0,9 °C 22,5 km/h (4 Bft)
13.03.2019 05:57 2,9 °C 82 % 1012,7 hPa 0,0 mm 10,8 km/h (2 Bft) W 270 ° 0 min 0,000 mm 0,0 UV-I 0 W/m² 0,1 °C -0,0 °C 16,1 km/h (3 Bft)
13.03.2019 05:58 2,9 °C 82 % 1012,7 hPa 0,0 mm 8,0 km/h (2 Bft) W-NW 283 ° 0 min 0,000 mm 0,0 UV-I 0 W/m² 0,1 °C 0,7 °C 12,9 km/h (3 Bft)
13.03.2019 05:59 2,8 °C 82 % 1012,8 hPa 0,0 mm 8,7 km/h (2 Bft) W-NW 288 ° 0 min 0,000 mm 0,0 UV-I 0 W/m² 0,0 °C 0,4 °C 14,5 km/h (3 Bft)
13.03.2019 06:00 2,8 °C 82 % 1012,8 hPa 0,0 mm 11,3 km/h (2 Bft) W 260 ° 0 min 0,025 mm 0,0 UV-I 0 W/m² 0,0 °C -0,3 °C 16,1 km/h (3 Bft)
13.03.2019 06:01 2,8 °C 82 % 1012,8 hPa 0,0 mm 12,9 km/h (3 Bft) W 277 ° 0 min 0,000 mm 0,0 UV-I 0 W/m² 0,0 °C -0,6 °C 16,1 km/h (3 Bft)
13.03.2019 06:02 2,8 °C 82 % 1012,8 hPa 0,0 mm 8,5 km/h (2 Bft) W-NW 300 ° 0 min 0,000 mm 0,0 UV-I 0 W/m² 0,0 °C 0,4 °C 19,3 km/h (3 Bft)
13.03.2019 06:03 2,8 °C 82 % 1012,8 hPa 0,0 mm 15,6 km/h (3 Bft) W-NW 286 ° 0 min 0,000 mm 0,0 UV-I 0 W/m² 0,0 °C -1,1 °C 19,3 km/h (3 Bft)
13.03.2019 06:04 2,8 °C 82 % 1012,9 hPa 0,0 mm 13,4 km/h (3 Bft) NW 308 ° 0 min 0,000 mm 0,0 UV-I 0 W/m² 0,0 °C -0,7 °C 22,5 km/h (4 Bft)
13.03.2019 06:05 2,8 °C 82 % 1012,8 hPa 0,0 mm 13,2 km/h (3 Bft) W-SW 257 ° 0 min 0,000 mm 0,0 UV-I 0 W/m² 0,0 °C -0,6 °C 16,1 km/h (3 Bft)
13.03.2019 06:06 2,8 °C 81 % 1012,8 hPa 0,0 mm 10,7 km/h (2 Bft) W 279 ° 0 min 0,000 mm 0,0 UV-I 0 W/m² -0,1 °C -0,1 °C 16,1 km/h (3 Bft)
13.03.2019 06:07 2,8 °C 81 % 1012,8 hPa 0,0 mm 10,4 km/h (2 Bft) SW 230 ° 0 min 0,000 mm 0,0 UV-I 0 W/m² -0,1 °C -0,1 °C 14,5 km/h (3 Bft)
13.03.2019 06:08 2,8 °C 81 % 1012,8 hPa 0,0 mm 13,6 km/h (3 Bft) NW 306 ° 0 min 0,000 mm 0,0 UV-I 0 W/m² -0,1 °C -0,7 °C 17,7 km/h (3 Bft)
13.03.2019 06:09 2,8 °C 81 % 1012,7 hPa 0,0 mm 6,5 km/h (2 Bft) W-NW 290 ° 0 min 0,000 mm 0,0 UV-I 0 W/m² -0,1 °C 1,0 °C 11,3 km/h (2 Bft)
13.03.2019 06:10 2,8 °C 81 % 1012,7 hPa 0,0 mm 8,5 km/h (2 Bft) W 269 ° 0 min 0,000 mm 0,0 UV-I 0 W/m² -0,1 °C 0,4 °C 12,9 km/h (3 Bft)
13.03.2019 06:11 2,8 °C 81 % 1012,8 hPa 0,0 mm 15,2 km/h (3 Bft) W 268 ° 0 min 0,000 mm 0,0 UV-I 0 W/m² -0,1 °C -1,0 °C 24,1 km/h (4 Bft)
13.03.2019 06:12 2,8 °C 81 % 1012,8 hPa 0,0 mm 14,4 km/h (3 Bft) W 268 ° 0 min 0,000 mm 0,0 UV-I 0 W/m² -0,1 °C -0,9 °C 17,7 km/h (3 Bft)
13.03.2019 06:13 2,8 °C 80 % 1012,8 hPa 0,0 mm 8,3 km/h (2 Bft) W 259 ° 0 min 0,000 mm 0,0 UV-I 0 W/m² -0,3 °C 0,5 °C 16,1 km/h (3 Bft)
13.03.2019 06:14 2,8 °C 80 % 1012,8 hPa 0,0 mm 22,1 km/h (4 Bft) SW 233 ° 0 min 0,000 mm 0,0 UV-I 0 W/m² -0,3 °C -2,0 °C 29,0 km/h (5 Bft)
13.03.2019 06:15 2,7 °C 80 % 1012,8 hPa 0,0 mm 13,1 km/h (3 Bft) W-SW 257 ° 0 min 0,000 mm 0,0 UV-I 0 W/m² -0,4 °C -0,7 °C 17,7 km/h (3 Bft)
13.03.2019 06:16 2,7 °C 80 % 1012,8 hPa 0,0 mm 14,2 km/h (3 Bft) W-NW 285 ° 0 min 0,000 mm 0,0 UV-I 0 W/m² -0,4 °C -0,9 °C 19,3 km/h (3 Bft)
13.03.2019 06:17 2,7 °C 80 % 1012,8 hPa 0,0 mm 9,4 km/h (2 Bft) W 274 ° 0 min 0,000 mm 0,0 UV-I 0 W/m² -0,4 °C 0,1 °C 14,5 km/h (3 Bft)
13.03.2019 06:18 2,7 °C 80 % 1012,9 hPa 0,0 mm 13,9 km/h (3 Bft) W-NW 284 ° 0 min 0,000 mm 0,0 UV-I 0 W/m² -0,4 °C -0,9 °C 17,7 km/h (3 Bft)
13.03.2019 06:19 2,7 °C 80 % 1013,0 hPa 0,0 mm 9,7 km/h (2 Bft) NW 306 ° 0 min 0,000 mm 0,0 UV-I 0 W/m² -0,4 °C -0,0 °C 14,5 km/h (3 Bft)
13.03.2019 06:20 2,7 °C 80 % 1013,0 hPa 0,0 mm 10,2 km/h (2 Bft) W 271 ° 0 min 0,000 mm 0,0 UV-I 0 W/m² -0,4 °C -0,1 °C 14,5 km/h (3 Bft)
13.03.2019 06:21 2,7 °C 79 % 1013,0 hPa 0,0 mm 10,7 km/h (2 Bft) W-NW 288 ° 0 min 0,000 mm 0,0 UV-I 0 W/m² -0,6 °C -0,3 °C 14,5 km/h (3 Bft)
13.03.2019 06:22 2,7 °C 79 % 1013,0 hPa 0,0 mm 9,6 km/h (2 Bft) NW 310 ° 0 min 0,000 mm 0,0 UV-I 0 W/m² -0,6 °C 0,0 °C 12,9 km/h (3 Bft)
13.03.2019 06:23 2,7 °C 79 % 1013,0 hPa 0,0 mm 13,7 km/h (3 Bft) W 268 ° 0 min 0,000 mm 0,0 UV-I 0 W/m² -0,6 °C -0,9 °C 24,1 km/h (4 Bft)
13.03.2019 06:24 2,7 °C 79 % 1013,1 hPa 0,0 mm 19,6 km/h (3 Bft) W 261 ° 0 min 0,000 mm 0,0 UV-I 0 W/m² -0,6 °C -1,8 °C 29,0 km/h (5 Bft)
13.03.2019 06:25 2,7 °C 79 % 1013,1 hPa 0,0 mm 18,6 km/h (3 Bft) W 263 ° 0 min 0,000 mm 0,0 UV-I 0 W/m² -0,6 °C -1,6 °C 29,0 km/h (5 Bft)
13.03.2019 06:26 2,7 °C 78 % 1013,1 hPa 0,0 mm 18,4 km/h (3 Bft) W 271 ° 0 min 0,000 mm 0,0 UV-I 0 W/m² -0,7 °C -1,6 °C 22,5 km/h (4 Bft)
13.03.2019 06:27 2,7 °C 78 % 1013,1 hPa 0,0 mm 18,7 km/h (3 Bft) W-SW 253 ° 0 min 0,000 mm 0,0 UV-I 0 W/m² -0,7 °C -1,7 °C 27,4 km/h (4 Bft)
13.03.2019 06:28 2,8 °C 78 % 1013,1 hPa 0,0 mm 13,7 km/h (3 Bft) W 267 ° 0 min 0,000 mm 0,0 UV-I 0 W/m² -0,6 °C -0,7 °C 19,3 km/h (3 Bft)
13.03.2019 06:29 2,8 °C 78 % 1013,2 hPa 0,0 mm 16,2 km/h (3 Bft) W 270 ° 0 min 0,000 mm 0,0 UV-I 0 W/m² -0,6 °C -1,2 °C 25,7 km/h (4 Bft)
13.03.2019 06:30 2,8 °C 77 % 1013,2 hPa 0,0 mm 12,0 km/h (2 Bft) W-SW 246 ° 0 min 0,000 mm 0,0 UV-I 0 W/m² -0,8 °C -0,4 °C 17,7 km/h (3 Bft)
13.03.2019 06:31 2,8 °C 77 % 1013,1 hPa 0,0 mm 13,8 km/h (3 Bft) W-SW 252 ° 0 min 0,000 mm 0,0 UV-I 0 W/m² -0,8 °C -0,8 °C 29,0 km/h (5 Bft)
13.03.2019 06:32 2,8 °C 77 % 1013,1 hPa 0,0 mm 19,0 km/h (3 Bft) W 264 ° 0 min 0,000 mm 0,0 UV-I 0 W/m² -0,8 °C -1,6 °C 27,4 km/h (4 Bft)
13.03.2019 06:33 2,8 °C 77 % 1013,2 hPa 0,0 mm 14,6 km/h (3 Bft) W 265 ° 0 min 0,000 mm 0,0 UV-I 0 W/m² -0,8 °C -0,9 °C 25,7 km/h (4 Bft)
13.03.2019 06:34 2,8 °C 76 % 1013,2 hPa 0,0 mm 14,1 km/h (3 Bft) W 281 ° 0 min 0,000 mm 0,0 UV-I 0 W/m² -1,0 °C -0,8 °C 17,7 km/h (3 Bft)
13.03.2019 06:35 2,8 °C 77 % 1013,3 hPa 0,0 mm 9,7 km/h (2 Bft) W-SW 241 ° 0 min 0,000 mm 0,0 UV-I 0 W/m² -0,8 °C 0,1 °C 16,1 km/h (3 Bft)
13.03.2019 06:36 2,8 °C 76 % 1013,3 hPa 0,0 mm 15,6 km/h (3 Bft) W 275 ° 0 min 0,000 mm 0,0 UV-I 0 W/m² -1,0 °C -1,1 °C 25,7 km/h (4 Bft)
13.03.2019 06:37 2,8 °C 76 % 1013,3 hPa 0,0 mm 17,9 km/h (3 Bft) W-NW 288 ° 0 min 0,000 mm 0,0 UV-I 0 W/m² -1,0 °C -1,4 °C 27,4 km/h (4 Bft)
13.03.2019 06:38 2,8 °C 76 % 1013,4 hPa 0,0 mm 14,8 km/h (3 Bft) W-NW 300 ° 0 min 0,000 mm 0,0 UV-I 0 W/m² -1,0 °C -0,9 °C 19,3 km/h (3 Bft)
13.03.2019 06:39 2,8 °C 76 % 1013,4 hPa 0,0 mm 14,6 km/h (3 Bft) W 269 ° 0 min 0,000 mm 0,0 UV-I 0 W/m² -1,0 °C -0,9 °C 22,5 km/h (4 Bft)
13.03.2019 06:40 2,7 °C 76 % 1013,4 hPa 0,0 mm 12,3 km/h (3 Bft) W-SW 251 ° 0 min 0,000 mm 0,0 UV-I 0 W/m² -1,1 °C -0,6 °C 19,3 km/h (3 Bft)
13.03.2019 06:41 2,7 °C 76 % 1013,4 hPa 0,0 mm 14,6 km/h (3 Bft) W-NW 300 ° 0 min 0,000 mm 0,0 UV-I 0 W/m² -1,1 °C -1,0 °C 20,9 km/h (4 Bft)
13.03.2019 06:42 2,7 °C 75 % 1013,4 hPa 0,0 mm 14,6 km/h (3 Bft) W 267 ° 0 min 0,000 mm 0,0 UV-I 0 W/m² -1,3 °C -1,0 °C 22,5 km/h (4 Bft)
13.03.2019 06:43 2,7 °C 76 % 1013,4 hPa 0,0 mm 14,7 km/h (3 Bft) NW 314 ° 0 min 0,000 mm 0,0 UV-I 0 W/m² -1,1 °C -1,0 °C 20,9 km/h (4 Bft)
13.03.2019 06:44 2,7 °C 75 % 1013,4 hPa 0,0 mm 13,2 km/h (3 Bft) W 262 ° 0 min 0,000 mm 0,0 UV-I 0 W/m² -1,3 °C -0,8 °C 19,3 km/h (3 Bft)
13.03.2019 06:45 2,7 °C 75 % 1013,5 hPa 0,0 mm 11,5 km/h (2 Bft) W 277 ° 0 min 0,000 mm 0,0 UV-I 0 W/m² -1,3 °C -0,4 °C 20,9 km/h (4 Bft)
13.03.2019 06:46 2,7 °C 76 % 1013,4 hPa 0,0 mm 16,4 km/h (3 Bft) W-SW 248 ° 0 min 0,000 mm 0,0 UV-I 0 W/m² -1,1 °C -1,3 °C 33,8 km/h (5 Bft)
13.03.2019 06:47 2,7 °C 75 % 1013,5 hPa 0,0 mm 9,2 km/h (2 Bft) W 279 ° 0 min 0,000 mm 0,0 UV-I 0 W/m² -1,3 °C 0,1 °C 14,5 km/h (3 Bft)
13.03.2019 06:48 2,7 °C 75 % 1013,5 hPa 0,0 mm 14,6 km/h (3 Bft) W-SW 253 ° 0 min 0,000 mm 0,0 UV-I 0 W/m² -1,3 °C -1,0 °C 20,9 km/h (4 Bft)
13.03.2019 06:49 2,7 °C 75 % 1013,6 hPa 0,0 mm 22,7 km/h (4 Bft) W 259 ° 0 min 0,000 mm 0,0 UV-I 0 W/m² -1,3 °C -2,2 °C 32,2 km/h (5 Bft)
13.03.2019 06:50 2,7 °C 75 % 1013,5 hPa 0,0 mm 21,6 km/h (4 Bft) W-SW 251 ° 0 min 0,000 mm 0,0 UV-I 0 W/m² -1,3 °C -2,0 °C 32,2 km/h (5 Bft)
13.03.2019 06:51 2,7 °C 75 % 1013,5 hPa 0,0 mm 22,3 km/h (4 Bft) W-SW 240 ° 0 min 0,000 mm 0,0 UV-I 0 W/m² -1,3 °C -2,1 °C 30,6 km/h (5 Bft)
13.03.2019 06:52 2,7 °C 75 % 1013,5 hPa 0,0 mm 17,4 km/h (3 Bft) SW 228 ° 0 min 0,000 mm 0,0 UV-I 0 W/m² -1,3 °C -1,5 °C 27,4 km/h (4 Bft)
13.03.2019 06:53 2,7 °C 75 % 1013,6 hPa 0,0 mm 14,6 km/h (3 Bft) NW 310 ° 0 min 0,000 mm 0,0 UV-I 5 W/m² -1,3 °C -1,0 °C 19,3 km/h (3 Bft)
13.03.2019 06:54 2,7 °C 76 % 1013,5 hPa 0,0 mm 13,9 km/h (3 Bft) W 273 ° 0 min 0,000 mm 0,0 UV-I 5 W/m² -1,1 °C -0,9 °C 22,5 km/h (4 Bft)
13.03.2019 06:55 2,7 °C 76 % 1013,6 hPa 0,0 mm 16,8 km/h (3 Bft) W-NW 298 ° 0 min 0,000 mm 0,0 UV-I 5 W/m² -1,1 °C -1,4 °C 24,1 km/h (4 Bft)
13.03.2019 06:56 2,7 °C 75 % 1013,5 hPa 0,0 mm 17,6 km/h (3 Bft) W 260 ° 0 min 0,000 mm 0,0 UV-I 5 W/m² -1,3 °C -1,5 °C 24,1 km/h (4 Bft)
13.03.2019 06:57 2,7 °C 76 % 1013,6 hPa 0,0 mm 17,4 km/h (3 Bft) S-SW 197 ° 0 min 0,000 mm 0,0 UV-I 5 W/m² -1,1 °C -1,5 °C 27,4 km/h (4 Bft)
13.03.2019 06:58 2,6 °C 76 % 1013,7 hPa 0,0 mm 16,4 km/h (3 Bft) W 264 ° 0 min 0,000 mm 0,0 UV-I 5 W/m² -1,2 °C -1,4 °C 24,1 km/h (4 Bft)
13.03.2019 06:59 2,6 °C 76 % 1013,6 hPa 0,0 mm 13,0 km/h (3 Bft) W-SW 250 ° 0 min 0,000 mm 0,0 UV-I 5 W/m² -1,2 °C -0,8 °C 20,9 km/h (4 Bft)
13.03.2019 07:00 2,6 °C 76 % 1013,6 hPa 0,0 mm 16,4 km/h (3 Bft) SW 218 ° 0 min 0,026 mm 0,0 UV-I 5 W/m² -1,2 °C -1,4 °C 33,8 km/h (5 Bft)
13.03.2019 07:01 2,6 °C 76 % 1013,6 hPa 0,0 mm 21,7 km/h (4 Bft) W 267 ° 0 min 0,000 mm 0,0 UV-I 7 W/m² -1,2 °C -2,2 °C 33,8 km/h (5 Bft)
13.03.2019 07:02 2,6 °C 76 % 1013,6 hPa 0,0 mm 16,7 km/h (3 Bft) W 273 ° 0 min 0,000 mm 0,0 UV-I 7 W/m² -1,2 °C -1,5 °C 22,5 km/h (4 Bft)
13.03.2019 07:03 2,6 °C 76 % 1013,7 hPa 0,0 mm 18,3 km/h (3 Bft) W 259 ° 0 min 0,000 mm 0,0 UV-I 7 W/m² -1,2 °C -1,7 °C 25,7 km/h (4 Bft)
13.03.2019 07:04 2,6 °C 76 % 1013,6 hPa 0,0 mm 17,2 km/h (3 Bft) W-SW 256 ° 0 min 0,000 mm 0,0 UV-I 7 W/m² -1,2 °C -1,6 °C 20,9 km/h (4 Bft)
13.03.2019 07:05 2,6 °C 76 % 1013,6 hPa 0,0 mm 17,4 km/h (3 Bft) W 273 ° 0 min 0,000 mm 0,0 UV-I 9 W/m² -1,2 °C -1,6 °C 27,4 km/h (4 Bft)
13.03.2019 07:06 2,6 °C 76 % 1013,5 hPa 0,0 mm 14,8 km/h (3 Bft) W 269 ° 0 min 0,000 mm 0,0 UV-I 9 W/m² -1,2 °C -1,2 °C 24,1 km/h (4 Bft)
13.03.2019 07:07 2,6 °C 76 % 1013,5 hPa 0,0 mm 16,1 km/h (3 Bft) W-NW 286 ° 0 min 0,000 mm 0,0 UV-I 9 W/m² -1,2 °C -1,4 °C 22,5 km/h (4 Bft)
13.03.2019 07:08 2,6 °C 76 % 1013,6 hPa 0,0 mm 15,4 km/h (3 Bft) W-NW 298 ° 0 min 0,000 mm 0,0 UV-I 11 W/m² -1,2 °C -1,3 °C 25,7 km/h (4 Bft)
13.03.2019 07:09 2,5 °C 76 % 1013,6 hPa 0,0 mm 14,5 km/h (3 Bft) W 270 ° 0 min 0,000 mm 0,0 UV-I 11 W/m² -1,3 °C -1,2 °C 25,7 km/h (4 Bft)
13.03.2019 07:10 2,5 °C 76 % 1013,7 hPa 0,0 mm 21,1 km/h (4 Bft) W-SW 249 ° 0 min 0,000 mm 0,0 UV-I 12 W/m² -1,3 °C -2,2 °C 27,4 km/h (4 Bft)
13.03.2019 07:11 2,4 °C 76 % 1013,7 hPa 0,0 mm 12,2 km/h (2 Bft) W 260 ° 0 min 0,000 mm 0,0 UV-I 12 W/m² -1,4 °C -0,9 °C 20,9 km/h (4 Bft)
13.03.2019 07:12 2,4 °C 77 % 1013,7 hPa 0,0 mm 13,4 km/h (3 Bft) W-SW 252 ° 0 min 0,000 mm 0,0 UV-I 12 W/m² -1,2 °C -1,2 °C 22,5 km/h (4 Bft)
13.03.2019 07:13 2,4 °C 77 % 1013,7 hPa 0,0 mm 12,6 km/h (3 Bft) W 265 ° 0 min 0,000 mm 0,0 UV-I 12 W/m² -1,2 °C -1,0 °C 20,9 km/h (4 Bft)
13.03.2019 07:14 2,4 °C 77 % 1013,7 hPa 0,0 mm 18,2 km/h (3 Bft) W 280 ° 0 min 0,000 mm 0,0 UV-I 12 W/m² -1,2 °C -2,0 °C 29,0 km/h (5 Bft)
13.03.2019 07:15 2,4 °C 77 % 1013,7 hPa 0,0 mm 15,2 km/h (3 Bft) W-SW 249 ° 0 min 0,000 mm 0,0 UV-I 12 W/m² -1,2 °C -1,5 °C 22,5 km/h (4 Bft)
13.03.2019 07:16 2,4 °C 77 % 1013,7 hPa 0,0 mm 14,5 km/h (3 Bft) SW 234 ° 0 min 0,000 mm 0,0 UV-I 12 W/m² -1,2 °C -1,4 °C 22,5 km/h (4 Bft)
13.03.2019 07:17 2,4 °C 77 % 1013,7 hPa 0,0 mm 14,8 km/h (3 Bft) W-SW 255 ° 0 min 0,000 mm 0,0 UV-I 12 W/m² -1,2 °C -1,4 °C 19,3 km/h (3 Bft)
13.03.2019 07:18 2,4 °C 77 % 1013,8 hPa 0,0 mm 13,2 km/h (3 Bft) W-SW 246 ° 0 min 0,000 mm 0,0 UV-I 14 W/m² -1,2 °C -1,1 °C 20,9 km/h (4 Bft)
13.03.2019 07:19 2,4 °C 77 % 1013,7 hPa 0,0 mm 14,4 km/h (3 Bft) W-SW 252 ° 0 min 0,000 mm 0,0 UV-I 14 W/m² -1,2 °C -1,4 °C 24,1 km/h (4 Bft)
13.03.2019 07:20 2,4 °C 77 % 1013,8 hPa 0,0 mm 10,6 km/h (2 Bft) W 261 ° 0 min 0,000 mm 0,0 UV-I 14 W/m² -1,2 °C -0,6 °C 14,5 km/h (3 Bft)
13.03.2019 07:21 2,4 °C 77 % 1013,9 hPa 0,0 mm 11,4 km/h (2 Bft) W 262 ° 0 min 0,000 mm 0,0 UV-I 14 W/m² -1,2 °C -0,8 °C 19,3 km/h (3 Bft)
13.03.2019 07:22 2,4 °C 77 % 1013,9 hPa 0,0 mm 14,2 km/h (3 Bft) W-SW 255 ° 0 min 0,000 mm 0,0 UV-I 14 W/m² -1,2 °C -1,3 °C 25,7 km/h (4 Bft)
13.03.2019 07:23 2,3 °C 78 % 1013,9 hPa 0,0 mm 16,8 km/h (3 Bft) NW 313 ° 0 min 0,000 mm 0,0 UV-I 14 W/m² -1,1 °C -1,9 °C 24,1 km/h (4 Bft)
13.03.2019 07:24 2,3 °C 78 % 1014,0 hPa 0,0 mm 11,7 km/h (2 Bft) W-SW 254 ° 0 min 0,000 mm 0,0 UV-I 16 W/m² -1,1 °C -1,0 °C 17,7 km/h (3 Bft)
13.03.2019 07:25 2,3 °C 78 % 1014,0 hPa 0,0 mm 14,0 km/h (3 Bft) W-NW 285 ° 0 min 0,000 mm 0,0 UV-I 16 W/m² -1,1 °C -1,4 °C 20,9 km/h (4 Bft)
13.03.2019 07:26 2,3 °C 78 % 1014,0 hPa 0,0 mm 22,1 km/h (4 Bft) W 262 ° 0 min 0,000 mm 0,0 UV-I 16 W/m² -1,1 °C -2,6 °C 29,0 km/h (5 Bft)
13.03.2019 07:27 2,4 °C 78 % 1014,0 hPa 0,0 mm 15,0 km/h (3 Bft) W 263 ° 0 min 0,000 mm 0,0 UV-I 14 W/m² -1,0 °C -1,5 °C 20,9 km/h (4 Bft)
13.03.2019 07:28 2,4 °C 78 % 1014,0 hPa 0,0 mm 10,7 km/h (2 Bft) W-NW 285 ° 0 min 0,000 mm 0,0 UV-I 14 W/m² -1,0 °C -0,6 °C 22,5 km/h (4 Bft)
13.03.2019 07:29 2,3 °C 78 % 1014,1 hPa 0,0 mm 8,5 km/h (2 Bft) SW 219 ° 0 min 0,000 mm 0,0 UV-I 14 W/m² -1,1 °C -0,2 °C 14,5 km/h (3 Bft)
13.03.2019 07:30 2,4 °C 78 % 1014,1 hPa 0,0 mm 12,0 km/h (2 Bft) SW 232 ° 0 min 0,000 mm 0,0 UV-I 14 W/m² -1,0 °C -0,9 °C 17,7 km/h (3 Bft)
13.03.2019 07:31 2,4 °C 78 % 1014,2 hPa 0,0 mm 20,4 km/h (4 Bft) W-NW 300 ° 0 min 0,000 mm 0,0 UV-I 14 W/m² -1,0 °C -2,3 °C 29,0 km/h (5 Bft)
13.03.2019 07:32 2,4 °C 78 % 1014,2 hPa 0,0 mm 14,8 km/h (3 Bft) W-SW 257 ° 0 min 0,000 mm 0,0 UV-I 16 W/m² -1,0 °C -1,4 °C 20,9 km/h (4 Bft)
13.03.2019 07:33 2,4 °C 78 % 1014,1 hPa 0,0 mm 13,2 km/h (3 Bft) W 267 ° 0 min 0,000 mm 0,0 UV-I 18 W/m² -1,0 °C -1,1 °C 17,7 km/h (3 Bft)
13.03.2019 07:34 2,4 °C 78 % 1014,1 hPa 0,0 mm 11,2 km/h (2 Bft) SW 223 ° 0 min 0,000 mm 0,0 UV-I 18 W/m² -1,0 °C -0,7 °C 16,1 km/h (3 Bft)
13.03.2019 07:35 2,4 °C 78 % 1014,1 hPa 0,0 mm 15,3 km/h (3 Bft) W-SW 249 ° 0 min 0,000 mm 0,0 UV-I 19 W/m² -1,0 °C -1,5 °C 24,1 km/h (4 Bft)
13.03.2019 07:36 2,4 °C 78 % 1014,1 hPa 0,0 mm 10,3 km/h (2 Bft) W 268 ° 0 min 0,000 mm 0,0 UV-I 19 W/m² -1,0 °C -0,5 °C 17,7 km/h (3 Bft)
13.03.2019 07:37 2,4 °C 78 % 1014,1 hPa 0,0 mm 13,8 km/h (3 Bft) SW 229 ° 0 min 0,000 mm 0,0 UV-I 21 W/m² -1,0 °C -1,2 °C 24,1 km/h (4 Bft)
13.03.2019 07:38 2,4 °C 78 % 1014,1 hPa 0,0 mm 12,3 km/h (3 Bft) W-SW 246 ° 0 min 0,000 mm 0,0 UV-I 21 W/m² -1,0 °C -1,0 °C 16,1 km/h (3 Bft)
13.03.2019 07:39 2,4 °C 78 % 1014,1 hPa 0,0 mm 12,2 km/h (2 Bft) W 265 ° 0 min 0,000 mm 0,0 UV-I 21 W/m² -1,0 °C -0,9 °C 16,1 km/h (3 Bft)
13.03.2019 07:40 2,4 °C 78 % 1014,3 hPa 0,0 mm 19,0 km/h (3 Bft) W 267 ° 0 min 0,000 mm 0,0 UV-I 23 W/m² -1,0 °C -2,1 °C 25,7 km/h (4 Bft)
13.03.2019 07:41 2,4 °C 78 % 1014,3 hPa 0,0 mm 13,0 km/h (3 Bft) NW 320 ° 0 min 0,000 mm 0,0 UV-I 25 W/m² -1,0 °C -1,1 °C 20,9 km/h (4 Bft)
13.03.2019 07:42 2,4 °C 78 % 1014,2 hPa 0,0 mm 14,1 km/h (3 Bft) W 267 ° 0 min 0,000 mm 0,0 UV-I 25 W/m² -1,0 °C -1,3 °C 25,7 km/h (4 Bft)
13.03.2019 07:43 2,4 °C 78 % 1014,3 hPa 0,0 mm 21,1 km/h (4 Bft) W-SW 254 ° 0 min 0,000 mm 0,0 UV-I 25 W/m² -1,0 °C -2,4 °C 27,4 km/h (4 Bft)
13.03.2019 07:44 2,4 °C 78 % 1014,2 hPa 0,0 mm 13,3 km/h (3 Bft) W-SW 250 ° 0 min 0,000 mm 0,0 UV-I 26 W/m² -1,0 °C -1,2 °C 17,7 km/h (3 Bft)
13.03.2019 07:45 2,4 °C 77 % 1014,3 hPa 0,0 mm 14,8 km/h (3 Bft) W-SW 254 ° 0 min 0,000 mm 0,0 UV-I 28 W/m² -1,2 °C -1,4 °C 19,3 km/h (3 Bft)
13.03.2019 07:46 2,4 °C 77 % 1014,2 hPa 0,0 mm 20,6 km/h (4 Bft) W-NW 284 ° 0 min 0,000 mm 0,0 UV-I 30 W/m² -1,2 °C -2,3 °C 29,0 km/h (5 Bft)
13.03.2019 07:47 2,4 °C 77 % 1014,3 hPa 0,0 mm 15,6 km/h (3 Bft) W-SW 246 ° 0 min 0,000 mm 0,0 UV-I 32 W/m² -1,2 °C -1,6 °C 22,5 km/h (4 Bft)
13.03.2019 07:48 2,4 °C 77 % 1014,3 hPa 0,0 mm 13,0 km/h (3 Bft) NW 311 ° 0 min 0,000 mm 0,0 UV-I 33 W/m² -1,2 °C -1,1 °C 20,9 km/h (4 Bft)
13.03.2019 07:49 2,4 °C 77 % 1014,3 hPa 0,0 mm 15,0 km/h (3 Bft) W 271 ° 0 min 0,000 mm 0,0 UV-I 35 W/m² -1,2 °C -1,5 °C 19,3 km/h (3 Bft)
13.03.2019 07:50 2,4 °C 78 % 1014,2 hPa 0,0 mm 14,1 km/h (3 Bft) W-NW 282 ° 0 min 0,000 mm 0,0 UV-I 35 W/m² -1,0 °C -1,3 °C 19,3 km/h (3 Bft)
13.03.2019 07:51 2,4 °C 77 % 1014,3 hPa 0,0 mm 11,7 km/h (2 Bft) W-SW 252 ° 0 min 0,000 mm 0,0 UV-I 35 W/m² -1,2 °C -0,8 °C 17,7 km/h (3 Bft)
13.03.2019 07:52 2,4 °C 77 % 1014,3 hPa 0,0 mm 13,1 km/h (3 Bft) W 266 ° 0 min 0,000 mm 0,0 UV-I 33 W/m² -1,2 °C -1,1 °C 19,3 km/h (3 Bft)
13.03.2019 07:53 2,4 °C 77 % 1014,3 hPa 0,0 mm 10,7 km/h (2 Bft) S-SW 194 ° 0 min 0,000 mm 0,0 UV-I 35 W/m² -1,2 °C -0,6 °C 14,5 km/h (3 Bft)
13.03.2019 07:54 2,4 °C 77 % 1014,3 hPa 0,0 mm 8,9 km/h (2 Bft) W-SW 243 ° 0 min 0,000 mm 0,0 UV-I 35 W/m² -1,2 °C -0,2 °C 16,1 km/h (3 Bft)
13.03.2019 07:55 2,4 °C 77 % 1014,3 hPa 0,0 mm 12,4 km/h (3 Bft) W-SW 248 ° 0 min 0,000 mm 0,0 UV-I 32 W/m² -1,2 °C -1,0 °C 20,9 km/h (4 Bft)
13.03.2019 07:56 2,4 °C 77 % 1014,3 hPa 0,0 mm 12,7 km/h (3 Bft) W 280 ° 0 min 0,000 mm 0,0 UV-I 30 W/m² -1,2 °C -1,0 °C 17,7 km/h (3 Bft)
13.03.2019 07:57 2,4 °C 77 % 1014,3 hPa 0,0 mm 13,9 km/h (3 Bft) W-NW 292 ° 0 min 0,000 mm 0,0 UV-I 32 W/m² -1,2 °C -1,3 °C 20,9 km/h (4 Bft)
13.03.2019 07:58 2,4 °C 77 % 1014,4 hPa 0,0 mm 13,5 km/h (3 Bft) W 267 ° 0 min 0,000 mm 0,0 UV-I 35 W/m² -1,2 °C -1,2 °C 27,4 km/h (4 Bft)
13.03.2019 07:59 2,4 °C 77 % 1014,3 hPa 0,0 mm 20,2 km/h (4 Bft) W 267 ° 0 min 0,000 mm 0,0 UV-I 40 W/m² -1,2 °C -2,2 °C 32,2 km/h (5 Bft)
13.03.2019 08:00 2,4 °C 77 % 1014,2 hPa 0,0 mm 11,1 km/h (2 Bft) SW 232 ° 0 min 0,025 mm 0,0 UV-I 44 W/m² -1,2 °C -0,7 °C 17,7 km/h (3 Bft)
13.03.2019 08:01 2,4 °C 77 % 1014,3 hPa 0,0 mm 12,3 km/h (3 Bft) W-SW 255 ° 0 min 0,000 mm 0,0 UV-I 46 W/m² -1,2 °C -1,0 °C 17,7 km/h (3 Bft)
13.03.2019 08:02 2,4 °C 77 % 1014,3 hPa 0,0 mm 15,1 km/h (3 Bft) W 269 ° 0 min 0,000 mm 0,0 UV-I 46 W/m² -1,2 °C -1,5 °C 20,9 km/h (4 Bft)
13.03.2019 08:03 2,4 °C 77 % 1014,2 hPa 0,0 mm 9,7 km/h (2 Bft) W 269 ° 0 min 0,000 mm 0,0 UV-I 47 W/m² -1,2 °C -0,4 °C 14,5 km/h (3 Bft)
13.03.2019 08:04 2,4 °C 77 % 1014,3 hPa 0,0 mm 10,4 km/h (2 Bft) W 273 ° 0 min 0,000 mm 0,0 UV-I 47 W/m² -1,2 °C -0,5 °C 12,9 km/h (3 Bft)
13.03.2019 08:05 2,4 °C 77 % 1014,3 hPa 0,0 mm 6,6 km/h (2 Bft) W-NW 290 ° 0 min 0,000 mm 0,0 UV-I 49 W/m² -1,2 °C 0,5 °C 14,5 km/h (3 Bft)
13.03.2019 08:06 2,4 °C 77 % 1014,3 hPa 0,0 mm 13,6 km/h (3 Bft) S 177 ° 0 min 0,000 mm 0,0 UV-I 47 W/m² -1,2 °C -1,2 °C 24,1 km/h (4 Bft)
13.03.2019 08:07 2,4 °C 77 % 1014,3 hPa 0,0 mm 13,5 km/h (3 Bft) W-SW 242 ° 0 min 0,000 mm 0,0 UV-I 47 W/m² -1,2 °C -1,2 °C 20,9 km/h (4 Bft)
13.03.2019 08:08 2,4 °C 77 % 1014,3 hPa 0,0 mm 13,9 km/h (3 Bft) W 263 ° 0 min 0,000 mm 0,0 UV-I 47 W/m² -1,2 °C -1,3 °C 22,5 km/h (4 Bft)
13.03.2019 08:09 2,4 °C 77 % 1014,3 hPa 0,0 mm 19,4 km/h (3 Bft) W-SW 247 ° 0 min 0,000 mm 0,0 UV-I 53 W/m² -1,2 °C -2,1 °C 29,0 km/h (5 Bft)
13.03.2019 08:10 2,4 °C 77 % 1014,3 hPa 0,0 mm 11,1 km/h (2 Bft) W-SW 248 ° 0 min 0,000 mm 0,0 UV-I 54 W/m² -1,2 °C -0,7 °C 20,9 km/h (4 Bft)
13.03.2019 08:11 2,4 °C 76 % 1014,2 hPa 0,0 mm 9,1 km/h (2 Bft) NW 305 ° 0 min 0,000 mm 0,0 UV-I 47 W/m² -1,4 °C -0,2 °C 16,1 km/h (3 Bft)
13.03.2019 08:12 2,4 °C 76 % 1014,2 hPa 0,0 mm 13,8 km/h (3 Bft) S-SW 194 ° 0 min 0,000 mm 0,0 UV-I 47 W/m² -1,4 °C -1,2 °C 20,9 km/h (4 Bft)
13.03.2019 08:13 2,4 °C 76 % 1014,2 hPa 0,0 mm 8,9 km/h (2 Bft) W 278 ° 0 min 0,000 mm 0,0 UV-I 46 W/m² -1,4 °C -0,2 °C 12,9 km/h (3 Bft)
13.03.2019 08:14 2,4 °C 77 % 1014,3 hPa 0,0 mm 10,9 km/h (2 Bft) W-SW 245 ° 0 min 0,000 mm 0,0 UV-I 47 W/m² -1,2 °C -0,7 °C 24,1 km/h (4 Bft)
13.03.2019 08:15 2,4 °C 76 % 1014,2 hPa 0,0 mm 11,4 km/h (2 Bft) W 261 ° 0 min 0,000 mm 0,0 UV-I 49 W/m² -1,4 °C -0,8 °C 19,3 km/h (3 Bft)
13.03.2019 08:16 2,4 °C 76 % 1014,3 hPa 0,0 mm 9,3 km/h (2 Bft) W-SW 257 ° 0 min 0,000 mm 0,0 UV-I 51 W/m² -1,4 °C -0,3 °C 14,5 km/h (3 Bft)
13.03.2019 08:17 2,4 °C 76 % 1014,3 hPa 0,0 mm 3,4 km/h (1 Bft) W 263 ° 0 min 0,000 mm 0,0 UV-I 49 W/m² -1,4 °C 2,4 °C 6,4 km/h (2 Bft)
13.03.2019 08:18 2,4 °C 77 % 1014,3 hPa 0,0 mm 9,8 km/h (2 Bft) S 190 ° 0 min 0,000 mm 0,0 UV-I 51 W/m² -1,2 °C -0,4 °C 16,1 km/h (3 Bft)
13.03.2019 08:19 2,4 °C 77 % 1014,3 hPa 0,0 mm 3,0 km/h (1 Bft) SW 235 ° 0 min 0,000 mm 0,0 UV-I 58 W/m² -1,2 °C 2,4 °C 4,8 km/h (1 Bft)
13.03.2019 08:20 2,4 °C 77 % 1014,3 hPa 0,0 mm 5,7 km/h (1 Bft) SW 235 ° 0 min 0,000 mm 0,0 UV-I 62 W/m² -1,2 °C 0,8 °C 8,0 km/h (2 Bft)
13.03.2019 08:21 2,4 °C 76 % 1014,3 hPa 0,0 mm 6,6 km/h (2 Bft) SW 235 ° 0 min 0,000 mm 0,0 UV-I 63 W/m² -1,4 °C 0,5 °C 11,3 km/h (2 Bft)
13.03.2019 08:22 2,4 °C 76 % 1014,3 hPa 0,0 mm 4,2 km/h (1 Bft) W 267 ° 0 min 0,000 mm 0,0 UV-I 62 W/m² -1,4 °C 2,4 °C 9,7 km/h (2 Bft)
13.03.2019 08:23 2,4 °C 76 % 1014,3 hPa 0,0 mm 8,0 km/h (2 Bft) W 268 ° 0 min 0,000 mm 0,0 UV-I 72 W/m² -1,4 °C 0,1 °C 14,5 km/h (3 Bft)
13.03.2019 08:24 2,4 °C 76 % 1014,3 hPa 0,0 mm 10,3 km/h (2 Bft) W 272 ° 0 min 0,000 mm 0,5 UV-I 74 W/m² -1,4 °C -0,5 °C 14,5 km/h (3 Bft)
13.03.2019 08:25 2,4 °C 76 % 1014,3 hPa 0,0 mm 4,2 km/h (1 Bft) W 266 ° 0 min 0,000 mm 0,5 UV-I 74 W/m² -1,4 °C 2,4 °C 9,7 km/h (2 Bft)
13.03.2019 08:26 2,5 °C 77 % 1014,3 hPa 0,0 mm 3,6 km/h (1 Bft) W 277 ° 0 min 0,000 mm 0,5 UV-I 77 W/m² -1,1 °C 2,5 °C 9,7 km/h (2 Bft)
13.03.2019 08:27 2,5 °C 77 % 1014,3 hPa 0,0 mm 13,1 km/h (3 Bft) W 260 ° 0 min 0,000 mm 0,5 UV-I 83 W/m² -1,1 °C -1,0 °C 20,9 km/h (4 Bft)
13.03.2019 08:28 2,5 °C 77 % 1014,3 hPa 0,0 mm 12,2 km/h (2 Bft) W-SW 251 ° 0 min 0,000 mm 0,5 UV-I 83 W/m² -1,1 °C -0,8 °C 20,9 km/h (4 Bft)
13.03.2019 08:29 2,5 °C 77 % 1014,3 hPa 0,0 mm 17,7 km/h (3 Bft) W-NW 295 ° 0 min 0,000 mm 0,6 UV-I 88 W/m² -1,1 °C -1,8 °C 30,6 km/h (5 Bft)
13.03.2019 08:30 2,5 °C 77 % 1014,3 hPa 0,0 mm 20,5 km/h (4 Bft) W 269 ° 0 min 0,000 mm 0,6 UV-I 91 W/m² -1,1 °C -2,2 °C 30,6 km/h (5 Bft)
13.03.2019 08:31 2,6 °C 76 % 1014,3 hPa 0,0 mm 15,1 km/h (3 Bft) W 269 ° 0 min 0,000 mm 0,7 UV-I 95 W/m² -1,2 °C -1,2 °C 22,5 km/h (4 Bft)
13.03.2019 08:32 2,5 °C 77 % 1014,3 hPa 0,0 mm 17,7 km/h (3 Bft) W-SW 251 ° 0 min 0,000 mm 0,7 UV-I 100 W/m² -1,1 °C -1,8 °C 24,1 km/h (4 Bft)
13.03.2019 08:33 2,6 °C 76 % 1014,3 hPa 0,0 mm 10,6 km/h (2 Bft) SW 226 ° 0 min 0,000 mm 0,7 UV-I 104 W/m² -1,2 °C -0,3 °C 17,7 km/h (3 Bft)
13.03.2019 08:34 2,6 °C 76 % 1014,3 hPa 0,0 mm 13,4 km/h (3 Bft) W-NW 288 ° 0 min 0,000 mm 0,7 UV-I 100 W/m² -1,2 °C -0,9 °C 19,3 km/h (3 Bft)
13.03.2019 08:35 2,6 °C 76 % 1014,2 hPa 0,0 mm 18,5 km/h (3 Bft) W 269 ° 0 min 0,000 mm 0,6 UV-I 88 W/m² -1,2 °C -1,8 °C 24,1 km/h (4 Bft)
13.03.2019 08:36 2,6 °C 76 % 1014,3 hPa 0,0 mm 15,5 km/h (3 Bft) W 266 ° 0 min 0,000 mm 0,6 UV-I 84 W/m² -1,2 °C -1,3 °C 19,3 km/h (3 Bft)
13.03.2019 08:37 2,6 °C 76 % 1014,3 hPa 0,0 mm 14,1 km/h (3 Bft) W-SW 258 ° 0 min 0,000 mm 0,6 UV-I 86 W/m² -1,2 °C -1,1 °C 19,3 km/h (3 Bft)
13.03.2019 08:38 2,6 °C 76 % 1014,2 hPa 0,0 mm 17,3 km/h (3 Bft) W 273 ° 0 min 0,000 mm 0,6 UV-I 84 W/m² -1,2 °C -1,6 °C 25,7 km/h (4 Bft)
13.03.2019 08:39 2,6 °C 76 % 1014,2 hPa 0,0 mm 16,9 km/h (3 Bft) W 272 ° 0 min 0,000 mm 0,6 UV-I 86 W/m² -1,2 °C -1,5 °C 22,5 km/h (4 Bft)
13.03.2019 08:40 2,6 °C 76 % 1014,2 hPa 0,0 mm 20,9 km/h (4 Bft) W 273 ° 0 min 0,000 mm 0,6 UV-I 83 W/m² -1,2 °C -2,1 °C 25,7 km/h (4 Bft)
13.03.2019 08:41 2,6 °C 76 % 1014,2 hPa 0,0 mm 16,4 km/h (3 Bft) W-SW 258 ° 0 min 0,000 mm 0,6 UV-I 83 W/m² -1,2 °C -1,4 °C 20,9 km/h (4 Bft)
13.03.2019 08:42 2,6 °C 76 % 1014,3 hPa 0,0 mm 8,0 km/h (2 Bft) W-NW 302 ° 0 min 0,000 mm 0,6 UV-I 83 W/m² -1,2 °C 0,3 °C 12,9 km/h (3 Bft)
13.03.2019 08:43 2,6 °C 77 % 1014,2 hPa 0,0 mm 16,5 km/h (3 Bft) W-SW 249 ° 0 min 0,000 mm 0,6 UV-I 79 W/m² -1,0 °C -1,5 °C 29,0 km/h (5 Bft)
13.03.2019 08:44 2,6 °C 76 % 1014,3 hPa 0,0 mm 18,0 km/h (3 Bft) W 264 ° 0 min 0,000 mm 0,6 UV-I 76 W/m² -1,2 °C -1,7 °C 30,6 km/h (5 Bft)
13.03.2019 08:45 2,6 °C 76 % 1014,3 hPa 0,0 mm 15,1 km/h (3 Bft) W 279 ° 0 min 0,000 mm 0,6 UV-I 74 W/m² -1,2 °C -1,2 °C 22,5 km/h (4 Bft)
13.03.2019 08:46 2,6 °C 77 % 1014,3 hPa 0,0 mm 11,5 km/h (2 Bft) W-SW 252 ° 0 min 0,000 mm 0,6 UV-I 74 W/m² -1,0 °C -0,5 °C 16,1 km/h (3 Bft)
13.03.2019 08:47 2,6 °C 77 % 1014,4 hPa 0,0 mm 7,8 km/h (2 Bft) W 271 ° 0 min 0,000 mm 0,5 UV-I 69 W/m² -1,0 °C 0,4 °C 16,1 km/h (3 Bft)
13.03.2019 08:48 2,6 °C 76 % 1014,3 hPa 0,0 mm 18,0 km/h (3 Bft) W 267 ° 0 min 0,000 mm 0,6 UV-I 70 W/m² -1,2 °C -1,7 °C 25,7 km/h (4 Bft)
13.03.2019 08:49 2,6 °C 76 % 1014,3 hPa 0,0 mm 15,9 km/h (3 Bft) W 275 ° 0 min 0,000 mm 0,6 UV-I 76 W/m² -1,2 °C -1,4 °C 19,3 km/h (3 Bft)
13.03.2019 08:50 2,6 °C 76 % 1014,3 hPa 0,0 mm 19,1 km/h (3 Bft) W 267 ° 0 min 0,000 mm 0,6 UV-I 77 W/m² -1,2 °C -1,8 °C 27,4 km/h (4 Bft)
13.03.2019 08:51 2,6 °C 76 % 1014,3 hPa 0,0 mm 15,4 km/h (3 Bft) W 271 ° 0 min 0,000 mm 0,6 UV-I 74 W/m² -1,2 °C -1,3 °C 27,4 km/h (4 Bft)
13.03.2019 08:52 2,6 °C 76 % 1014,3 hPa 0,0 mm 20,5 km/h (4 Bft) W 268 ° 0 min 0,000 mm 0,7 UV-I 70 W/m² -1,2 °C -2,0 °C 32,2 km/h (5 Bft)
13.03.2019 08:53 2,6 °C 76 % 1014,3 hPa 0,0 mm 17,9 km/h (3 Bft) W 273 ° 0 min 0,000 mm 0,8 UV-I 83 W/m² -1,2 °C -1,7 °C 24,1 km/h (4 Bft)
13.03.2019 08:54 2,6 °C 76 % 1014,3 hPa 0,0 mm 8,5 km/h (2 Bft) W 269 ° 0 min 0,000 mm 0,8 UV-I 86 W/m² -1,2 °C 0,2 °C 14,5 km/h (3 Bft)
13.03.2019 08:55 2,6 °C 76 % 1014,3 hPa 0,0 mm 10,6 km/h (2 Bft) W-SW 246 ° 0 min 0,000 mm 0,8 UV-I 77 W/m² -1,2 °C -0,3 °C 16,1 km/h (3 Bft)
13.03.2019 08:56 2,6 °C 76 % 1014,2 hPa 0,0 mm 8,7 km/h (2 Bft) W-NW 283 ° 0 min 0,000 mm 0,8 UV-I 83 W/m² -1,2 °C 0,1 °C 12,9 km/h (3 Bft)
13.03.2019 08:57 2,6 °C 76 % 1014,3 hPa 0,0 mm 11,4 km/h (2 Bft) W-NW 284 ° 0 min 0,000 mm 0,8 UV-I 86 W/m² -1,2 °C -0,5 °C 16,1 km/h (3 Bft)
13.03.2019 08:58 2,6 °C 76 % 1014,3 hPa 0,0 mm 18,3 km/h (3 Bft) W-NW 288 ° 0 min 0,000 mm 0,9 UV-I 111 W/m² -1,2 °C -1,7 °C 29,0 km/h (5 Bft)
13.03.2019 08:59 2,6 °C 76 % 1014,3 hPa 0,0 mm 13,3 km/h (3 Bft) W-NW 282 ° 0 min 0,000 mm 1,0 UV-I 128 W/m² -1,2 °C -0,9 °C 19,3 km/h (3 Bft)
13.03.2019 09:00 2,6 °C 76 % 1014,3 hPa 0,0 mm 21,7 km/h (4 Bft) W-NW 300 ° 0 min 0,000 mm 1,0 UV-I 130 W/m² -1,2 °C -2,2 °C 32,2 km/h (5 Bft)
13.03.2019 09:01 2,6 °C 76 % 1014,3 hPa 0,0 mm 22,9 km/h (4 Bft) W 261 ° 0 min 0,051 mm 0,9 UV-I 114 W/m² -1,2 °C -2,3 °C 37,0 km/h (5 Bft)
13.03.2019 09:02 2,6 °C 76 % 1014,3 hPa 0,0 mm 18,4 km/h (3 Bft) W 262 ° 0 min 0,000 mm 0,9 UV-I 114 W/m² -1,2 °C -1,7 °C 29,0 km/h (5 Bft)
13.03.2019 09:03 2,6 °C 77 % 1014,3 hPa 0,0 mm 18,4 km/h (3 Bft) W 271 ° 0 min 0,000 mm 1,0 UV-I 121 W/m² -1,0 °C -1,7 °C 22,5 km/h (4 Bft)
13.03.2019 09:04 2,6 °C 77 % 1014,4 hPa 0,0 mm 21,0 km/h (4 Bft) W 263 ° 0 min 0,000 mm 1,0 UV-I 142 W/m² -1,0 °C -2,1 °C 27,4 km/h (4 Bft)
13.03.2019 09:05 2,6 °C 77 % 1014,3 hPa 0,0 mm 22,1 km/h (4 Bft) W 274 ° 0 min 0,000 mm 1,0 UV-I 135 W/m² -1,0 °C -2,2 °C 32,2 km/h (5 Bft)
13.03.2019 09:06 2,6 °C 77 % 1014,3 hPa 0,0 mm 16,5 km/h (3 Bft) W-NW 290 ° 0 min 0,000 mm 1,0 UV-I 130 W/m² -1,0 °C -1,5 °C 22,5 km/h (4 Bft)
13.03.2019 09:07 2,6 °C 77 % 1014,3 hPa 0,0 mm 17,7 km/h (3 Bft) W 267 ° 0 min 0,000 mm 1,1 UV-I 149 W/m² -1,0 °C -1,6 °C 30,6 km/h (5 Bft)
13.03.2019 09:08 2,5 °C 77 % 1014,3 hPa 0,0 mm 21,7 km/h (4 Bft) W-SW 254 ° 0 min 0,000 mm 1,1 UV-I 167 W/m² -1,1 °C -2,3 °C 30,6 km/h (5 Bft)
13.03.2019 09:09 2,6 °C 77 % 1014,3 hPa 0,0 mm 17,3 km/h (3 Bft) W 266 ° 0 min 0,000 mm 1,1 UV-I 172 W/m² -1,0 °C -1,6 °C 24,1 km/h (4 Bft)
13.03.2019 09:10 2,6 °C 77 % 1014,3 hPa 0,0 mm 15,1 km/h (3 Bft) W 277 ° 0 min 0,000 mm 1,1 UV-I 218 W/m² -1,0 °C -1,2 °C 22,5 km/h (4 Bft)
13.03.2019 09:11 2,6 °C 78 % 1014,3 hPa 0,0 mm 18,6 km/h (3 Bft) W-SW 252 ° 0 min 0,000 mm 1,3 UV-I 234 W/m² -0,8 °C -1,8 °C 24,1 km/h (4 Bft)
13.03.2019 09:12 2,7 °C 78 % 1014,3 hPa 0,0 mm 13,1 km/h (3 Bft) W 268 ° 0 min 0,000 mm 1,2 UV-I 218 W/m² -0,7 °C -0,7 °C 20,9 km/h (4 Bft)
13.03.2019 09:13 2,7 °C 78 % 1014,3 hPa 0,0 mm 10,0 km/h (2 Bft) W-SW 246 ° 0 min 0,000 mm 1,1 UV-I 181 W/m² -0,7 °C -0,1 °C 14,5 km/h (3 Bft)
13.03.2019 09:14 2,7 °C 78 % 1014,3 hPa 0,0 mm 10,1 km/h (2 Bft) W 263 ° 0 min 0,000 mm 1,1 UV-I 155 W/m² -0,7 °C -0,1 °C 14,5 km/h (3 Bft)
13.03.2019 09:15 2,7 °C 78 % 1014,3 hPa 0,0 mm 13,1 km/h (3 Bft) W 271 ° 0 min 0,000 mm 1,2 UV-I 125 W/m² -0,7 °C -0,7 °C 17,7 km/h (3 Bft)
13.03.2019 09:16 2,7 °C 78 % 1014,3 hPa 0,0 mm 12,9 km/h (3 Bft) W 279 ° 0 min 0,000 mm 1,2 UV-I 114 W/m² -0,7 °C -0,7 °C 19,3 km/h (3 Bft)
13.03.2019 09:17 2,7 °C 78 % 1014,3 hPa 0,0 mm 9,9 km/h (2 Bft) S 173 ° 0 min 0,000 mm 1,3 UV-I 151 W/m² -0,7 °C -0,1 °C 17,7 km/h (3 Bft)
13.03.2019 09:18 2,7 °C 78 % 1014,2 hPa 0,0 mm 9,7 km/h (2 Bft) W-NW 288 ° 0 min 0,000 mm 1,3 UV-I 151 W/m² -0,7 °C -0,0 °C 14,5 km/h (3 Bft)
13.03.2019 09:19 2,7 °C 78 % 1014,4 hPa 0,0 mm 18,5 km/h (3 Bft) W 265 ° 0 min 0,000 mm 1,3 UV-I 144 W/m² -0,7 °C -1,6 °C 27,4 km/h (4 Bft)
13.03.2019 09:20 2,6 °C 78 % 1014,2 hPa 0,0 mm 22,9 km/h (4 Bft) W 278 ° 0 min 0,000 mm 1,3 UV-I 185 W/m² -0,8 °C -2,3 °C 25,7 km/h (4 Bft)
13.03.2019 09:21 2,6 °C 77 % 1014,3 hPa 0,0 mm 20,9 km/h (4 Bft) W-SW 255 ° 0 min 0,000 mm 1,3 UV-I 144 W/m² -1,0 °C -2,1 °C 27,4 km/h (4 Bft)
13.03.2019 09:22 2,6 °C 77 % 1014,3 hPa 0,0 mm 17,5 km/h (3 Bft) W 281 ° 0 min 0,000 mm 1,3 UV-I 135 W/m² -1,0 °C -1,6 °C 22,5 km/h (4 Bft)
13.03.2019 09:23 2,5 °C 77 % 1014,3 hPa 0,0 mm 20,6 km/h (4 Bft) W 261 ° 0 min 0,000 mm 1,5 UV-I 195 W/m² -1,1 °C -2,2 °C 30,6 km/h (5 Bft)
13.03.2019 09:24 2,5 °C 78 % 1014,5 hPa 0,0 mm 20,9 km/h (4 Bft) W-SW 258 ° 0 min 0,000 mm 1,7 UV-I 195 W/m² -0,9 °C -2,2 °C 32,2 km/h (5 Bft)
13.03.2019 09:25 2,6 °C 77 % 1014,5 hPa 0,0 mm 35,5 km/h (5 Bft) W 263 ° 0 min 0,000 mm 1,4 UV-I 195 W/m² -1,0 °C -3,6 °C 46,7 km/h (6 Bft)
13.03.2019 09:26 2,6 °C 76 % 1014,2 hPa 0,0 mm 24,6 km/h (4 Bft) W-NW 287 ° 0 min 0,000 mm 1,4 UV-I 167 W/m² -1,2 °C -2,5 °C 32,2 km/h (5 Bft)
13.03.2019 09:27 2,6 °C 75 % 1014,2 hPa 0,0 mm 16,2 km/h (3 Bft) W-NW 290 ° 0 min 0,000 mm 1,4 UV-I 230 W/m² -1,4 °C -1,4 °C 22,5 km/h (4 Bft)
13.03.2019 09:28 2,6 °C 76 % 1014,3 hPa 0,0 mm 17,5 km/h (3 Bft) W-NW 287 ° 0 min 0,000 mm 1,3 UV-I 146 W/m² -1,2 °C -1,6 °C 27,4 km/h (4 Bft)
13.03.2019 09:29 2,6 °C 76 % 1014,2 hPa 0,0 mm 11,9 km/h (2 Bft) W 263 ° 0 min 0,000 mm 1,3 UV-I 139 W/m² -1,2 °C -0,6 °C 17,7 km/h (3 Bft)
13.03.2019 09:30 2,6 °C 76 % 1014,2 hPa 0,0 mm 13,7 km/h (3 Bft) NW 305 ° 0 min 0,000 mm 1,4 UV-I 146 W/m² -1,2 °C -1,0 °C 22,5 km/h (4 Bft)
13.03.2019 09:31 2,6 °C 76 % 1014,2 hPa 0,0 mm 16,7 km/h (3 Bft) NW 317 ° 0 min 0,000 mm 1,4 UV-I 193 W/m² -1,2 °C -1,5 °C 25,7 km/h (4 Bft)
13.03.2019 09:32 2,6 °C 76 % 1014,2 hPa 0,0 mm 14,8 km/h (3 Bft) W-SW 255 ° 0 min 0,000 mm 1,4 UV-I 183 W/m² -1,2 °C -1,2 °C 22,5 km/h (4 Bft)
13.03.2019 09:33 2,6 °C 76 % 1014,2 hPa 0,0 mm 14,2 km/h (3 Bft) W-NW 292 ° 0 min 0,000 mm 1,4 UV-I 169 W/m² -1,2 °C -1,1 °C 19,3 km/h (3 Bft)
13.03.2019 09:34 2,7 °C 75 % 1014,2 hPa 0,0 mm 5,0 km/h (1 Bft) W-NW 284 ° 0 min 0,000 mm 1,4 UV-I 169 W/m² -1,3 °C 1,5 °C 14,5 km/h (3 Bft)
13.03.2019 09:35 2,7 °C 76 % 1014,2 hPa 0,0 mm 11,1 km/h (2 Bft) NW 304 ° 0 min 0,000 mm 1,4 UV-I 171 W/m² -1,1 °C -0,3 °C 16,1 km/h (3 Bft)
13.03.2019 09:36 2,8 °C 75 % 1014,2 hPa 0,0 mm 9,5 km/h (2 Bft) W 261 ° 0 min 0,000 mm 1,7 UV-I 199 W/m² -1,2 °C 0,2 °C 16,1 km/h (3 Bft)
13.03.2019 09:37 2,8 °C 74 % 1014,1 hPa 0,0 mm 14,7 km/h (3 Bft) NW 308 ° 0 min 0,000 mm 1,6 UV-I 171 W/m² -1,4 °C -0,9 °C 22,5 km/h (4 Bft)
13.03.2019 09:38 2,8 °C 74 % 1014,0 hPa 0,0 mm 19,2 km/h (3 Bft) W 280 ° 0 min 0,000 mm 1,5 UV-I 153 W/m² -1,4 °C -1,6 °C 25,7 km/h (4 Bft)
13.03.2019 09:39 2,8 °C 74 % 1014,1 hPa 0,0 mm 17,6 km/h (3 Bft) W 265 ° 0 min 0,000 mm 1,4 UV-I 146 W/m² -1,4 °C -1,4 °C 24,1 km/h (4 Bft)
13.03.2019 09:40 2,8 °C 73 % 1014,1 hPa 0,0 mm 17,2 km/h (3 Bft) NW 307 ° 0 min 0,000 mm 1,3 UV-I 111 W/m² -1,5 °C -1,3 °C 22,5 km/h (4 Bft)
13.03.2019 09:41 2,8 °C 73 % 1014,1 hPa 0,0 mm 23,5 km/h (4 Bft) W-SW 254 ° 0 min 0,000 mm 1,3 UV-I 102 W/m² -1,5 °C -2,1 °C 35,4 km/h (5 Bft)
13.03.2019 09:42 2,8 °C 72 % 1014,1 hPa 0,0 mm 25,0 km/h (4 Bft) W 273 ° 0 min 0,000 mm 1,3 UV-I 111 W/m² -1,7 °C -2,3 °C 35,4 km/h (5 Bft)
13.03.2019 09:43 2,8 °C 72 % 1014,1 hPa 0,0 mm 16,7 km/h (3 Bft) W 265 ° 0 min 0,000 mm 1,4 UV-I 125 W/m² -1,7 °C -1,2 °C 22,5 km/h (4 Bft)
13.03.2019 09:44 2,8 °C 73 % 1014,1 hPa 0,0 mm 12,9 km/h (3 Bft) W-SW 252 ° 0 min 0,000 mm 1,4 UV-I 137 W/m² -1,5 °C -0,6 °C 16,1 km/h (3 Bft)
13.03.2019 09:45 2,8 °C 73 % 1014,0 hPa 0,0 mm 13,7 km/h (3 Bft) W-NW 292 ° 0 min 0,000 mm 1,4 UV-I 216 W/m² -1,5 °C -0,7 °C 17,7 km/h (3 Bft)
13.03.2019 09:46 2,8 °C 73 % 1014,0 hPa 0,0 mm 9,3 km/h (2 Bft) W 273 ° 0 min 0,000 mm 1,3 UV-I 102 W/m² -1,5 °C 0,2 °C 14,5 km/h (3 Bft)
13.03.2019 09:47 2,8 °C 73 % 1014,1 hPa 0,0 mm 14,3 km/h (3 Bft) W 259 ° 0 min 0,000 mm 1,3 UV-I 93 W/m² -1,5 °C -0,8 °C 22,5 km/h (4 Bft)
13.03.2019 09:48 2,8 °C 74 % 1014,1 hPa 0,0 mm 16,9 km/h (3 Bft) W 265 ° 0 min 0,000 mm 1,3 UV-I 88 W/m² -1,4 °C -1,3 °C 22,5 km/h (4 Bft)
13.03.2019 09:49 2,8 °C 74 % 1014,1 hPa 0,0 mm 12,1 km/h (2 Bft) W-SW 242 ° 0 min 0,000 mm 1,3 UV-I 91 W/m² -1,4 °C -0,4 °C 20,9 km/h (4 Bft)
13.03.2019 09:50 2,7 °C 74 % 1014,1 hPa 0,0 mm 13,7 km/h (3 Bft) W 265 ° 0 min 0,000 mm 1,4 UV-I 104 W/m² -1,5 °C -0,9 °C 19,3 km/h (3 Bft)
13.03.2019 09:51 2,7 °C 74 % 1014,0 hPa 0,0 mm 10,5 km/h (2 Bft) W 268 ° 0 min 0,000 mm 1,4 UV-I 163 W/m² -1,5 °C -0,2 °C 16,1 km/h (3 Bft)
13.03.2019 09:52 2,7 °C 74 % 1014,1 hPa 0,0 mm 10,6 km/h (2 Bft) W 265 ° 0 min 0,000 mm 1,6 UV-I 190 W/m² -1,5 °C -0,2 °C 16,1 km/h (3 Bft)
13.03.2019 09:53 2,8 °C 75 % 1014,1 hPa 0,0 mm 13,0 km/h (3 Bft) W-SW 238 ° 0 min 0,000 mm 1,7 UV-I 190 W/m² -1,2 °C -0,6 °C 17,7 km/h (3 Bft)
13.03.2019 09:54 2,8 °C 74 % 1014,1 hPa 0,0 mm 5,5 km/h (1 Bft) W-NW 290 ° 0 min 0,000 mm 1,6 UV-I 232 W/m² -1,4 °C 1,4 °C 8,0 km/h (2 Bft)
13.03.2019 09:55 2,9 °C 74 % 1014,1 hPa 0,0 mm 7,8 km/h (2 Bft) W-NW 292 ° 0 min 0,000 mm 2,2 UV-I 232 W/m² -1,3 °C 0,7 °C 12,9 km/h (3 Bft)
13.03.2019 09:56 3,0 °C 74 % 1014,1 hPa 0,0 mm 8,2 km/h (2 Bft) W 262 ° 0 min 0,000 mm 2,1 UV-I 519 W/m² -1,2 °C 0,7 °C 11,3 km/h (2 Bft)
13.03.2019 09:57 3,2 °C 74 % 1014,0 hPa 0,0 mm 7,7 km/h (2 Bft) W 268 ° 0 min 0,000 mm 2,4 UV-I 563 W/m² -1,0 °C 1,1 °C 11,3 km/h (2 Bft)
13.03.2019 09:58 3,4 °C 75 % 1014,1 hPa 0,0 mm 6,7 km/h (2 Bft) W 273 ° 0 min 0,000 mm 2,3 UV-I 563 W/m² -0,6 °C 1,6 °C 11,3 km/h (2 Bft)
13.03.2019 09:59 3,6 °C 73 % 1014,1 hPa 0,0 mm 5,8 km/h (2 Bft) W 266 ° 0 min 0,000 mm 2,2 UV-I 417 W/m² -0,8 °C 2,2 °C 12,9 km/h (3 Bft)
13.03.2019 10:00 3,9 °C 74 % 1014,1 hPa 0,0 mm 13,3 km/h (3 Bft) W-SW 253 ° 0 min 0,102 mm 2,8 UV-I 417 W/m² -0,3 °C 0,7 °C 19,3 km/h (3 Bft)
13.03.2019 10:01 3,9 °C 72 % 1014,1 hPa 0,0 mm 13,3 km/h (3 Bft) W 264 ° 0 min 0,000 mm 2,4 UV-I 585 W/m² -0,7 °C 0,7 °C 17,7 km/h (3 Bft)
13.03.2019 10:02 4,0 °C 71 % 1014,0 hPa 0,0 mm 7,6 km/h (2 Bft) W 274 ° 0 min 0,000 mm 1,6 UV-I 394 W/m² -0,8 °C 2,1 °C 11,3 km/h (2 Bft)
13.03.2019 10:03 4,1 °C 71 % 1014,0 hPa 0,0 mm 6,6 km/h (2 Bft) W 279 ° 0 min 0,000 mm 1,9 UV-I 366 W/m² -0,7 °C 2,5 °C 11,3 km/h (2 Bft)
13.03.2019 10:04 4,1 °C 71 % 1013,9 hPa 0,0 mm 9,6 km/h (2 Bft) W-NW 293 ° 0 min 0,000 mm 1,4 UV-I 366 W/m² -0,7 °C 1,7 °C 16,1 km/h (3 Bft)
13.03.2019 10:05 4,2 °C 71 % 1013,9 hPa 0,0 mm 10,6 km/h (2 Bft) W-NW 288 ° 0 min 0,000 mm 1,4 UV-I 214 W/m² -0,6 °C 1,6 °C 17,7 km/h (3 Bft)
13.03.2019 10:06 4,1 °C 69 % 1014,0 hPa 0,0 mm 15,4 km/h (3 Bft) W 279 ° 0 min 0,000 mm 1,3 UV-I 206 W/m² -1,1 °C 0,6 °C 22,5 km/h (4 Bft)
13.03.2019 10:07 4,0 °C 69 % 1014,0 hPa 0,0 mm 16,7 km/h (3 Bft) W-NW 292 ° 0 min 0,000 mm 1,3 UV-I 204 W/m² -1,2 °C 0,3 °C 20,9 km/h (4 Bft)
13.03.2019 10:08 3,9 °C 69 % 1014,0 hPa 0,0 mm 14,8 km/h (3 Bft) W-SW 246 ° 0 min 0,000 mm 1,2 UV-I 179 W/m² -1,3 °C 0,4 °C 19,3 km/h (3 Bft)
13.03.2019 10:09 3,8 °C 69 % 1014,0 hPa 0,0 mm 10,9 km/h (2 Bft) W-SW 242 ° 0 min 0,000 mm 1,1 UV-I 151 W/m² -1,4 °C 1,0 °C 19,3 km/h (3 Bft)
13.03.2019 10:10 3,7 °C 69 % 1014,0 hPa 0,0 mm 7,3 km/h (2 Bft) W 272 ° 0 min 0,000 mm 1,0 UV-I 135 W/m² -1,4 °C 1,8 °C 12,9 km/h (3 Bft)
13.03.2019 10:11 3,7 °C 70 % 1014,0 hPa 0,0 mm 15,2 km/h (3 Bft) W 273 ° 0 min 0,000 mm 1,1 UV-I 137 W/m² -1,3 °C 0,1 °C 19,3 km/h (3 Bft)
13.03.2019 10:12 3,7 °C 69 % 1014,0 hPa 0,0 mm 12,3 km/h (3 Bft) W-NW 303 ° 0 min 0,000 mm 1,2 UV-I 149 W/m² -1,4 °C 0,6 °C 16,1 km/h (3 Bft)
13.03.2019 10:13 3,6 °C 70 % 1014,1 hPa 0,0 mm 18,7 km/h (3 Bft) W-NW 292 ° 0 min 0,000 mm 1,3 UV-I 162 W/m² -1,3 °C -0,5 °C 27,4 km/h (4 Bft)
13.03.2019 10:14 3,6 °C 70 % 1014,1 hPa 0,0 mm 14,0 km/h (3 Bft) NW 306 ° 0 min 0,000 mm 1,2 UV-I 167 W/m² -1,3 °C 0,2 °C 17,7 km/h (3 Bft)
13.03.2019 10:15 3,6 °C 70 % 1014,0 hPa 0,0 mm 13,6 km/h (3 Bft) W-NW 298 ° 0 min 0,000 mm 1,2 UV-I 171 W/m² -1,3 °C 0,3 °C 19,3 km/h (3 Bft)
13.03.2019 10:16 3,6 °C 69 % 1014,0 hPa 0,0 mm 5,3 km/h (1 Bft) W-NW 284 ° 0 min 0,000 mm 1,1 UV-I 156 W/m² -1,5 °C 2,4 °C 11,3 km/h (2 Bft)
13.03.2019 10:17 3,5 °C 70 % 1014,0 hPa 0,0 mm 13,7 km/h (3 Bft) W-NW 293 ° 0 min 0,000 mm 1,2 UV-I 153 W/m² -1,4 °C 0,1 °C 19,3 km/h (3 Bft)
13.03.2019 10:18 3,5 °C 70 % 1014,1 hPa 0,0 mm 5,9 km/h (2 Bft) W 265 ° 0 min 0,000 mm 1,2 UV-I 162 W/m² -1,4 °C 2,0 °C 9,7 km/h (2 Bft)
13.03.2019 10:19 3,5 °C 71 % 1014,1 hPa 0,0 mm 13,1 km/h (3 Bft) W 263 ° 0 min 0,000 mm 1,2 UV-I 174 W/m² -1,3 °C 0,2 °C 19,3 km/h (3 Bft)
13.03.2019 10:20 3,5 °C 70 % 1014,1 hPa 0,0 mm 17,2 km/h (3 Bft) W-NW 283 ° 0 min 0,000 mm 1,2 UV-I 190 W/m² -1,4 °C -0,4 °C 20,9 km/h (4 Bft)
13.03.2019 10:21 3,5 °C 70 % 1014,1 hPa 0,0 mm 14,6 km/h (3 Bft) W-SW 240 ° 0 min 0,000 mm 1,3 UV-I 232 W/m² -1,4 °C -0,0 °C 17,7 km/h (3 Bft)
13.03.2019 10:22 3,5 °C 70 % 1014,1 hPa 0,0 mm 17,7 km/h (3 Bft) W 277 ° 0 min 0,000 mm 1,5 UV-I 262 W/m² -1,4 °C -0,5 °C 32,2 km/h (5 Bft)
13.03.2019 10:23 3,5 °C 70 % 1014,2 hPa 0,0 mm 16,8 km/h (3 Bft) W-NW 284 ° 0 min 0,000 mm 1,5 UV-I 283 W/m² -1,4 °C -0,4 °C 25,7 km/h (4 Bft)
13.03.2019 10:24 3,5 °C 71 % 1014,1 hPa 0,0 mm 20,3 km/h (4 Bft) W 260 ° 0 min 0,000 mm 1,6 UV-I 341 W/m² -1,3 °C -0,9 °C 29,0 km/h (5 Bft)
13.03.2019 10:25 3,5 °C 71 % 1014,0 hPa 0,0 mm 21,7 km/h (4 Bft) W-NW 287 ° 0 min 0,000 mm 1,7 UV-I 295 W/m² -1,3 °C -1,0 °C 29,0 km/h (5 Bft)
13.03.2019 10:26 3,5 °C 70 % 1014,0 hPa 0,0 mm 16,0 km/h (3 Bft) W-NW 294 ° 0 min 0,000 mm 1,6 UV-I 260 W/m² -1,4 °C -0,3 °C 27,4 km/h (4 Bft)
13.03.2019 10:27 3,5 °C 70 % 1013,9 hPa 0,0 mm 18,5 km/h (3 Bft) W 277 ° 0 min 0,000 mm 1,6 UV-I 257 W/m² -1,4 °C -0,6 °C 29,0 km/h (5 Bft)
13.03.2019 10:28 3,5 °C 70 % 1014,0 hPa 0,0 mm 19,4 km/h (3 Bft) N-NW 341 ° 0 min 0,000 mm 1,8 UV-I 315 W/m² -1,4 °C -0,7 °C 29,0 km/h (5 Bft)
13.03.2019 10:29 3,5 °C 69 % 1014,0 hPa 0,0 mm 20,6 km/h (4 Bft) W 266 ° 0 min 0,000 mm 2,1 UV-I 387 W/m² -1,6 °C -0,9 °C 25,7 km/h (4 Bft)
13.03.2019 10:30 3,6 °C 70 % 1014,0 hPa 0,0 mm 14,8 km/h (3 Bft) W 276 ° 0 min 0,000 mm 1,9 UV-I 330 W/m² -1,3 °C 0,1 °C 20,9 km/h (4 Bft)
13.03.2019 10:31 3,6 °C 70 % 1014,0 hPa 0,0 mm 20,3 km/h (4 Bft) NW 311 ° 0 min 0,000 mm 2,1 UV-I 355 W/m² -1,3 °C -0,7 °C 37,0 km/h (5 Bft)
13.03.2019 10:32 3,6 °C 69 % 1013,8 hPa 0,0 mm 21,4 km/h (4 Bft) W 270 ° 0 min 0,000 mm 2,2 UV-I 413 W/m² -1,5 °C -0,9 °C 30,6 km/h (5 Bft)
13.03.2019 10:33 3,7 °C 70 % 1013,9 hPa 0,0 mm 21,5 km/h (4 Bft) W-NW 290 ° 0 min 0,000 mm 3,0 UV-I 413 W/m² -1,3 °C -0,8 °C 27,4 km/h (4 Bft)
13.03.2019 10:34 3,8 °C 70 % 1013,8 hPa 0,0 mm 16,1 km/h (3 Bft) W 261 ° 0 min 0,000 mm 2,3 UV-I 413 W/m² -1,2 °C 0,1 °C 24,1 km/h (4 Bft)
13.03.2019 10:35 3,9 °C 70 % 1013,7 hPa 0,0 mm 20,4 km/h (4 Bft) W 278 ° 0 min 0,000 mm 2,9 UV-I 413 W/m² -1,1 °C -0,4 °C 35,4 km/h (5 Bft)
13.03.2019 10:36 3,9 °C 69 % 1013,9 hPa 0,0 mm 19,4 km/h (3 Bft) W-NW 297 ° 1 min 0,000 mm 3,4 UV-I 828 W/m² -1,3 °C -0,2 °C 35,4 km/h (5 Bft)
13.03.2019 10:37 4,1 °C 69 % 1013,7 hPa 0,0 mm 22,3 km/h (4 Bft) W 271 ° 1 min 0,000 mm 2,0 UV-I 828 W/m² -1,1 °C -0,3 °C 27,4 km/h (4 Bft)
13.03.2019 10:38 4,1 °C 69 % 1013,9 hPa 0,0 mm 22,0 km/h (4 Bft) W-NW 282 ° 1 min 0,000 mm 2,8 UV-I 828 W/m² -1,1 °C -0,3 °C 27,4 km/h (4 Bft)
13.03.2019 10:39 4,1 °C 68 % 1013,7 hPa 0,0 mm 21,7 km/h (4 Bft) W 263 ° 1 min 0,000 mm 2,1 UV-I 828 W/m² -1,3 °C -0,3 °C 30,6 km/h (5 Bft)
13.03.2019 10:40 4,1 °C 68 % 1013,7 hPa 0,0 mm 14,6 km/h (3 Bft) W 271 ° 0 min 0,000 mm 2,0 UV-I 311 W/m² -1,3 °C 0,7 °C 32,2 km/h (5 Bft)
13.03.2019 10:41 4,1 °C 69 % 1013,6 hPa 0,0 mm 14,3 km/h (3 Bft) W 266 ° 0 min 0,000 mm 2,2 UV-I 330 W/m² -1,1 °C 0,8 °C 22,5 km/h (4 Bft)
13.03.2019 10:42 4,2 °C 70 % 1013,7 hPa 0,0 mm 12,1 km/h (2 Bft) W 274 ° 0 min 0,000 mm 2,2 UV-I 330 W/m² -0,8 °C 1,3 °C 16,1 km/h (3 Bft)
13.03.2019 10:43 4,2 °C 71 % 1013,7 hPa 0,0 mm 10,1 km/h (2 Bft) W 259 ° 0 min 0,000 mm 2,0 UV-I 330 W/m² -0,6 °C 1,7 °C 24,1 km/h (4 Bft)
13.03.2019 10:44 4,2 °C 69 % 1013,7 hPa 0,0 mm 22,5 km/h (4 Bft) W-SW 250 ° 0 min 0,000 mm 1,9 UV-I 330 W/m² -1,0 °C -0,2 °C 37,0 km/h (5 Bft)
13.03.2019 10:45 4,2 °C 68 % 1013,7 hPa 0,0 mm 13,8 km/h (3 Bft) W-NW 300 ° 0 min 0,000 mm 1,9 UV-I 315 W/m² -1,2 °C 1,0 °C 22,5 km/h (4 Bft)
13.03.2019 10:46 4,2 °C 69 % 1013,7 hPa 0,0 mm 21,6 km/h (4 Bft) W 274 ° 0 min 0,000 mm 2,5 UV-I 315 W/m² -1,0 °C -0,1 °C 30,6 km/h (5 Bft)
13.03.2019 10:47 4,2 °C 68 % 1013,6 hPa 0,0 mm 20,5 km/h (4 Bft) W 279 ° 0 min 0,000 mm 1,9 UV-I 315 W/m² -1,2 °C -0,0 °C 27,4 km/h (4 Bft)
13.03.2019 10:48 4,1 °C 68 % 1013,7 hPa 0,0 mm 18,0 km/h (3 Bft) W 262 ° 0 min 0,000 mm 3,1 UV-I 330 W/m² -1,3 °C 0,2 °C 29,0 km/h (5 Bft)
13.03.2019 10:49 4,1 °C 70 % 1013,7 hPa 0,0 mm 19,4 km/h (3 Bft) W-SW 250 ° 0 min 0,000 mm 2,0 UV-I 306 W/m² -0,9 °C 0,0 °C 27,4 km/h (4 Bft)
13.03.2019 10:50 4,2 °C 69 % 1013,6 hPa 0,0 mm 16,0 km/h (3 Bft) W-NW 289 ° 0 min 0,000 mm 2,0 UV-I 306 W/m² -1,0 °C 0,6 °C 22,5 km/h (4 Bft)
13.03.2019 10:51 4,2 °C 69 % 1013,6 hPa 0,0 mm 16,5 km/h (3 Bft) W-NW 289 ° 0 min 0,000 mm 2,0 UV-I 309 W/m² -1,0 °C 0,5 °C 22,5 km/h (4 Bft)
13.03.2019 10:52 4,2 °C 69 % 1013,7 hPa 0,0 mm 12,9 km/h (3 Bft) W-NW 296 ° 0 min 0,000 mm 3,5 UV-I 357 W/m² -1,0 °C 1,1 °C 19,3 km/h (3 Bft)
13.03.2019 10:53 4,3 °C 70 % 1013,7 hPa 0,0 mm 19,4 km/h (3 Bft) W-SW 248 ° 0 min 0,000 mm 2,4 UV-I 441 W/m² -0,7 °C 0,3 °C 29,0 km/h (5 Bft)
13.03.2019 10:54 4,3 °C 69 % 1013,6 hPa 0,0 mm 27,2 km/h (4 Bft) W 262 ° 0 min 0,000 mm 2,0 UV-I 441 W/m² -0,9 °C -0,6 °C 33,8 km/h (5 Bft)
13.03.2019 10:55 4,2 °C 68 % 1013,7 hPa 0,0 mm 21,0 km/h (4 Bft) W 261 ° 0 min 0,000 mm 2,1 UV-I 352 W/m² -1,2 °C -0,1 °C 30,6 km/h (5 Bft)
13.03.2019 10:56 4,2 °C 67 % 1013,7 hPa 0,0 mm 22,5 km/h (4 Bft) W-SW 244 ° 0 min 0,000 mm 2,2 UV-I 350 W/m² -1,4 °C -0,2 °C 30,6 km/h (5 Bft)
13.03.2019 10:57 4,2 °C 67 % 1013,7 hPa 0,0 mm 24,8 km/h (4 Bft) W-NW 293 ° 0 min 0,000 mm 2,2 UV-I 341 W/m² -1,4 °C -0,5 °C 37,0 km/h (5 Bft)
13.03.2019 10:58 4,2 °C 67 % 1013,6 hPa 0,0 mm 15,0 km/h (3 Bft) W-SW 256 ° 0 min 0,000 mm 2,2 UV-I 330 W/m² -1,4 °C 0,8 °C 24,1 km/h (4 Bft)
13.03.2019 10:59 4,1 °C 68 % 1013,7 hPa 0,0 mm 10,2 km/h (2 Bft) W 279 ° 0 min 0,000 mm 2,2 UV-I 338 W/m² -1,3 °C 1,5 °C 17,7 km/h (3 Bft)
13.03.2019 11:00 4,2 °C 68 % 1013,7 hPa 0,0 mm 15,2 km/h (3 Bft) W 263 ° 0 min 0,177 mm 2,2 UV-I 343 W/m² -1,2 °C 0,7 °C 24,1 km/h (4 Bft)
13.03.2019 11:01 4,2 °C 68 % 1013,6 hPa 0,0 mm 16,3 km/h (3 Bft) W 261 ° 0 min 0,000 mm 2,6 UV-I 343 W/m² -1,2 °C 0,6 °C 24,1 km/h (4 Bft)
13.03.2019 11:02 4,2 °C 67 % 1013,6 hPa 0,0 mm 15,5 km/h (3 Bft) W 267 ° 0 min 0,000 mm 3,1 UV-I 383 W/m² -1,4 °C 0,7 °C 19,3 km/h (3 Bft)
13.03.2019 11:03 4,3 °C 67 % 1013,6 hPa 0,0 mm 14,3 km/h (3 Bft) W 271 ° 0 min 0,000 mm 2,2 UV-I 336 W/m² -1,3 °C 1,0 °C 22,5 km/h (4 Bft)
13.03.2019 11:04 4,3 °C 66 % 1013,6 hPa 0,0 mm 20,1 km/h (4 Bft) SW 236 ° 0 min 0,000 mm 3,2 UV-I 396 W/m² -1,5 °C 0,2 °C 27,4 km/h (4 Bft)
13.03.2019 11:05 4,3 °C 67 % 1013,6 hPa 0,0 mm 20,4 km/h (4 Bft) W 274 ° 0 min 0,000 mm 2,2 UV-I 355 W/m² -1,3 °C 0,1 °C 30,6 km/h (5 Bft)
13.03.2019 11:06 4,3 °C 66 % 1013,6 hPa 0,0 mm 18,1 km/h (3 Bft) W-NW 287 ° 0 min 0,000 mm 2,5 UV-I 399 W/m² -1,5 °C 0,4 °C 24,1 km/h (4 Bft)
13.03.2019 11:07 4,3 °C 67 % 1013,5 hPa 0,0 mm 13,5 km/h (3 Bft) W-SW 256 ° 0 min 0,000 mm 2,5 UV-I 425 W/m² -1,3 °C 1,1 °C 29,0 km/h (5 Bft)
13.03.2019 11:08 4,4 °C 66 % 1013,6 hPa 0,0 mm 16,2 km/h (3 Bft) W-SW 239 ° 0 min 0,000 mm 3,5 UV-I 425 W/m² -1,4 °C 0,8 °C 25,7 km/h (4 Bft)
13.03.2019 11:09 4,4 °C 66 % 1013,6 hPa 0,0 mm 22,3 km/h (4 Bft) W 268 ° 0 min 0,000 mm 2,5 UV-I 381 W/m² -1,4 °C 0,0 °C 35,4 km/h (5 Bft)
13.03.2019 11:10 4,4 °C 64 % 1013,6 hPa 0,0 mm 21,5 km/h (4 Bft) W 263 ° 0 min 0,000 mm 2,3 UV-I 380 W/m² -1,8 °C 0,1 °C 37,0 km/h (5 Bft)
13.03.2019 11:11 4,4 °C 65 % 1013,6 hPa 0,0 mm 23,2 km/h (4 Bft) W-NW 287 ° 0 min 0,000 mm 2,2 UV-I 302 W/m² -1,6 °C -0,1 °C 38,6 km/h (5 Bft)
13.03.2019 11:12 4,4 °C 64 % 1013,6 hPa 0,0 mm 25,1 km/h (4 Bft) W 280 ° 0 min 0,000 mm 3,8 UV-I 512 W/m² -1,8 °C -0,3 °C 33,8 km/h (5 Bft)
13.03.2019 11:13 4,5 °C 65 % 1013,6 hPa 0,0 mm 22,8 km/h (4 Bft) W 273 ° 0 min 0,000 mm 3,2 UV-I 512 W/m² -1,5 °C 0,1 °C 30,6 km/h (5 Bft)
13.03.2019 11:14 4,5 °C 65 % 1013,4 hPa 0,0 mm 18,9 km/h (3 Bft) NW 309 ° 0 min 0,000 mm 3,0 UV-I 512 W/m² -1,5 °C 0,6 °C 29,0 km/h (5 Bft)
13.03.2019 11:15 4,6 °C 65 % 1013,4 hPa 0,0 mm 20,6 km/h (4 Bft) S-SW 213 ° 0 min 0,000 mm 3,5 UV-I 512 W/m² -1,4 °C 0,5 °C 30,6 km/h (5 Bft)
13.03.2019 11:16 4,6 °C 64 % 1013,5 hPa 0,0 mm 14,1 km/h (3 Bft) W 264 ° 0 min 0,000 mm 3,4 UV-I 512 W/m² -1,6 °C 1,4 °C 20,9 km/h (4 Bft)
13.03.2019 11:17 4,6 °C 65 % 1013,5 hPa 0,0 mm 25,3 km/h (4 Bft) W 264 ° 1 min 0,000 mm 3,4 UV-I 670 W/m² -1,4 °C -0,0 °C 33,8 km/h (5 Bft)
13.03.2019 11:18 4,6 °C 64 % 1013,4 hPa 0,0 mm 25,5 km/h (4 Bft) W-SW 256 ° 1 min 0,000 mm 3,4 UV-I 670 W/m² -1,6 °C -0,0 °C 40,2 km/h (6 Bft)
13.03.2019 11:19 4,6 °C 63 % 1013,5 hPa 0,0 mm 20,0 km/h (4 Bft) W-NW 286 ° 1 min 0,000 mm 3,4 UV-I 670 W/m² -1,8 °C 0,6 °C 29,0 km/h (5 Bft)
13.03.2019 11:20 4,7 °C 63 % 1013,5 hPa 0,0 mm 17,4 km/h (3 Bft) W-NW 282 ° 1 min 0,000 mm 3,4 UV-I 666 W/m² -1,7 °C 1,0 °C 25,7 km/h (4 Bft)
13.03.2019 11:21 4,7 °C 63 % 1013,4 hPa 0,0 mm 19,4 km/h (3 Bft) W-SW 245 ° 1 min 0,000 mm 3,4 UV-I 679 W/m² -1,7 °C 0,8 °C 29,0 km/h (5 Bft)
13.03.2019 11:22 4,7 °C 62 % 1013,6 hPa 0,0 mm 12,9 km/h (3 Bft) W-SW 254 ° 1 min 0,000 mm 3,0 UV-I 679 W/m² -1,9 °C 1,7 °C 19,3 km/h (3 Bft)
13.03.2019 11:23 4,7 °C 63 % 1013,4 hPa 0,0 mm 15,3 km/h (3 Bft) W 280 ° 1 min 0,000 mm 3,4 UV-I 679 W/m² -1,7 °C 1,3 °C 22,5 km/h (4 Bft)
13.03.2019 11:24 4,7 °C 62 % 1013,5 hPa 0,0 mm 13,8 km/h (3 Bft) W-SW 257 ° 1 min 0,000 mm 3,4 UV-I 664 W/m² -1,9 °C 1,6 °C 20,9 km/h (4 Bft)
13.03.2019 11:25 4,7 °C 63 % 1013,4 hPa 0,0 mm 12,0 km/h (2 Bft) W 280 ° 1 min 0,000 mm 3,4 UV-I 671 W/m² -1,7 °C 1,9 °C 17,7 km/h (3 Bft)
13.03.2019 11:26 4,8 °C 63 % 1013,4 hPa 0,0 mm 16,8 km/h (3 Bft) W 277 ° 1 min 0,000 mm 3,5 UV-I 680 W/m² -1,6 °C 1,2 °C 32,2 km/h (5 Bft)
13.03.2019 11:27 4,9 °C 63 % 1013,3 hPa 0,0 mm 17,8 km/h (3 Bft) W-NW 285 ° 1 min 0,000 mm 3,5 UV-I 703 W/m² -1,5 °C 1,2 °C 32,2 km/h (5 Bft)
13.03.2019 11:28 5,0 °C 61 % 1013,3 hPa 0,0 mm 20,5 km/h (4 Bft) W-NW 292 ° 1 min 0,000 mm 3,5 UV-I 747 W/m² -1,9 °C 1,0 °C 30,6 km/h (5 Bft)
13.03.2019 11:29 5,0 °C 61 % 1013,3 hPa 0,0 mm 22,8 km/h (4 Bft) W 281 ° 1 min 0,000 mm 3,7 UV-I 728 W/m² -1,9 °C 0,7 °C 35,4 km/h (5 Bft)
13.03.2019 11:30 5,1 °C 61 % 1013,3 hPa 0,0 mm 19,9 km/h (4 Bft) NW 307 ° 1 min 0,000 mm 3,8 UV-I 809 W/m² -1,8 °C 1,2 °C 25,7 km/h (4 Bft)
13.03.2019 11:31 5,2 °C 63 % 1013,4 hPa 0,0 mm 17,3 km/h (3 Bft) W-SW 252 ° 1 min 0,000 mm 3,8 UV-I 784 W/m² -1,3 °C 1,7 °C 29,0 km/h (5 Bft)
13.03.2019 11:32 5,2 °C 60 % 1013,3 hPa 0,0 mm 21,8 km/h (4 Bft) W 273 ° 1 min 0,000 mm 2,4 UV-I 784 W/m² -1,9 °C 1,1 °C 30,6 km/h (5 Bft)
13.03.2019 11:33 5,2 °C 60 % 1013,3 hPa 0,0 mm 21,6 km/h (4 Bft) W-NW 282 ° 1 min 0,000 mm 3,7 UV-I 784 W/m² -1,9 °C 1,1 °C 35,4 km/h (5 Bft)
13.03.2019 11:34 5,2 °C 60 % 1013,2 hPa 0,0 mm 20,4 km/h (4 Bft) W 272 ° 1 min 0,000 mm 2,9 UV-I 807 W/m² -1,9 °C 1,3 °C 33,8 km/h (5 Bft)
13.03.2019 11:35 5,2 °C 60 % 1013,3 hPa 0,0 mm 22,5 km/h (4 Bft) W 270 ° 1 min 0,000 mm 2,4 UV-I 789 W/m² -1,9 °C 1,0 °C 33,8 km/h (5 Bft)
13.03.2019 11:36 5,1 °C 59 % 1013,3 hPa 0,0 mm 20,1 km/h (4 Bft) W-SW 244 ° 1 min 0,000 mm 3,6 UV-I 708 W/m² -2,2 °C 1,2 °C 30,6 km/h (5 Bft)
13.03.2019 11:37 5,1 °C 60 % 1013,3 hPa 0,0 mm 17,1 km/h (3 Bft) W-NW 286 ° 1 min 0,000 mm 3,5 UV-I 693 W/m² -2,0 °C 1,6 °C 24,1 km/h (4 Bft)
13.03.2019 11:38 5,2 °C 61 % 1013,2 hPa 0,0 mm 22,5 km/h (4 Bft) W-NW 292 ° 1 min 0,000 mm 3,7 UV-I 722 W/m² -1,7 °C 1,0 °C 32,2 km/h (5 Bft)
13.03.2019 11:39 5,1 °C 58 % 1013,2 hPa 0,0 mm 25,0 km/h (4 Bft) W-NW 296 ° 1 min 0,000 mm 3,8 UV-I 777 W/m² -2,5 °C 0,6 °C 30,6 km/h (5 Bft)
13.03.2019 11:40 5,2 °C 61 % 1013,2 hPa 0,0 mm 17,7 km/h (3 Bft) NW 310 ° 1 min 0,000 mm 3,9 UV-I 810 W/m² -1,7 °C 1,6 °C 24,1 km/h (4 Bft)
13.03.2019 11:41 5,2 °C 60 % 1013,1 hPa 0,0 mm 13,0 km/h (3 Bft) W 268 ° 1 min 0,000 mm 3,8 UV-I 798 W/m² -1,9 °C 2,3 °C 22,5 km/h (4 Bft)
13.03.2019 11:42 5,3 °C 60 % 1013,2 hPa 0,0 mm 13,3 km/h (3 Bft) W-NW 292 ° 1 min 0,000 mm 3,7 UV-I 707 W/m² -1,8 °C 2,4 °C 25,7 km/h (4 Bft)
13.03.2019 11:43 5,4 °C 60 % 1013,1 hPa 0,0 mm 21,1 km/h (4 Bft) W-NW 290 ° 1 min 0,000 mm 3,6 UV-I 700 W/m² -1,7 °C 1,4 °C 33,8 km/h (5 Bft)
13.03.2019 11:44 5,4 °C 60 % 1013,1 hPa 0,0 mm 20,3 km/h (4 Bft) W-NW 288 ° 1 min 0,000 mm 3,6 UV-I 689 W/m² -1,7 °C 1,5 °C 30,6 km/h (5 Bft)
13.03.2019 11:45 5,5 °C 60 % 1013,0 hPa 0,0 mm 18,8 km/h (3 Bft) W-NW 294 ° 1 min 0,000 mm 3,6 UV-I 703 W/m² -1,6 °C 1,8 °C 25,7 km/h (4 Bft)
13.03.2019 11:46 5,4 °C 59 % 1013,0 hPa 0,0 mm 19,0 km/h (3 Bft) W-NW 296 ° 1 min 0,000 mm 3,6 UV-I 691 W/m² -2,0 °C 1,7 °C 25,7 km/h (4 Bft)
13.03.2019 11:47 5,4 °C 59 % 1013,1 hPa 0,0 mm 23,2 km/h (4 Bft) W-NW 288 ° 1 min 0,000 mm 3,6 UV-I 691 W/m² -2,0 °C 1,2 °C 37,0 km/h (5 Bft)
13.03.2019 11:48 5,4 °C 60 % 1013,1 hPa 0,0 mm 18,4 km/h (3 Bft) W-NW 292 ° 1 min 0,000 mm 3,6 UV-I 715 W/m² -1,7 °C 1,8 °C 25,7 km/h (4 Bft)
13.03.2019 11:49 5,5 °C 59 % 1013,0 hPa 0,0 mm 11,3 km/h (2 Bft) W-NW 294 ° 1 min 0,000 mm 3,7 UV-I 735 W/m² -1,9 °C 3,0 °C 19,3 km/h (3 Bft)
13.03.2019 11:50 5,6 °C 59 % 1012,9 hPa 0,0 mm 15,1 km/h (3 Bft) W-NW 288 ° 1 min 0,000 mm 3,7 UV-I 722 W/m² -1,8 °C 2,5 °C 24,1 km/h (4 Bft)
13.03.2019 11:51 5,7 °C 60 % 1012,9 hPa 0,0 mm 14,0 km/h (3 Bft) W 277 ° 1 min 0,000 mm 3,7 UV-I 712 W/m² -1,4 °C 2,8 °C 20,9 km/h (4 Bft)
13.03.2019 11:52 5,8 °C 60 % 1012,8 hPa 0,0 mm 15,8 km/h (3 Bft) W-NW 300 ° 1 min 0,000 mm 3,7 UV-I 722 W/m² -1,4 °C 2,6 °C 19,3 km/h (3 Bft)
13.03.2019 11:53 5,9 °C 59 % 1012,8 hPa 0,0 mm 15,0 km/h (3 Bft) W-NW 295 ° 1 min 0,000 mm 3,7 UV-I 724 W/m² -1,5 °C 2,9 °C 20,9 km/h (4 Bft)
13.03.2019 11:54 5,9 °C 59 % 1012,8 hPa 0,0 mm 16,0 km/h (3 Bft) W 271 ° 1 min 0,000 mm 3,6 UV-I 696 W/m² -1,5 °C 2,7 °C 22,5 km/h (4 Bft)
13.03.2019 11:55 6,1 °C 60 % 1013,0 hPa 0,0 mm 23,3 km/h (4 Bft) W 267 ° 1 min 0,000 mm 3,6 UV-I 691 W/m² -1,1 °C 2,1 °C 33,8 km/h (5 Bft)
13.03.2019 11:56 6,1 °C 56 % 1013,0 hPa 0,0 mm 20,6 km/h (4 Bft) W 265 ° 1 min 0,000 mm 3,6 UV-I 696 W/m² -2,0 °C 2,4 °C 32,2 km/h (5 Bft)
13.03.2019 11:57 6,0 °C 55 % 1012,9 hPa 0,0 mm 26,4 km/h (4 Bft) W-SW 250 ° 1 min 0,000 mm 3,6 UV-I 698 W/m² -2,3 °C 1,7 °C 40,2 km/h (6 Bft)
13.03.2019 11:58 5,9 °C 54 % 1012,9 hPa 0,0 mm 24,4 km/h (4 Bft) W-SW 256 ° 1 min 0,000 mm 3,7 UV-I 701 W/m² -2,7 °C 1,7 °C 38,6 km/h (5 Bft)
13.03.2019 11:59 5,8 °C 54 % 1013,0 hPa 0,0 mm 26,4 km/h (4 Bft) W-SW 243 ° 1 min 0,000 mm 3,7 UV-I 707 W/m² -2,8 °C 1,4 °C 41,8 km/h (6 Bft)
13.03.2019 12:00 5,8 °C 56 % 1012,9 hPa 0,0 mm 21,5 km/h (4 Bft) W 259 ° 1 min 0,305 mm 3,7 UV-I 714 W/m² -2,3 °C 1,9 °C 27,4 km/h (4 Bft)
13.03.2019 12:01 5,8 °C 56 % 1012,8 hPa 0,0 mm 21,7 km/h (4 Bft) W-SW 252 ° 1 min 0,000 mm 3,7 UV-I 728 W/m² -2,3 °C 1,9 °C 29,0 km/h (5 Bft)
13.03.2019 12:02 5,8 °C 57 % 1012,9 hPa 0,0 mm 26,7 km/h (4 Bft) W-SW 250 ° 1 min 0,000 mm 3,7 UV-I 751 W/m² -2,0 °C 1,4 °C 45,1 km/h (6 Bft)
13.03.2019 12:03 5,8 °C 54 % 1012,9 hPa 0,0 mm 24,8 km/h (4 Bft) W-NW 284 ° 1 min 0,000 mm 3,7 UV-I 780 W/m² -2,8 °C 1,6 °C 38,6 km/h (5 Bft)
13.03.2019 12:04 5,8 °C 54 % 1012,9 hPa 0,0 mm 24,5 km/h (4 Bft) W-NW 288 ° 1 min 0,000 mm 3,9 UV-I 810 W/m² -2,8 °C 1,6 °C 40,2 km/h (6 Bft)
13.03.2019 12:05 5,9 °C 55 % 1012,9 hPa 0,0 mm 21,7 km/h (4 Bft) W-SW 245 ° 1 min 0,000 mm 3,8 UV-I 805 W/m² -2,4 °C 2,0 °C 41,8 km/h (6 Bft)
13.03.2019 12:06 5,9 °C 54 % 1012,9 hPa 0,0 mm 19,4 km/h (3 Bft) W 262 ° 1 min 0,000 mm 2,8 UV-I 854 W/m² -2,7 °C 2,3 °C 33,8 km/h (5 Bft)
13.03.2019 12:07 5,9 °C 54 % 1012,9 hPa 0,0 mm 29,4 km/h (5 Bft) W 263 ° 1 min 0,000 mm 2,3 UV-I 854 W/m² -2,7 °C 1,3 °C 43,5 km/h (6 Bft)
13.03.2019 12:08 5,9 °C 53 % 1013,1 hPa 0,0 mm 29,5 km/h (5 Bft) SW 230 ° 1 min 0,000 mm 1,9 UV-I 854 W/m² -2,9 °C 1,3 °C 45,1 km/h (6 Bft)
13.03.2019 12:09 5,9 °C 52 % 1012,8 hPa 0,0 mm 31,4 km/h (5 Bft) W-NW 284 ° 1 min 0,000 mm 3,8 UV-I 895 W/m² -3,2 °C 1,1 °C 49,9 km/h (6 Bft)
13.03.2019 12:10 5,9 °C 52 % 1012,9 hPa 0,0 mm 29,6 km/h (5 Bft) W 265 ° 1 min 0,000 mm 3,8 UV-I 882 W/m² -3,2 °C 1,3 °C 43,5 km/h (6 Bft)
13.03.2019 12:11 5,9 °C 52 % 1012,9 hPa 0,0 mm 17,2 km/h (3 Bft) W-NW 293 ° 1 min 0,000 mm 2,2 UV-I 882 W/m² -3,2 °C 2,6 °C 29,0 km/h (5 Bft)
13.03.2019 12:12 5,9 °C 53 % 1012,8 hPa 0,0 mm 13,2 km/h (3 Bft) SW 219 ° 1 min 0,000 mm 3,9 UV-I 882 W/m² -2,9 °C 3,1 °C 24,1 km/h (4 Bft)
13.03.2019 12:13 6,2 °C 55 % 1012,9 hPa 0,0 mm 17,4 km/h (3 Bft) W 267 ° 1 min 0,000 mm 3,8 UV-I 867 W/m² -2,2 °C 2,9 °C 27,4 km/h (4 Bft)
13.03.2019 12:14 6,3 °C 55 % 1013,0 hPa 0,0 mm 19,4 km/h (3 Bft) W-NW 282 ° 1 min 0,000 mm 3,1 UV-I 877 W/m² -2,1 °C 2,8 °C 30,6 km/h (5 Bft)
13.03.2019 12:15 6,4 °C 58 % 1013,0 hPa 0,0 mm 17,5 km/h (3 Bft) W-NW 282 ° 1 min 0,000 mm 3,6 UV-I 868 W/m² -1,2 °C 3,1 °C 24,1 km/h (4 Bft)
13.03.2019 12:16 6,1 °C 61 % 1012,9 hPa 0,0 mm 15,7 km/h (3 Bft) NW 323 ° 1 min 0,000 mm 3,8 UV-I 868 W/m² -0,8 °C 3,0 °C 22,5 km/h (4 Bft)
13.03.2019 12:17 5,8 °C 63 % 1012,9 hPa 0,0 mm 13,3 km/h (3 Bft) N-NW 327 ° 1 min 0,000 mm 2,8 UV-I 868 W/m² -0,7 °C 3,0 °C 20,9 km/h (4 Bft)
13.03.2019 12:18 5,6 °C 64 % 1013,0 hPa 0,0 mm 13,6 km/h (3 Bft) W-NW 303 ° 1 min 0,000 mm 3,8 UV-I 882 W/m² -0,7 °C 2,7 °C 29,0 km/h (5 Bft)
13.03.2019 12:19 5,3 °C 66 % 1013,0 hPa 0,0 mm 20,5 km/h (4 Bft) NW 314 ° 1 min 0,000 mm 2,0 UV-I 882 W/m² -0,5 °C 1,4 °C 29,0 km/h (5 Bft)
13.03.2019 12:20 4,9 °C 68 % 1013,1 hPa 0,0 mm 17,7 km/h (3 Bft) NW 310 ° 1 min 0,000 mm 2,4 UV-I 882 W/m² -0,5 °C 1,2 °C 24,1 km/h (4 Bft)
13.03.2019 12:21 4,6 °C 69 % 1013,0 hPa 0,0 mm 15,2 km/h (3 Bft) NW 304 ° 1 min 0,000 mm 2,4 UV-I 882 W/m² -0,6 °C 1,2 °C 20,9 km/h (4 Bft)
13.03.2019 12:22 4,4 °C 70 % 1012,9 hPa 0,0 mm 15,6 km/h (3 Bft) W 274 ° 1 min 0,000 mm 3,7 UV-I 882 W/m² -0,6 °C 0,9 °C 22,5 km/h (4 Bft)
13.03.2019 12:23 4,3 °C 70 % 1012,9 hPa 0,0 mm 14,8 km/h (3 Bft) W-SW 257 ° 1 min 0,000 mm 3,0 UV-I 882 W/m² -0,7 °C 0,9 °C 22,5 km/h (4 Bft)
13.03.2019 12:24 4,2 °C 72 % 1012,9 hPa 0,0 mm 16,0 km/h (3 Bft) NW 324 ° 1 min 0,000 mm 3,8 UV-I 882 W/m² -0,4 °C 0,6 °C 20,9 km/h (4 Bft)
13.03.2019 12:25 4,1 °C 72 % 1012,9 hPa 0,0 mm 11,3 km/h (2 Bft) NW 323 ° 1 min 0,000 mm 1,8 UV-I 882 W/m² -0,5 °C 1,3 °C 17,7 km/h (3 Bft)
13.03.2019 12:26 3,9 °C 73 % 1012,9 hPa 0,0 mm 11,2 km/h (2 Bft) W-NW 284 ° 0 min 0,000 mm 1,9 UV-I 214 W/m² -0,5 °C 1,1 °C 17,7 km/h (3 Bft)
13.03.2019 12:27 3,8 °C 74 % 1012,9 hPa 0,0 mm 12,2 km/h (2 Bft) NW 313 ° 0 min 0,000 mm 3,0 UV-I 142 W/m² -0,4 °C 0,8 °C 20,9 km/h (4 Bft)
13.03.2019 12:28 3,8 °C 74 % 1012,9 hPa 0,0 mm 17,1 km/h (3 Bft) W 267 ° 0 min 0,000 mm 3,7 UV-I 142 W/m² -0,4 °C -0,1 °C 25,7 km/h (4 Bft)
13.03.2019 12:29 3,8 °C 74 % 1012,9 hPa 0,0 mm 9,6 km/h (2 Bft) W-NW 300 ° 0 min 0,000 mm 1,8 UV-I 142 W/m² -0,4 °C 1,3 °C 14,5 km/h (3 Bft)
13.03.2019 12:30 3,9 °C 75 % 1012,8 hPa 0,0 mm 6,9 km/h (2 Bft) W-NW 302 ° 0 min 0,000 mm 3,4 UV-I 142 W/m² -0,1 °C 2,2 °C 12,9 km/h (3 Bft)
13.03.2019 12:31 4,0 °C 73 % 1012,9 hPa 0,0 mm 16,2 km/h (3 Bft) W 269 ° 0 min 0,000 mm 1,9 UV-I 156 W/m² -0,4 °C 0,3 °C 22,5 km/h (4 Bft)
13.03.2019 12:32 4,2 °C 72 % 1012,9 hPa 0,0 mm 19,7 km/h (3 Bft) W 259 ° 0 min 0,000 mm 3,0 UV-I 156 W/m² -0,4 °C 0,1 °C 27,4 km/h (4 Bft)
13.03.2019 12:33 4,3 °C 71 % 1012,8 hPa 0,0 mm 15,1 km/h (3 Bft) W-NW 298 ° 0 min 0,000 mm 3,0 UV-I 432 W/m² -0,5 °C 0,9 °C 20,9 km/h (4 Bft)
13.03.2019 12:34 4,3 °C 70 % 1012,8 hPa 0,0 mm 17,7 km/h (3 Bft) W 279 ° 0 min 0,000 mm 1,9 UV-I 432 W/m² -0,7 °C 0,5 °C 22,5 km/h (4 Bft)
13.03.2019 12:35 4,3 °C 68 % 1012,9 hPa 0,0 mm 19,0 km/h (3 Bft) W 272 ° 0 min 0,000 mm 2,4 UV-I 432 W/m² -1,1 °C 0,3 °C 32,2 km/h (5 Bft)
13.03.2019 12:36 4,3 °C 65 % 1012,9 hPa 0,0 mm 23,4 km/h (4 Bft) W 262 ° 0 min 0,000 mm 1,8 UV-I 156 W/m² -1,7 °C -0,2 °C 35,4 km/h (5 Bft)
13.03.2019 12:37 4,4 °C 64 % 1012,8 hPa 0,0 mm 24,7 km/h (4 Bft) W 274 ° 0 min 0,000 mm 1,8 UV-I 158 W/m² -1,8 °C -0,2 °C 35,4 km/h (5 Bft)
13.03.2019 12:38 4,3 °C 65 % 1012,7 hPa 0,0 mm 24,1 km/h (4 Bft) NW 309 ° 0 min 0,000 mm 1,8 UV-I 181 W/m² -1,7 °C -0,3 °C 33,8 km/h (5 Bft)
13.03.2019 12:39 4,3 °C 62 % 1013,0 hPa 0,0 mm 25,9 km/h (4 Bft) W-NW 297 ° 0 min 0,000 mm 1,8 UV-I 193 W/m² -2,3 °C -0,5 °C 33,8 km/h (5 Bft)
13.03.2019 12:40 4,3 °C 62 % 1012,8 hPa 0,0 mm 17,4 km/h (3 Bft) SW 216 ° 0 min 0,000 mm 2,0 UV-I 260 W/m² -2,3 °C 0,5 °C 25,7 km/h (4 Bft)
13.03.2019 12:41 4,3 °C 61 % 1012,9 hPa 0,0 mm 11,1 km/h (2 Bft) S-SW 195 ° 0 min 0,000 mm 2,0 UV-I 285 W/m² -2,5 °C 1,6 °C 22,5 km/h (4 Bft)
13.03.2019 12:42 4,2 °C 60 % 1012,9 hPa 0,0 mm 19,1 km/h (3 Bft) W-NW 288 ° 0 min 0,000 mm 1,8 UV-I 237 W/m² -2,9 °C 0,2 °C 29,0 km/h (5 Bft)
13.03.2019 12:43 4,2 °C 61 % 1012,9 hPa 0,0 mm 23,3 km/h (4 Bft) W-SW 249 ° 0 min 0,000 mm 1,7 UV-I 223 W/m² -2,6 °C -0,3 °C 35,4 km/h (5 Bft)
13.03.2019 12:44 4,1 °C 61 % 1013,0 hPa 0,0 mm 14,8 km/h (3 Bft) W 270 ° 0 min 0,000 mm 1,6 UV-I 214 W/m² -2,7 °C 0,7 °C 20,9 km/h (4 Bft)
13.03.2019 12:45 4,1 °C 62 % 1013,1 hPa 0,0 mm 18,1 km/h (3 Bft) W-SW 239 ° 0 min 0,000 mm 1,6 UV-I 230 W/m² -2,5 °C 0,2 °C 29,0 km/h (5 Bft)
13.03.2019 12:46 4,0 °C 61 % 1013,1 hPa 0,0 mm 15,8 km/h (3 Bft) SW 232 ° 0 min 0,000 mm 1,5 UV-I 223 W/m² -2,8 °C 0,4 °C 29,0 km/h (5 Bft)
13.03.2019 12:47 3,9 °C 63 % 1013,1 hPa 0,0 mm 24,1 km/h (4 Bft) W 265 ° 0 min 0,000 mm 1,4 UV-I 207 W/m² -2,5 °C -0,8 °C 33,8 km/h (5 Bft)
13.03.2019 12:48 3,8 °C 63 % 1013,1 hPa 0,0 mm 24,5 km/h (4 Bft) W-SW 250 ° 0 min 0,000 mm 1,4 UV-I 211 W/m² -2,6 °C -1,0 °C 40,2 km/h (6 Bft)
13.03.2019 12:49 3,7 °C 64 % 1013,2 hPa 0,0 mm 24,8 km/h (4 Bft) W-SW 250 ° 0 min 0,000 mm 1,5 UV-I 239 W/m² -2,5 °C -1,1 °C 37,0 km/h (5 Bft)
13.03.2019 12:50 3,6 °C 68 % 1013,2 hPa 0,0 mm 23,1 km/h (4 Bft) SW 229 ° 0 min 0,000 mm 1,6 UV-I 271 W/m² -1,7 °C -1,1 °C 33,8 km/h (5 Bft)
13.03.2019 12:51 3,3 °C 69 % 1013,3 hPa 0,0 mm 20,0 km/h (4 Bft) W-SW 256 ° 0 min 0,000 mm 1,7 UV-I 283 W/m² -1,8 °C -1,1 °C 30,6 km/h (5 Bft)
13.03.2019 12:52 3,2 °C 70 % 1013,3 hPa 0,0 mm 14,2 km/h (3 Bft) W-SW 240 ° 0 min 0,000 mm 1,7 UV-I 257 W/m² -1,7 °C -0,3 °C 22,5 km/h (4 Bft)
13.03.2019 12:53 3,1 °C 70 % 1013,3 hPa 0,0 mm 19,5 km/h (3 Bft) W-SW 257 ° 0 min 0,000 mm 1,9 UV-I 253 W/m² -1,8 °C -1,3 °C 29,0 km/h (5 Bft)
13.03.2019 12:54 3,1 °C 71 % 1013,3 hPa 0,0 mm 25,7 km/h (4 Bft) W-SW 250 ° 0 min 0,000 mm 1,7 UV-I 232 W/m² -1,6 °C -2,0 °C 35,4 km/h (5 Bft)
13.03.2019 12:55 3,0 °C 72 % 1013,4 hPa 0,0 mm 25,5 km/h (4 Bft) W 274 ° 0 min 0,000 mm 1,6 UV-I 218 W/m² -1,5 °C -2,1 °C 41,8 km/h (6 Bft)
13.03.2019 12:56 2,9 °C 72 % 1013,3 hPa 0,0 mm 18,0 km/h (3 Bft) W-NW 286 ° 0 min 0,000 mm 1,4 UV-I 200 W/m² -1,6 °C -1,3 °C 27,4 km/h (4 Bft)
13.03.2019 12:57 2,8 °C 73 % 1013,4 hPa 0,0 mm 14,3 km/h (3 Bft) W 264 ° 0 min 0,000 mm 1,2 UV-I 179 W/m² -1,5 °C -0,8 °C 19,3 km/h (3 Bft)
13.03.2019 12:58 2,8 °C 74 % 1013,4 hPa 0,0 mm 14,6 km/h (3 Bft) S-SW 207 ° 0 min 0,000 mm 1,1 UV-I 190 W/m² -1,4 °C -0,9 °C 22,5 km/h (4 Bft)
13.03.2019 12:59 2,6 °C 75 % 1013,5 hPa 0,0 mm 24,5 km/h (4 Bft) W-SW 250 ° 0 min 0,000 mm 1,1 UV-I 195 W/m² -1,4 °C -2,5 °C 37,0 km/h (5 Bft)
13.03.2019 13:00 2,5 °C 76 % 1013,4 hPa 0,0 mm 30,0 km/h (5 Bft) W 279 ° 0 min 0,000 mm 1,0 UV-I 190 W/m² -1,3 °C -3,2 °C 51,5 km/h (7 Bft)
13.03.2019 13:01 2,3 °C 77 % 1013,5 hPa 0,0 mm 18,1 km/h (3 Bft) W 277 ° 0 min 0,229 mm 0,8 UV-I 153 W/m² -1,3 °C -2,1 °C 25,7 km/h (4 Bft)
13.03.2019 13:02 2,2 °C 79 % 1013,4 hPa 0,0 mm 18,9 km/h (3 Bft) SW 232 ° 0 min 0,000 mm 0,7 UV-I 127 W/m² -1,1 °C -2,3 °C 27,4 km/h (4 Bft)
13.03.2019 13:03 1,9 °C 80 % 1013,4 hPa 0,0 mm 16,9 km/h (3 Bft) W 263 ° 0 min 0,000 mm 0,9 UV-I 151 W/m² -1,2 °C -2,4 °C 24,1 km/h (4 Bft)
13.03.2019 13:04 1,7 °C 81 % 1013,4 hPa 0,0 mm 9,1 km/h (2 Bft) W 275 ° 0 min 0,000 mm 1,2 UV-I 258 W/m² -1,2 °C -1,1 °C 14,5 km/h (3 Bft)
13.03.2019 13:05 1,6 °C 82 % 1013,3 hPa 0,0 mm 14,0 km/h (3 Bft) W-SW 250 ° 0 min 0,000 mm 2,2 UV-I 258 W/m² -1,1 °C -2,3 °C 20,9 km/h (4 Bft)
13.03.2019 13:06 1,6 °C 84 % 1013,2 hPa 0,0 mm 12,2 km/h (2 Bft) S-SW 195 ° 0 min 0,000 mm 2,5 UV-I 383 W/m² -0,8 °C -1,9 °C 20,9 km/h (4 Bft)
13.03.2019 13:07 1,4 °C 85 % 1013,1 hPa 0,0 mm 12,3 km/h (3 Bft) W-SW 246 ° 0 min 0,000 mm 2,7 UV-I 383 W/m² -0,8 °C -2,2 °C 22,5 km/h (4 Bft)
13.03.2019 13:08 1,5 °C 85 % 1013,1 hPa 0,0 mm 16,9 km/h (3 Bft) W-SW 254 ° 0 min 0,000 mm 2,6 UV-I 383 W/m² -0,7 °C -2,9 °C 24,1 km/h (4 Bft)
13.03.2019 13:09 1,6 °C 86 % 1013,1 hPa 0,0 mm 14,1 km/h (3 Bft) SW 225 ° 0 min 0,000 mm 2,4 UV-I 401 W/m² -0,5 °C -2,3 °C 22,5 km/h (4 Bft)
13.03.2019 13:10 1,6 °C 86 % 1013,0 hPa 0,0 mm 16,6 km/h (3 Bft) W-SW 252 ° 0 min 0,000 mm 2,8 UV-I 429 W/m² -0,5 °C -2,7 °C 24,1 km/h (4 Bft)
13.03.2019 13:11 1,7 °C 86 % 1013,0 hPa 0,0 mm 15,6 km/h (3 Bft) W-SW 250 ° 0 min 0,000 mm 2,8 UV-I 443 W/m² -0,4 °C -2,4 °C 24,1 km/h (4 Bft)
13.03.2019 13:12 1,9 °C 86 % 1013,0 hPa 0,0 mm 15,1 km/h (3 Bft) W-NW 294 ° 0 min 0,000 mm 3,1 UV-I 443 W/m² -0,2 °C -2,1 °C 19,3 km/h (3 Bft)
13.03.2019 13:13 2,1 °C 86 % 1013,0 hPa 0,0 mm 13,7 km/h (3 Bft) SW 225 ° 1 min 0,000 mm 3,6 UV-I 731 W/m² 0,0 °C -1,6 °C 20,9 km/h (4 Bft)
13.03.2019 13:14 2,2 °C 85 % 1012,9 hPa 0,0 mm 17,1 km/h (3 Bft) W-SW 250 ° 1 min 0,000 mm 3,5 UV-I 707 W/m² -0,1 °C -2,0 °C 22,5 km/h (4 Bft)
13.03.2019 13:15 2,3 °C 86 % 1012,9 hPa 0,0 mm 18,7 km/h (3 Bft) W-SW 241 ° 1 min 0,000 mm 3,5 UV-I 687 W/m² 0,2 °C -2,2 °C 27,4 km/h (4 Bft)
13.03.2019 13:16 2,3 °C 84 % 1012,8 hPa 0,0 mm 15,1 km/h (3 Bft) W 267 ° 1 min 0,000 mm 3,4 UV-I 668 W/m² -0,1 °C -1,6 °C 25,7 km/h (4 Bft)
13.03.2019 13:17 2,4 °C 84 % 1012,8 hPa 0,0 mm 11,8 km/h (2 Bft) W 271 ° 1 min 0,000 mm 3,4 UV-I 664 W/m² -0,0 °C -0,9 °C 19,3 km/h (3 Bft)
13.03.2019 13:18 2,5 °C 84 % 1012,8 hPa 0,0 mm 14,6 km/h (3 Bft) W 265 ° 1 min 0,000 mm 3,4 UV-I 663 W/m² 0,1 °C -1,3 °C 22,5 km/h (4 Bft)
13.03.2019 13:19 2,7 °C 83 % 1012,8 hPa 0,0 mm 12,2 km/h (2 Bft) W-SW 253 ° 1 min 0,000 mm 3,4 UV-I 659 W/m² 0,1 °C -0,6 °C 19,3 km/h (3 Bft)
13.03.2019 13:20 2,8 °C 83 % 1012,7 hPa 0,0 mm 16,3 km/h (3 Bft) S-SW 203 ° 0 min 0,000 mm 3,4 UV-I 599 W/m² 0,2 °C -1,2 °C 25,7 km/h (4 Bft)
13.03.2019 13:21 2,8 °C 82 % 1012,7 hPa 0,0 mm 16,6 km/h (3 Bft) W-SW 250 ° 1 min 0,000 mm 3,4 UV-I 663 W/m² 0,0 °C -1,2 °C 20,9 km/h (4 Bft)
13.03.2019 13:22 2,9 °C 81 % 1012,7 hPa 0,0 mm 14,2 km/h (3 Bft) SW 218 ° 1 min 0,000 mm 3,4 UV-I 661 W/m² -0,0 °C -0,7 °C 20,9 km/h (4 Bft)
13.03.2019 13:23 3,0 °C 81 % 1012,7 hPa 0,0 mm 13,3 km/h (3 Bft) W-SW 254 ° 1 min 0,000 mm 3,4 UV-I 663 W/m² 0,1 °C -0,4 °C 20,9 km/h (4 Bft)
13.03.2019 13:24 3,2 °C 80 % 1012,7 hPa 0,0 mm 15,0 km/h (3 Bft) W 279 ° 1 min 0,000 mm 3,4 UV-I 663 W/m² 0,1 °C -0,5 °C 24,1 km/h (4 Bft)
13.03.2019 13:25 3,3 °C 80 % 1012,7 hPa 0,0 mm 4,1 km/h (1 Bft) W 267 ° 1 min 0,000 mm 3,4 UV-I 659 W/m² 0,2 °C 3,3 °C 12,9 km/h (3 Bft)
13.03.2019 13:26 3,4 °C 80 % 1012,7 hPa 0,0 mm 10,3 km/h (2 Bft) W 263 ° 1 min 0,000 mm 3,4 UV-I 656 W/m² 0,3 °C 0,7 °C 29,0 km/h (5 Bft)
13.03.2019 13:27 3,6 °C 79 % 1012,7 hPa 0,0 mm 22,5 km/h (4 Bft) W 281 ° 1 min 0,000 mm 3,4 UV-I 663 W/m² 0,3 °C -1,0 °C 32,2 km/h (5 Bft)
13.03.2019 13:28 3,6 °C 77 % 1012,7 hPa 0,0 mm 24,1 km/h (4 Bft) SW 236 ° 1 min 0,000 mm 3,4 UV-I 666 W/m² -0,0 °C -1,2 °C 40,2 km/h (6 Bft)
13.03.2019 13:29 3,6 °C 77 % 1012,7 hPa 0,0 mm 21,2 km/h (4 Bft) W-NW 298 ° 1 min 0,000 mm 3,4 UV-I 664 W/m² -0,0 °C -0,9 °C 30,6 km/h (5 Bft)
13.03.2019 13:30 3,7 °C 76 % 1012,7 hPa 0,0 mm 17,2 km/h (3 Bft) W-NW 293 ° 1 min 0,000 mm 3,4 UV-I 675 W/m² -0,1 °C -0,2 °C 24,1 km/h (4 Bft)
13.03.2019 13:31 3,7 °C 76 % 1012,6 hPa 0,0 mm 15,4 km/h (3 Bft) W-SW 242 ° 1 min 0,000 mm 3,4 UV-I 680 W/m² -0,1 °C 0,1 °C 27,4 km/h (4 Bft)
13.03.2019 13:32 3,8 °C 77 % 1012,6 hPa 0,0 mm 17,1 km/h (3 Bft) S-SW 192 ° 1 min 0,000 mm 3,4 UV-I 700 W/m² 0,1 °C -0,1 °C 29,0 km/h (5 Bft)
13.03.2019 13:33 3,9 °C 76 % 1012,6 hPa 0,0 mm 17,8 km/h (3 Bft) W-NW 288 ° 1 min 0,000 mm 3,4 UV-I 735 W/m² 0,1 °C -0,0 °C 22,5 km/h (4 Bft)
13.03.2019 13:34 3,9 °C 75 % 1012,7 hPa 0,0 mm 21,5 km/h (4 Bft) W 265 ° 1 min 0,000 mm 3,6 UV-I 789 W/m² -0,1 °C -0,5 °C 33,8 km/h (5 Bft)
13.03.2019 13:35 3,9 °C 75 % 1012,7 hPa 0,0 mm 20,7 km/h (4 Bft) W 279 ° 1 min 0,000 mm 3,7 UV-I 805 W/m² -0,1 °C -0,4 °C 30,6 km/h (5 Bft)
13.03.2019 13:36 4,1 °C 76 % 1012,6 hPa 0,0 mm 16,2 km/h (3 Bft) W 266 ° 1 min 0,000 mm 3,6 UV-I 756 W/m² 0,3 °C 0,5 °C 22,5 km/h (4 Bft)
13.03.2019 13:37 4,3 °C 76 % 1012,7 hPa 0,0 mm 19,4 km/h (3 Bft) W 265 ° 1 min 0,000 mm 3,5 UV-I 722 W/m² 0,5 °C 0,3 °C 25,7 km/h (4 Bft)
13.03.2019 13:38 4,2 °C 74 % 1012,7 hPa 0,0 mm 16,0 km/h (3 Bft) NW 306 ° 1 min 0,000 mm 3,4 UV-I 671 W/m² -0,0 °C 0,6 °C 22,5 km/h (4 Bft)
13.03.2019 13:39 4,3 °C 75 % 1012,7 hPa 0,0 mm 14,7 km/h (3 Bft) W-SW 252 ° 1 min 0,000 mm 3,4 UV-I 680 W/m² 0,3 °C 0,9 °C 25,7 km/h (4 Bft)
13.03.2019 13:40 4,3 °C 75 % 1012,6 hPa 0,0 mm 18,4 km/h (3 Bft) W 276 ° 1 min 0,000 mm 3,4 UV-I 673 W/m² 0,3 °C 0,4 °C 24,1 km/h (4 Bft)
13.03.2019 13:41 4,3 °C 74 % 1012,5 hPa 0,0 mm 14,7 km/h (3 Bft) W-SW 254 ° 1 min 0,000 mm 3,3 UV-I 666 W/m² 0,1 °C 0,9 °C 20,9 km/h (4 Bft)
13.03.2019 13:42 4,2 °C 74 % 1012,5 hPa 0,0 mm 15,8 km/h (3 Bft) W-NW 286 ° 1 min 0,000 mm 3,3 UV-I 663 W/m² -0,0 °C 0,6 °C 27,4 km/h (4 Bft)
13.03.2019 13:43 4,3 °C 75 % 1012,5 hPa 0,0 mm 18,1 km/h (3 Bft) W-SW 257 ° 1 min 0,000 mm 3,3 UV-I 666 W/m² 0,3 °C 0,4 °C 25,7 km/h (4 Bft)
13.03.2019 13:44 4,2 °C 73 % 1012,5 hPa 0,0 mm 16,6 km/h (3 Bft) W 270 ° 1 min 0,000 mm 3,3 UV-I 661 W/m² -0,2 °C 0,5 °C 22,5 km/h (4 Bft)
13.03.2019 13:45 4,2 °C 73 % 1012,6 hPa 0,0 mm 22,7 km/h (4 Bft) W-NW 295 ° 1 min 0,000 mm 3,2 UV-I 671 W/m² -0,2 °C -0,3 °C 33,8 km/h (5 Bft)
13.03.2019 13:46 4,2 °C 71 % 1012,5 hPa 0,0 mm 21,1 km/h (4 Bft) W-NW 287 ° 1 min 0,000 mm 2,8 UV-I 671 W/m² -0,6 °C -0,1 °C 25,7 km/h (4 Bft)
13.03.2019 13:47 4,3 °C 70 % 1012,5 hPa 0,0 mm 21,1 km/h (4 Bft) W 273 ° 1 min 0,000 mm 3,0 UV-I 601 W/m² -0,7 °C 0,0 °C 29,0 km/h (5 Bft)
13.03.2019 13:48 4,3 °C 71 % 1012,5 hPa 0,0 mm 13,5 km/h (3 Bft) W 273 ° 0 min 0,000 mm 3,0 UV-I 589 W/m² -0,5 °C 1,1 °C 25,7 km/h (4 Bft)
13.03.2019 13:49 4,3 °C 69 % 1012,4 hPa 0,0 mm 18,0 km/h (3 Bft) W-NW 282 ° 0 min 0,000 mm 3,1 UV-I 589 W/m² -0,9 °C 0,4 °C 29,0 km/h (5 Bft)
13.03.2019 13:50 4,3 °C 70 % 1012,2 hPa 0,0 mm 17,6 km/h (3 Bft) W-NW 300 ° 0 min 0,000 mm 3,1 UV-I 589 W/m² -0,7 °C 0,5 °C 25,7 km/h (4 Bft)
13.03.2019 13:51 4,4 °C 69 % 1012,2 hPa 0,0 mm 16,6 km/h (3 Bft) W-NW 288 ° 1 min 0,000 mm 3,1 UV-I 642 W/m² -0,8 °C 0,8 °C 27,4 km/h (4 Bft)
13.03.2019 13:52 4,4 °C 69 % 1012,2 hPa 0,0 mm 16,0 km/h (3 Bft) SW 235 ° 1 min 0,000 mm 3,1 UV-I 640 W/m² -0,8 °C 0,9 °C 25,7 km/h (4 Bft)
13.03.2019 13:53 4,6 °C 70 % 1012,2 hPa 0,0 mm 15,2 km/h (3 Bft) W 267 ° 1 min 0,000 mm 3,1 UV-I 635 W/m² -0,4 °C 1,2 °C 22,5 km/h (4 Bft)
13.03.2019 13:54 4,7 °C 68 % 1012,3 hPa 0,0 mm 17,2 km/h (3 Bft) W 277 ° 1 min 0,000 mm 3,1 UV-I 633 W/m² -0,7 °C 1,1 °C 22,5 km/h (4 Bft)
13.03.2019 13:55 4,8 °C 68 % 1012,2 hPa 0,0 mm 15,8 km/h (3 Bft) W-NW 292 ° 1 min 0,000 mm 3,1 UV-I 629 W/m² -0,6 °C 1,4 °C 25,7 km/h (4 Bft)
13.03.2019 13:56 4,9 °C 67 % 1012,2 hPa 0,0 mm 15,6 km/h (3 Bft) W-SW 252 ° 1 min 0,000 mm 3,1 UV-I 629 W/m² -0,7 °C 1,5 °C 24,1 km/h (4 Bft)
13.03.2019 13:57 4,8 °C 65 % 1012,1 hPa 0,0 mm 23,3 km/h (4 Bft) S 184 ° 1 min 0,000 mm 3,1 UV-I 621 W/m² -1,2 °C 0,4 °C 35,4 km/h (5 Bft)
13.03.2019 13:58 4,7 °C 62 % 1012,1 hPa 0,0 mm 17,1 km/h (3 Bft) S-SW 207 ° 1 min 0,000 mm 3,1 UV-I 619 W/m² -1,9 °C 1,1 °C 25,7 km/h (4 Bft)
13.03.2019 13:59 4,6 °C 63 % 1012,1 hPa 0,0 mm 16,4 km/h (3 Bft) W-SW 252 ° 1 min 0,000 mm 3,1 UV-I 622 W/m² -1,8 °C 1,0 °C 29,0 km/h (5 Bft)
13.03.2019 14:00 4,6 °C 65 % 1012,0 hPa 0,0 mm 15,8 km/h (3 Bft) W-NW 300 ° 1 min 0,254 mm 3,1 UV-I 622 W/m² -1,4 °C 1,1 °C 20,9 km/h (4 Bft)
13.03.2019 14:01 4,7 °C 65 % 1012,1 hPa 0,0 mm 7,4 km/h (2 Bft) W-SW 252 ° 1 min 0,000 mm 3,0 UV-I 621 W/m² -1,3 °C 2,9 °C 12,9 km/h (3 Bft)
13.03.2019 14:02 4,8 °C 65 % 1012,0 hPa 0,0 mm 10,4 km/h (2 Bft) W 268 ° 1 min 0,000 mm 3,0 UV-I 621 W/m² -1,2 °C 2,3 °C 17,7 km/h (3 Bft)
13.03.2019 14:03 4,8 °C 65 % 1012,1 hPa 0,0 mm 20,9 km/h (4 Bft) W 277 ° 1 min 0,000 mm 3,0 UV-I 621 W/m² -1,2 °C 0,7 °C 29,0 km/h (5 Bft)
13.03.2019 14:04 4,9 °C 64 % 1012,0 hPa 0,0 mm 11,0 km/h (2 Bft) NW 319 ° 1 min 0,000 mm 3,0 UV-I 624 W/m² -1,3 °C 2,3 °C 17,7 km/h (3 Bft)
13.03.2019 14:05 4,9 °C 64 % 1012,0 hPa 0,0 mm 8,1 km/h (2 Bft) W-NW 291 ° 1 min 0,000 mm 3,0 UV-I 626 W/m² -1,3 °C 3,0 °C 14,5 km/h (3 Bft)
13.03.2019 14:06 5,1 °C 64 % 1012,0 hPa 0,0 mm 14,0 km/h (3 Bft) W-NW 282 ° 1 min 0,000 mm 3,0 UV-I 633 W/m² -1,1 °C 2,0 °C 20,9 km/h (4 Bft)
13.03.2019 14:07 5,1 °C 62 % 1012,1 hPa 0,0 mm 16,2 km/h (3 Bft) W-NW 300 ° 1 min 0,000 mm 3,0 UV-I 631 W/m² -1,6 °C 1,7 °C 22,5 km/h (4 Bft)
13.03.2019 14:08 5,1 °C 61 % 1012,1 hPa 0,0 mm 23,9 km/h (4 Bft) W-SW 249 ° 0 min 0,000 mm 2,9 UV-I 599 W/m² -1,8 °C 0,8 °C 32,2 km/h (5 Bft)
13.03.2019 14:09 5,1 °C 60 % 1012,0 hPa 0,0 mm 20,5 km/h (4 Bft) W 280 ° 0 min 0,000 mm 2,8 UV-I 543 W/m² -2,0 °C 1,1 °C 32,2 km/h (5 Bft)
13.03.2019 14:10 5,0 °C 59 % 1012,2 hPa 0,0 mm 26,0 km/h (4 Bft) NW 319 ° 0 min 0,000 mm 2,6 UV-I 564 W/m² -2,3 °C 0,4 °C 40,2 km/h (6 Bft)
13.03.2019 14:11 4,9 °C 60 % 1012,0 hPa 0,0 mm 22,2 km/h (4 Bft) W 260 ° 0 min 0,000 mm 2,6 UV-I 564 W/m² -2,2 °C 0,7 °C 33,8 km/h (5 Bft)
13.03.2019 14:12 4,9 °C 59 % 1012,0 hPa 0,0 mm 19,3 km/h (3 Bft) W 267 ° 0 min 0,000 mm 2,5 UV-I 497 W/m² -2,4 °C 1,0 °C 22,5 km/h (4 Bft)
13.03.2019 14:13 4,9 °C 59 % 1012,0 hPa 0,0 mm 19,4 km/h (3 Bft) W 271 ° 0 min 0,000 mm 2,4 UV-I 459 W/m² -2,4 °C 1,0 °C 25,7 km/h (4 Bft)
13.03.2019 14:14 4,9 °C 59 % 1012,0 hPa 0,0 mm 19,7 km/h (3 Bft) W 267 ° 0 min 0,000 mm 2,4 UV-I 446 W/m² -2,4 °C 1,0 °C 30,6 km/h (5 Bft)
13.03.2019 14:15 4,9 °C 58 % 1012,0 hPa 0,0 mm 18,2 km/h (3 Bft) W 265 ° 0 min 0,000 mm 2,2 UV-I 401 W/m² -2,7 °C 1,2 °C 22,5 km/h (4 Bft)
13.03.2019 14:16 4,8 °C 59 % 1012,1 hPa 0,0 mm 28,2 km/h (4 Bft) W-SW 237 ° 0 min 0,000 mm 2,3 UV-I 424 W/m² -2,5 °C -0,0 °C 43,5 km/h (6 Bft)
13.03.2019 14:17 4,9 °C 59 % 1012,0 hPa 0,0 mm 16,3 km/h (3 Bft) W-SW 253 ° 0 min 0,000 mm 2,2 UV-I 385 W/m² -2,4 °C 1,4 °C 22,5 km/h (4 Bft)
13.03.2019 14:18 4,9 °C 59 % 1012,1 hPa 0,0 mm 23,3 km/h (4 Bft) W 271 ° 0 min 0,000 mm 2,0 UV-I 318 W/m² -2,4 °C 0,6 °C 30,6 km/h (5 Bft)
13.03.2019 14:19 4,9 °C 57 % 1012,2 hPa 0,0 mm 17,8 km/h (3 Bft) S-SW 205 ° 0 min 0,000 mm 1,8 UV-I 262 W/m² -2,9 °C 1,2 °C 33,8 km/h (5 Bft)
13.03.2019 14:20 4,8 °C 58 % 1012,0 hPa 0,0 mm 14,8 km/h (3 Bft) SW 223 ° 0 min 0,000 mm 1,7 UV-I 218 W/m² -2,7 °C 1,5 °C 22,5 km/h (4 Bft)
13.03.2019 14:21 4,7 °C 58 % 1012,0 hPa 0,0 mm 14,1 km/h (3 Bft) W-SW 238 ° 0 min 0,000 mm 1,7 UV-I 237 W/m² -2,8 °C 1,5 °C 20,9 km/h (4 Bft)
13.03.2019 14:22 4,7 °C 58 % 1012,1 hPa 0,0 mm 13,8 km/h (3 Bft) W-SW 250 ° 0 min 0,000 mm 1,6 UV-I 221 W/m² -2,8 °C 1,6 °C 22,5 km/h (4 Bft)
13.03.2019 14:23 4,6 °C 59 % 1012,1 hPa 0,0 mm 16,6 km/h (3 Bft) W 263 ° 0 min 0,000 mm 1,6 UV-I 209 W/m² -2,7 °C 1,0 °C 24,1 km/h (4 Bft)
13.03.2019 14:24 4,7 °C 60 % 1012,1 hPa 0,0 mm 11,3 km/h (2 Bft) NW 319 ° 0 min 0,000 mm 1,9 UV-I 267 W/m² -2,4 °C 2,0 °C 16,1 km/h (3 Bft)
13.03.2019 14:25 4,6 °C 60 % 1012,1 hPa 0,0 mm 25,6 km/h (4 Bft) NW 305 ° 0 min 0,000 mm 2,4 UV-I 267 W/m² -2,5 °C -0,1 °C 41,8 km/h (6 Bft)
13.03.2019 14:26 4,6 °C 60 % 1012,1 hPa 0,0 mm 22,1 km/h (4 Bft) W 265 ° 1 min 0,000 mm 2,7 UV-I 679 W/m² -2,5 °C 0,3 °C 32,2 km/h (5 Bft)
13.03.2019 14:27 4,6 °C 60 % 1012,1 hPa 0,0 mm 19,6 km/h (3 Bft) W-SW 252 ° 1 min 0,000 mm 2,8 UV-I 615 W/m² -2,5 °C 0,6 °C 29,0 km/h (5 Bft)
13.03.2019 14:28 4,7 °C 61 % 1012,1 hPa 0,0 mm 16,7 km/h (3 Bft) W 262 ° 0 min 0,000 mm 2,8 UV-I 598 W/m² -2,2 °C 1,1 °C 24,1 km/h (4 Bft)
13.03.2019 14:29 4,8 °C 62 % 1012,2 hPa 0,0 mm 13,5 km/h (3 Bft) W-NW 288 ° 0 min 0,000 mm 2,8 UV-I 598 W/m² -1,9 °C 1,7 °C 20,9 km/h (4 Bft)
13.03.2019 14:30 4,8 °C 61 % 1012,2 hPa 0,0 mm 13,3 km/h (3 Bft) W 260 ° 0 min 0,000 mm 2,8 UV-I 591 W/m² -2,1 °C 1,8 °C 19,3 km/h (3 Bft)
13.03.2019 14:31 4,8 °C 62 % 1012,2 hPa 0,0 mm 16,4 km/h (3 Bft) NW 319 ° 0 min 0,000 mm 2,7 UV-I 584 W/m² -1,9 °C 1,3 °C 29,0 km/h (5 Bft)
13.03.2019 14:32 4,8 °C 63 % 1012,3 hPa 0,0 mm 17,9 km/h (3 Bft) W 267 ° 0 min 0,000 mm 2,7 UV-I 582 W/m² -1,6 °C 1,1 °C 30,6 km/h (5 Bft)
13.03.2019 14:33 4,7 °C 63 % 1012,3 hPa 0,0 mm 17,2 km/h (3 Bft) W 261 ° 0 min 0,000 mm 2,6 UV-I 555 W/m² -1,7 °C 1,1 °C 24,1 km/h (4 Bft)
13.03.2019 14:34 4,6 °C 64 % 1012,2 hPa 0,0 mm 13,1 km/h (3 Bft) W-NW 291 ° 0 min 0,000 mm 2,6 UV-I 555 W/m² -1,6 °C 1,6 °C 24,1 km/h (4 Bft)
13.03.2019 14:35 4,4 °C 64 % 1012,2 hPa 0,0 mm 12,8 km/h (3 Bft) W 281 ° 0 min 0,000 mm 2,6 UV-I 554 W/m² -1,8 °C 1,4 °C 16,1 km/h (3 Bft)
13.03.2019 14:36 4,4 °C 66 % 1012,2 hPa 0,0 mm 13,7 km/h (3 Bft) W-SW 238 ° 0 min 0,000 mm 2,6 UV-I 554 W/m² -1,4 °C 1,2 °C 24,1 km/h (4 Bft)
13.03.2019 14:37 4,4 °C 65 % 1012,1 hPa 0,0 mm 14,3 km/h (3 Bft) W-SW 251 ° 0 min 0,000 mm 2,6 UV-I 555 W/m² -1,6 °C 1,1 °C 22,5 km/h (4 Bft)
13.03.2019 14:38 4,4 °C 66 % 1012,1 hPa 0,0 mm 9,9 km/h (2 Bft) W 273 ° 0 min 0,000 mm 2,6 UV-I 464 W/m² -1,4 °C 2,0 °C 16,1 km/h (3 Bft)
13.03.2019 14:39 4,3 °C 66 % 1012,1 hPa 0,0 mm 10,3 km/h (2 Bft) W-SW 248 ° 0 min 0,000 mm 2,6 UV-I 557 W/m² -1,5 °C 1,8 °C 14,5 km/h (3 Bft)
13.03.2019 14:40 4,3 °C 66 % 1012,1 hPa 0,0 mm 8,9 km/h (2 Bft) W-NW 293 ° 0 min 0,000 mm 2,6 UV-I 557 W/m² -1,5 °C 2,1 °C 12,9 km/h (3 Bft)
13.03.2019 14:41 4,3 °C 67 % 1012,1 hPa 0,0 mm 11,4 km/h (2 Bft) W 259 ° 0 min 0,000 mm 2,6 UV-I 578 W/m² -1,3 °C 1,5 °C 14,5 km/h (3 Bft)
13.03.2019 14:42 4,3 °C 66 % 1012,1 hPa 0,0 mm 12,7 km/h (3 Bft) W 263 ° 0 min 0,000 mm 2,6 UV-I 571 W/m² -1,5 °C 1,3 °C 19,3 km/h (3 Bft)
13.03.2019 14:43 4,3 °C 67 % 1012,1 hPa 0,0 mm 16,4 km/h (3 Bft) W-SW 246 ° 0 min 0,000 mm 2,6 UV-I 570 W/m² -1,3 °C 0,7 °C 25,7 km/h (4 Bft)
13.03.2019 14:44 4,3 °C 67 % 1012,1 hPa 0,0 mm 10,4 km/h (2 Bft) W 265 ° 0 min 0,000 mm 2,6 UV-I 526 W/m² -1,3 °C 1,7 °C 14,5 km/h (3 Bft)
13.03.2019 14:45 4,4 °C 67 % 1012,1 hPa 0,0 mm 8,9 km/h (2 Bft) W-SW 250 ° 0 min 0,000 mm 2,5 UV-I 563 W/m² -1,2 °C 2,2 °C 14,5 km/h (3 Bft)
13.03.2019 14:46 4,4 °C 67 % 1012,0 hPa 0,0 mm 10,4 km/h (2 Bft) W-NW 286 ° 0 min 0,000 mm 2,5 UV-I 554 W/m² -1,2 °C 1,9 °C 16,1 km/h (3 Bft)
13.03.2019 14:47 4,4 °C 67 % 1012,0 hPa 0,0 mm 8,0 km/h (2 Bft) NW 312 ° 0 min 0,000 mm 2,5 UV-I 548 W/m² -1,2 °C 2,4 °C 11,3 km/h (2 Bft)
13.03.2019 14:48 4,4 °C 66 % 1012,0 hPa 0,0 mm 10,5 km/h (2 Bft) W-NW 290 ° 0 min 0,000 mm 2,5 UV-I 540 W/m² -1,4 °C 1,8 °C 19,3 km/h (3 Bft)
13.03.2019 14:49 4,5 °C 67 % 1011,9 hPa 0,0 mm 13,7 km/h (3 Bft) W 279 ° 0 min 0,000 mm 2,4 UV-I 545 W/m² -1,1 °C 1,3 °C 17,7 km/h (3 Bft)
13.03.2019 14:50 4,5 °C 66 % 1012,0 hPa 0,0 mm 17,4 km/h (3 Bft) W 262 ° 0 min 0,000 mm 2,4 UV-I 545 W/m² -1,3 °C 0,8 °C 27,4 km/h (4 Bft)
13.03.2019 14:51 4,6 °C 66 % 1012,0 hPa 0,0 mm 20,6 km/h (4 Bft) W 273 ° 0 min 0,000 mm 1,7 UV-I 545 W/m² -1,2 °C 0,5 °C 27,4 km/h (4 Bft)
13.03.2019 14:52 4,6 °C 65 % 1012,0 hPa 0,0 mm 10,0 km/h (2 Bft) W 278 ° 0 min 0,000 mm 1,5 UV-I 134 W/m² -1,4 °C 2,2 °C 16,1 km/h (3 Bft)
13.03.2019 14:53 4,5 °C 65 % 1011,9 hPa 0,0 mm 14,6 km/h (3 Bft) W-NW 299 ° 0 min 0,000 mm 2,1 UV-I 134 W/m² -1,5 °C 1,2 °C 27,4 km/h (4 Bft)
13.03.2019 14:54 4,5 °C 64 % 1011,9 hPa 0,0 mm 14,6 km/h (3 Bft) W-NW 294 ° 0 min 0,000 mm 2,4 UV-I 134 W/m² -1,7 °C 1,2 °C 22,5 km/h (4 Bft)
13.03.2019 14:55 4,5 °C 64 % 1011,9 hPa 0,0 mm 13,0 km/h (3 Bft) W-NW 290 ° 0 min 0,000 mm 2,0 UV-I 134 W/m² -1,7 °C 1,5 °C 17,7 km/h (3 Bft)
13.03.2019 14:56 4,5 °C 64 % 1011,9 hPa 0,0 mm 10,1 km/h (2 Bft) W-SW 246 ° 0 min 0,000 mm 1,9 UV-I 367 W/m² -1,7 °C 2,0 °C 17,7 km/h (3 Bft)
13.03.2019 14:57 4,6 °C 65 % 1011,8 hPa 0,0 mm 11,7 km/h (2 Bft) W-SW 254 ° 0 min 0,000 mm 1,9 UV-I 359 W/m² -1,4 °C 1,8 °C 17,7 km/h (3 Bft)
13.03.2019 14:58 4,7 °C 64 % 1011,9 hPa 0,0 mm 15,4 km/h (3 Bft) NW 321 ° 0 min 0,000 mm 1,6 UV-I 359 W/m² -1,5 °C 1,3 °C 20,9 km/h (4 Bft)
13.03.2019 14:59 4,8 °C 64 % 1011,9 hPa 0,0 mm 14,8 km/h (3 Bft) W 273 ° 0 min 0,000 mm 1,7 UV-I 244 W/m² -1,4 °C 1,5 °C 20,9 km/h (4 Bft)
13.03.2019 15:00 4,8 °C 63 % 1011,8 hPa 0,0 mm 14,0 km/h (3 Bft) W 278 ° 0 min 0,000 mm 1,5 UV-I 297 W/m² -1,6 °C 1,7 °C 22,5 km/h (4 Bft)
13.03.2019 15:01 4,8 °C 63 % 1011,8 hPa 0,0 mm 11,6 km/h (2 Bft) NW 305 ° 0 min 0,228 mm 1,4 UV-I 195 W/m² -1,6 °C 2,1 °C 17,7 km/h (3 Bft)
13.03.2019 15:02 4,8 °C 63 % 1012,0 hPa 0,0 mm 14,3 km/h (3 Bft) W-NW 300 ° 0 min 0,000 mm 1,1 UV-I 167 W/m² -1,6 °C 1,6 °C 24,1 km/h (4 Bft)
13.03.2019 15:03 4,7 °C 63 % 1012,0 hPa 0,0 mm 16,5 km/h (3 Bft) W-SW 258 ° 0 min 0,000 mm 1,0 UV-I 146 W/m² -1,7 °C 1,2 °C 20,9 km/h (4 Bft)
13.03.2019 15:04 4,7 °C 60 % 1011,9 hPa 0,0 mm 19,7 km/h (3 Bft) W-NW 292 ° 0 min 0,000 mm 0,8 UV-I 132 W/m² -2,4 °C 0,7 °C 24,1 km/h (4 Bft)
13.03.2019 15:05 4,6 °C 56 % 1012,1 hPa 0,0 mm 20,0 km/h (4 Bft) N-NW 328 ° 0 min 0,000 mm 0,7 UV-I 120 W/m² -3,4 °C 0,6 °C 27,4 km/h (4 Bft)
13.03.2019 15:06 4,5 °C 58 % 1012,1 hPa 0,0 mm 16,3 km/h (3 Bft) W 275 ° 0 min 0,000 mm 0,7 UV-I 111 W/m² -3,0 °C 0,9 °C 24,1 km/h (4 Bft)
13.03.2019 15:07 4,3 °C 60 % 1012,1 hPa 0,0 mm 12,4 km/h (3 Bft) NW 309 ° 0 min 0,000 mm 0,6 UV-I 90 W/m² -2,8 °C 1,3 °C 19,3 km/h (3 Bft)
13.03.2019 15:08 4,1 °C 62 % 1012,1 hPa 0,0 mm 11,5 km/h (2 Bft) W-NW 283 ° 0 min 0,000 mm 0,5 UV-I 81 W/m² -2,5 °C 1,3 °C 19,3 km/h (3 Bft)
13.03.2019 15:09 3,9 °C 63 % 1012,0 hPa 0,0 mm 11,5 km/h (2 Bft) NW 311 ° 0 min 0,000 mm 0,5 UV-I 76 W/m² -2,5 °C 1,0 °C 16,1 km/h (3 Bft)
13.03.2019 15:10 3,8 °C 62 % 1012,0 hPa 0,0 mm 14,1 km/h (3 Bft) NW 311 ° 0 min 0,000 mm 0,0 UV-I 67 W/m² -2,8 °C 0,4 °C 17,7 km/h (3 Bft)
13.03.2019 15:11 3,7 °C 62 % 1012,1 hPa 0,0 mm 14,5 km/h (3 Bft) NW 325 ° 0 min 0,000 mm 0,0 UV-I 56 W/m² -2,9 °C 0,2 °C 22,5 km/h (4 Bft)
13.03.2019 15:12 3,6 °C 62 % 1012,0 hPa 0,0 mm 13,3 km/h (3 Bft) N-NW 331 ° 0 min 0,000 mm 0,0 UV-I 46 W/m² -3,0 °C 0,3 °C 22,5 km/h (4 Bft)
13.03.2019 15:13 3,6 °C 64 % 1012,0 hPa 0,0 mm 14,1 km/h (3 Bft) W-NW 284 ° 0 min 0,000 mm 0,0 UV-I 30 W/m² -2,6 °C 0,2 °C 25,7 km/h (4 Bft)
13.03.2019 15:14 3,5 °C 65 % 1012,1 hPa 0,0 mm 17,8 km/h (3 Bft) N-NW 348 ° 0 min 0,000 mm 0,0 UV-I 25 W/m² -2,4 °C -0,5 °C 25,7 km/h (4 Bft)
13.03.2019 15:15 3,4 °C 66 % 1012,4 hPa 0,0 mm 22,3 km/h (4 Bft) W-NW 293 ° 0 min 0,000 mm 0,0 UV-I 19 W/m² -2,3 °C -1,2 °C 37,0 km/h (5 Bft)
13.03.2019 15:16 3,4 °C 68 % 1012,6 hPa 0,0 mm 24,8 km/h (4 Bft) W-SW 257 ° 0 min 0,000 mm 0,0 UV-I 14 W/m² -1,9 °C -1,5 °C 40,2 km/h (6 Bft)
13.03.2019 15:17 3,3 °C 70 % 1012,8 hPa 0,0 mm 25,3 km/h (4 Bft) NW 313 ° 0 min 0,000 mm 0,0 UV-I 14 W/m² -1,6 °C -1,7 °C 38,6 km/h (5 Bft)
13.03.2019 15:18 3,2 °C 72 % 1012,9 hPa 0,0 mm 31,3 km/h (5 Bft) W-NW 290 ° 0 min 0,000 mm 0,0 UV-I 19 W/m² -1,3 °C -2,4 °C 46,7 km/h (6 Bft)
13.03.2019 15:19 3,0 °C 74 % 1013,0 hPa 0,0 mm 21,7 km/h (4 Bft) W 275 ° 0 min 0,000 mm 0,0 UV-I 70 W/m² -1,2 °C -1,7 °C 30,6 km/h (5 Bft)
13.03.2019 15:20 2,7 °C 76 % 1012,8 hPa 0,0 mm 20,3 km/h (4 Bft) W-SW 256 ° 0 min 0,000 mm 0,7 UV-I 125 W/m² -1,1 °C -1,9 °C 29,0 km/h (5 Bft)
13.03.2019 15:21 2,4 °C 78 % 1012,8 hPa 0,0 mm 15,1 km/h (3 Bft) W 261 ° 0 min 0,000 mm 0,7 UV-I 162 W/m² -1,0 °C -1,5 °C 24,1 km/h (4 Bft)
13.03.2019 15:22 2,1 °C 81 % 1012,9 hPa 0,0 mm 17,1 km/h (3 Bft) W 259 ° 0 min 0,000 mm 1,0 UV-I 178 W/m² -0,8 °C -2,2 °C 20,9 km/h (4 Bft)
13.03.2019 15:23 1,8 °C 82 % 1012,9 hPa 0,0 mm 14,4 km/h (3 Bft) W-NW 295 ° 0 min 0,000 mm 1,0 UV-I 179 W/m² -0,9 °C -2,1 °C 17,7 km/h (3 Bft)
13.03.2019 15:24 1,7 °C 83 % 1012,9 hPa 0,0 mm 9,7 km/h (2 Bft) W 266 ° 0 min 0,000 mm 1,0 UV-I 149 W/m² -0,9 °C -1,2 °C 12,9 km/h (3 Bft)
13.03.2019 15:25 1,7 °C 84 % 1012,9 hPa 0,0 mm 14,8 km/h (3 Bft) W-SW 258 ° 0 min 0,000 mm 0,9 UV-I 120 W/m² -0,7 °C -2,3 °C 22,5 km/h (4 Bft)
13.03.2019 15:26 1,6 °C 84 % 1013,0 hPa 0,0 mm 15,2 km/h (3 Bft) W 276 ° 0 min 0,000 mm 0,7 UV-I 120 W/m² -0,8 °C -2,5 °C 20,9 km/h (4 Bft)
13.03.2019 15:27 1,6 °C 84 % 1012,9 hPa 0,0 mm 12,1 km/h (2 Bft) W-SW 249 ° 0 min 0,000 mm 0,9 UV-I 149 W/m² -0,8 °C -1,9 °C 19,3 km/h (3 Bft)
13.03.2019 15:28 1,5 °C 84 % 1012,9 hPa 0,0 mm 24,2 km/h (4 Bft) W-SW 256 ° 0 min 0,000 mm 0,9 UV-I 155 W/m² -0,9 °C -3,9 °C 33,8 km/h (5 Bft)
13.03.2019 15:29 1,5 °C 84 % 1013,0 hPa 0,0 mm 21,3 km/h (4 Bft) W-SW 254 ° 0 min 0,000 mm 0,9 UV-I 149 W/m² -0,9 °C -3,5 °C 29,0 km/h (5 Bft)
13.03.2019 15:30 1,5 °C 84 % 1012,8 hPa 0,0 mm 20,4 km/h (4 Bft) W-SW 251 ° 0 min 0,000 mm 0,9 UV-I 160 W/m² -0,9 °C -3,4 °C 27,4 km/h (4 Bft)
13.03.2019 15:31 1,6 °C 84 % 1012,8 hPa 0,0 mm 12,5 km/h (3 Bft) SW 231 ° 0 min 0,000 mm 0,9 UV-I 153 W/m² -0,8 °C -2,0 °C 24,1 km/h (4 Bft)
13.03.2019 15:32 1,6 °C 84 % 1012,7 hPa 0,0 mm 21,4 km/h (4 Bft) NW 306 ° 0 min 0,000 mm 0,9 UV-I 146 W/m² -0,8 °C -3,4 °C 35,4 km/h (5 Bft)
13.03.2019 15:33 1,6 °C 84 % 1012,7 hPa 0,0 mm 14,8 km/h (3 Bft) W 265 ° 0 min 0,000 mm 1,0 UV-I 174 W/m² -0,8 °C -2,4 °C 19,3 km/h (3 Bft)
13.03.2019 15:34 1,6 °C 85 % 1012,8 hPa 0,0 mm 20,3 km/h (4 Bft) W-SW 255 ° 0 min 0,000 mm 1,2 UV-I 174 W/m² -0,6 °C -3,3 °C 38,6 km/h (5 Bft)
13.03.2019 15:35 1,6 °C 84 % 1012,7 hPa 0,0 mm 19,1 km/h (3 Bft) W 265 ° 0 min 0,000 mm 1,4 UV-I 174 W/m² -0,8 °C -3,1 °C 30,6 km/h (5 Bft)
13.03.2019 15:36 1,7 °C 85 % 1012,8 hPa 0,0 mm 12,7 km/h (3 Bft) W-SW 253 ° 0 min 0,000 mm 1,4 UV-I 241 W/m² -0,5 °C -1,9 °C 27,4 km/h (4 Bft)
13.03.2019 15:37 1,8 °C 85 % 1012,7 hPa 0,0 mm 8,6 km/h (2 Bft) W-NW 288 ° 0 min 0,000 mm 1,3 UV-I 297 W/m² -0,4 °C -0,8 °C 17,7 km/h (3 Bft)
13.03.2019 15:38 1,9 °C 85 % 1012,6 hPa 0,0 mm 11,4 km/h (2 Bft) W-SW 246 ° 0 min 0,000 mm 1,3 UV-I 234 W/m² -0,3 °C -1,4 °C 14,5 km/h (3 Bft)
13.03.2019 15:39 1,9 °C 84 % 1012,5 hPa 0,0 mm 9,4 km/h (2 Bft) W 278 ° 0 min 0,000 mm 1,3 UV-I 218 W/m² -0,5 °C -0,9 °C 12,9 km/h (3 Bft)
13.03.2019 15:40 1,9 °C 84 % 1012,6 hPa 0,0 mm 8,0 km/h (2 Bft) SW 231 ° 0 min 0,000 mm 1,2 UV-I 192 W/m² -0,5 °C -0,5 °C 17,7 km/h (3 Bft)
13.03.2019 15:41 1,9 °C 83 % 1012,5 hPa 0,0 mm 8,0 km/h (2 Bft) W 273 ° 0 min 0,000 mm 1,2 UV-I 165 W/m² -0,7 °C -0,5 °C 16,1 km/h (3 Bft)
13.03.2019 15:42 2,1 °C 84 % 1012,5 hPa 0,0 mm 11,1 km/h (2 Bft) SW 227 ° 0 min 0,000 mm 1,2 UV-I 188 W/m² -0,3 °C -1,1 °C 17,7 km/h (3 Bft)
13.03.2019 15:43 2,2 °C 84 % 1012,5 hPa 0,0 mm 7,0 km/h (2 Bft) W-NW 298 ° 0 min 0,000 mm 1,3 UV-I 229 W/m² -0,2 °C 0,2 °C 16,1 km/h (3 Bft)
13.03.2019 15:44 2,2 °C 84 % 1012,5 hPa 0,0 mm 8,0 km/h (2 Bft) SW 236 ° 0 min 0,000 mm 1,2 UV-I 221 W/m² -0,2 °C -0,2 °C 12,9 km/h (3 Bft)
13.03.2019 15:45 2,3 °C 83 % 1012,5 hPa 0,0 mm 7,2 km/h (2 Bft) SW 236 ° 0 min 0,000 mm 1,3 UV-I 258 W/m² -0,3 °C 0,2 °C 14,5 km/h (3 Bft)
13.03.2019 15:46 2,3 °C 83 % 1012,6 hPa 0,0 mm 13,5 km/h (3 Bft) W-NW 284 ° 0 min 0,000 mm 1,3 UV-I 269 W/m² -0,3 °C -1,3 °C 20,9 km/h (4 Bft)
13.03.2019 15:47 2,4 °C 83 % 1012,5 hPa 0,0 mm 15,3 km/h (3 Bft) W 271 ° 0 min 0,000 mm 1,3 UV-I 287 W/m² -0,2 °C -1,5 °C 24,1 km/h (4 Bft)
13.03.2019 15:48 2,4 °C 83 % 1012,6 hPa 0,0 mm 16,1 km/h (3 Bft) W 277 ° 0 min 0,000 mm 1,3 UV-I 269 W/m² -0,2 °C -1,6 °C 22,5 km/h (4 Bft)
13.03.2019 15:49 2,4 °C 83 % 1012,4 hPa 0,0 mm 15,4 km/h (3 Bft) W-SW 258 ° 0 min 0,000 mm 1,4 UV-I 369 W/m² -0,2 °C -1,5 °C 27,4 km/h (4 Bft)
13.03.2019 15:50 2,4 °C 82 % 1012,5 hPa 0,0 mm 14,9 km/h (3 Bft) W 273 ° 0 min 0,000 mm 1,4 UV-I 373 W/m² -0,4 °C -1,4 °C 20,9 km/h (4 Bft)
13.03.2019 15:51 2,4 °C 81 % 1012,5 hPa 0,0 mm 14,1 km/h (3 Bft) W-SW 254 ° 0 min 0,000 mm 1,4 UV-I 374 W/m² -0,5 °C -1,3 °C 22,5 km/h (4 Bft)
13.03.2019 15:52 2,4 °C 80 % 1012,4 hPa 0,0 mm 14,3 km/h (3 Bft) W-SW 247 ° 0 min 0,000 mm 1,4 UV-I 374 W/m² -0,7 °C -1,3 °C 20,9 km/h (4 Bft)
13.03.2019 15:53 2,5 °C 81 % 1012,4 hPa 0,0 mm 15,3 km/h (3 Bft) W 280 ° 0 min 0,000 mm 1,4 UV-I 367 W/m² -0,4 °C -1,4 °C 19,3 km/h (3 Bft)
13.03.2019 15:54 2,6 °C 81 % 1012,4 hPa 0,0 mm 12,1 km/h (2 Bft) W 275 ° 0 min 0,000 mm 1,3 UV-I 366 W/m² -0,3 °C -0,7 °C 17,7 km/h (3 Bft)
13.03.2019 15:55 2,6 °C 80 % 1012,3 hPa 0,0 mm 10,3 km/h (2 Bft) W-SW 258 ° 0 min 0,000 mm 1,3 UV-I 366 W/m² -0,5 °C -0,3 °C 14,5 km/h (3 Bft)
13.03.2019 15:56 2,6 °C 80 % 1012,4 hPa 0,0 mm 13,2 km/h (3 Bft) W 277 ° 0 min 0,000 mm 1,3 UV-I 364 W/m² -0,5 °C -0,9 °C 20,9 km/h (4 Bft)
13.03.2019 15:57 2,7 °C 80 % 1012,4 hPa 0,0 mm 12,6 km/h (3 Bft) W 267 ° 0 min 0,000 mm 1,3 UV-I 360 W/m² -0,4 °C -0,6 °C 17,7 km/h (3 Bft)
13.03.2019 15:58 2,7 °C 80 % 1012,4 hPa 0,0 mm 9,9 km/h (2 Bft) W-SW 252 ° 0 min 0,000 mm 1,3 UV-I 359 W/m² -0,4 °C -0,1 °C 16,1 km/h (3 Bft)
13.03.2019 15:59 2,7 °C 79 % 1012,4 hPa 0,0 mm 10,2 km/h (2 Bft) W-SW 250 ° 0 min 0,000 mm 1,3 UV-I 355 W/m² -0,6 °C -0,1 °C 14,5 km/h (3 Bft)
13.03.2019 16:00 2,7 °C 79 % 1012,3 hPa 0,0 mm 9,8 km/h (2 Bft) W-SW 254 ° 0 min 0,000 mm 1,2 UV-I 350 W/m² -0,6 °C -0,0 °C 17,7 km/h (3 Bft)
13.03.2019 16:01 2,7 °C 78 % 1012,4 hPa 0,0 mm 12,2 km/h (2 Bft) W 271 ° 0 min 0,102 mm 1,2 UV-I 348 W/m² -0,7 °C -0,6 °C 17,7 km/h (3 Bft)
13.03.2019 16:02 2,8 °C 79 % 1012,4 hPa 0,0 mm 10,0 km/h (2 Bft) W 277 ° 0 min 0,000 mm 1,2 UV-I 346 W/m² -0,5 °C 0,0 °C 19,3 km/h (3 Bft)
13.03.2019 16:03 2,9 °C 77 % 1012,4 hPa 0,0 mm 20,0 km/h (4 Bft) W 261 ° 0 min 0,000 mm 1,2 UV-I 329 W/m² -0,7 °C -1,6 °C 29,0 km/h (5 Bft)
13.03.2019 16:04 2,9 °C 77 % 1012,4 hPa 0,0 mm 22,3 km/h (4 Bft) W-SW 248 ° 0 min 0,000 mm 1,2 UV-I 315 W/m² -0,7 °C -1,9 °C 32,2 km/h (5 Bft)
13.03.2019 16:05 2,9 °C 76 % 1012,4 hPa 0,0 mm 15,3 km/h (3 Bft) W-SW 250 ° 0 min 0,000 mm 1,1 UV-I 290 W/m² -0,9 °C -0,9 °C 27,4 km/h (4 Bft)
13.03.2019 16:06 2,9 °C 76 % 1012,3 hPa 0,0 mm 13,7 km/h (3 Bft) W-SW 257 ° 0 min 0,000 mm 1,1 UV-I 278 W/m² -0,9 °C -0,6 °C 17,7 km/h (3 Bft)
13.03.2019 16:07 2,9 °C 76 % 1012,4 hPa 0,0 mm 20,5 km/h (4 Bft) W 269 ° 0 min 0,000 mm 1,1 UV-I 255 W/m² -0,9 °C -1,6 °C 27,4 km/h (4 Bft)
13.03.2019 16:08 2,9 °C 76 % 1012,4 hPa 0,0 mm 13,9 km/h (3 Bft) W 273 ° 0 min 0,000 mm 1,0 UV-I 250 W/m² -0,9 °C -0,6 °C 20,9 km/h (4 Bft)
13.03.2019 16:09 3,1 °C 75 % 1012,4 hPa 0,0 mm 15,4 km/h (3 Bft) W-NW 300 ° 0 min 0,000 mm 1,0 UV-I 218 W/m² -0,9 °C -0,7 °C 20,9 km/h (4 Bft)
13.03.2019 16:10 3,1 °C 75 % 1012,3 hPa 0,0 mm 15,4 km/h (3 Bft) W-NW 302 ° 0 min 0,000 mm 1,0 UV-I 225 W/m² -0,9 °C -0,7 °C 25,7 km/h (4 Bft)
13.03.2019 16:11 3,1 °C 74 % 1012,4 hPa 0,0 mm 15,3 km/h (3 Bft) SW 234 ° 0 min 0,000 mm 1,0 UV-I 181 W/m² -1,1 °C -0,6 °C 29,0 km/h (5 Bft)
13.03.2019 16:12 3,1 °C 73 % 1012,4 hPa 0,0 mm 12,8 km/h (3 Bft) W-SW 241 ° 0 min 0,000 mm 1,0 UV-I 234 W/m² -1,3 °C -0,2 °C 22,5 km/h (4 Bft)
13.03.2019 16:13 3,2 °C 73 % 1012,4 hPa 0,0 mm 14,9 km/h (3 Bft) W-SW 256 ° 0 min 0,000 mm 1,0 UV-I 258 W/m² -1,2 °C -0,5 °C 22,5 km/h (4 Bft)
13.03.2019 16:14 3,2 °C 72 % 1012,4 hPa 0,0 mm 11,1 km/h (2 Bft) W-NW 291 ° 0 min 0,000 mm 1,0 UV-I 250 W/m² -1,3 °C 0,3 °C 19,3 km/h (3 Bft)
13.03.2019 16:15 3,2 °C 72 % 1012,3 hPa 0,0 mm 16,1 km/h (3 Bft) W 268 ° 0 min 0,000 mm 1,0 UV-I 213 W/m² -1,3 °C -0,6 °C 29,0 km/h (5 Bft)
13.03.2019 16:16 3,2 °C 72 % 1012,3 hPa 0,0 mm 19,8 km/h (3 Bft) W-NW 288 ° 0 min 0,000 mm 0,9 UV-I 165 W/m² -1,3 °C -1,2 °C 27,4 km/h (4 Bft)
13.03.2019 16:17 3,2 °C 71 % 1012,4 hPa 0,0 mm 17,0 km/h (3 Bft) W 275 ° 0 min 0,000 mm 0,9 UV-I 178 W/m² -1,5 °C -0,8 °C 24,1 km/h (4 Bft)
13.03.2019 16:18 3,2 °C 71 % 1012,4 hPa 0,0 mm 17,4 km/h (3 Bft) W 269 ° 0 min 0,000 mm 1,0 UV-I 246 W/m² -1,5 °C -0,8 °C 25,7 km/h (4 Bft)
13.03.2019 16:19 3,2 °C 71 % 1012,3 hPa 0,0 mm 23,5 km/h (4 Bft) W-NW 286 ° 0 min 0,000 mm 1,0 UV-I 267 W/m² -1,5 °C -1,6 °C 37,0 km/h (5 Bft)
13.03.2019 16:20 3,2 °C 70 % 1012,2 hPa 0,0 mm 20,3 km/h (4 Bft) SW 223 ° 0 min 0,000 mm 0,9 UV-I 244 W/m² -1,7 °C -1,2 °C 30,6 km/h (5 Bft)
13.03.2019 16:21 3,2 °C 70 % 1012,2 hPa 0,0 mm 15,9 km/h (3 Bft) W 275 ° 0 min 0,000 mm 0,9 UV-I 216 W/m² -1,7 °C -0,6 °C 22,5 km/h (4 Bft)
13.03.2019 16:22 3,3 °C 70 % 1012,2 hPa 0,0 mm 12,3 km/h (3 Bft) W-SW 242 ° 0 min 0,000 mm 0,9 UV-I 204 W/m² -1,6 °C 0,1 °C 20,9 km/h (4 Bft)
13.03.2019 16:23 3,2 °C 69 % 1012,2 hPa 0,0 mm 13,3 km/h (3 Bft) W 261 ° 0 min 0,000 mm 0,9 UV-I 188 W/m² -1,9 °C -0,2 °C 20,9 km/h (4 Bft)
13.03.2019 16:24 3,3 °C 69 % 1012,1 hPa 0,0 mm 16,2 km/h (3 Bft) SW 224 ° 0 min 0,000 mm 0,9 UV-I 165 W/m² -1,8 °C -0,5 °C 25,7 km/h (4 Bft)
13.03.2019 16:25 3,3 °C 69 % 1012,2 hPa 0,0 mm 10,4 km/h (2 Bft) W-SW 240 ° 0 min 0,000 mm 0,9 UV-I 142 W/m² -1,8 °C 0,5 °C 17,7 km/h (3 Bft)
13.03.2019 16:26 3,3 °C 69 % 1012,1 hPa 0,0 mm 11,5 km/h (2 Bft) W-SW 252 ° 0 min 0,000 mm 0,8 UV-I 102 W/m² -1,8 °C 0,3 °C 16,1 km/h (3 Bft)
13.03.2019 16:27 3,4 °C 68 % 1012,1 hPa 0,0 mm 16,4 km/h (3 Bft) SW 233 ° 0 min 0,000 mm 0,8 UV-I 98 W/m² -1,9 °C -0,4 °C 24,1 km/h (4 Bft)
13.03.2019 16:28 3,4 °C 67 % 1012,0 hPa 0,0 mm 7,4 km/h (2 Bft) W 263 ° 0 min 0,000 mm 0,8 UV-I 125 W/m² -2,1 °C 1,4 °C 9,7 km/h (2 Bft)
13.03.2019 16:29 3,4 °C 67 % 1012,0 hPa 0,0 mm 11,3 km/h (2 Bft) W-SW 247 ° 0 min 0,000 mm 0,8 UV-I 84 W/m² -2,1 °C 0,5 °C 16,1 km/h (3 Bft)
13.03.2019 16:30 3,4 °C 68 % 1012,0 hPa 0,0 mm 10,9 km/h (2 Bft) SW 232 ° 0 min 0,000 mm 0,8 UV-I 58 W/m² -1,9 °C 0,5 °C 14,5 km/h (3 Bft)
13.03.2019 16:31 3,5 °C 68 % 1012,0 hPa 0,0 mm 11,8 km/h (2 Bft) W-NW 303 ° 0 min 0,000 mm 0,8 UV-I 74 W/m² -1,8 °C 0,5 °C 16,1 km/h (3 Bft)
13.03.2019 16:32 3,5 °C 68 % 1012,0 hPa 0,0 mm 10,3 km/h (2 Bft) W 279 ° 0 min 0,000 mm 0,0 UV-I 51 W/m² -1,8 °C 0,8 °C 12,9 km/h (3 Bft)
13.03.2019 16:33 3,6 °C 68 % 1012,1 hPa 0,0 mm 12,2 km/h (2 Bft) W-NW 285 ° 0 min 0,000 mm 0,0 UV-I 32 W/m² -1,7 °C 0,5 °C 16,1 km/h (3 Bft)
13.03.2019 16:34 3,6 °C 67 % 1012,1 hPa 0,0 mm 12,6 km/h (3 Bft) W-NW 290 ° 0 min 0,000 mm 0,0 UV-I 40 W/m² -1,9 °C 0,4 °C 20,9 km/h (4 Bft)
13.03.2019 16:35 3,6 °C 67 % 1012,0 hPa 0,0 mm 13,6 km/h (3 Bft) W-NW 292 ° 0 min 0,000 mm 0,0 UV-I 53 W/m² -1,9 °C 0,3 °C 19,3 km/h (3 Bft)
13.03.2019 16:36 3,7 °C 66 % 1012,0 hPa 0,0 mm 14,5 km/h (3 Bft) W 263 ° 0 min 0,000 mm 0,7 UV-I 62 W/m² -2,0 °C 0,2 °C 22,5 km/h (4 Bft)
13.03.2019 16:37 3,7 °C 66 % 1012,1 hPa 0,0 mm 7,6 km/h (2 Bft) W-NW 301 ° 0 min 0,000 mm 0,7 UV-I 70 W/m² -2,0 °C 1,7 °C 19,3 km/h (3 Bft)
13.03.2019 16:38 3,7 °C 65 % 1012,0 hPa 0,0 mm 9,7 km/h (2 Bft) W 262 ° 0 min 0,000 mm 0,7 UV-I 67 W/m² -2,3 °C 1,2 °C 19,3 km/h (3 Bft)
13.03.2019 16:39 3,7 °C 65 % 1012,0 hPa 0,0 mm 15,4 km/h (3 Bft) NW 307 ° 0 min 0,000 mm 0,7 UV-I 63 W/m² -2,3 °C 0,1 °C 22,5 km/h (4 Bft)
13.03.2019 16:40 3,7 °C 64 % 1012,0 hPa 0,0 mm 14,9 km/h (3 Bft) SW 236 ° 0 min 0,000 mm 0,7 UV-I 56 W/m² -2,5 °C 0,2 °C 24,1 km/h (4 Bft)
13.03.2019 16:41 3,7 °C 62 % 1011,9 hPa 0,0 mm 10,3 km/h (2 Bft) W 277 ° 0 min 0,000 mm 0,7 UV-I 63 W/m² -2,9 °C 1,0 °C 16,1 km/h (3 Bft)
13.03.2019 16:42 3,7 °C 63 % 1011,9 hPa 0,0 mm 11,9 km/h (2 Bft) NW 306 ° 0 min 0,000 mm 0,0 UV-I 42 W/m² -2,7 °C 0,7 °C 19,3 km/h (3 Bft)
13.03.2019 16:43 3,7 °C 63 % 1012,0 hPa 0,0 mm 15,3 km/h (3 Bft) W 265 ° 0 min 0,000 mm 0,0 UV-I 35 W/m² -2,7 °C 0,1 °C 20,9 km/h (4 Bft)
13.03.2019 16:44 3,7 °C 63 % 1012,0 hPa 0,0 mm 12,7 km/h (3 Bft) W-SW 251 ° 0 min 0,000 mm 0,0 UV-I 47 W/m² -2,7 °C 0,5 °C 19,3 km/h (3 Bft)
13.03.2019 16:45 3,7 °C 62 % 1012,0 hPa 0,0 mm 11,3 km/h (2 Bft) SW 225 ° 0 min 0,000 mm 0,6 UV-I 60 W/m² -2,9 °C 0,8 °C 20,9 km/h (4 Bft)
13.03.2019 16:46 3,8 °C 61 % 1012,0 hPa 0,0 mm 18,1 km/h (3 Bft) W-SW 245 ° 0 min 0,000 mm 0,6 UV-I 46 W/m² -3,0 °C -0,2 °C 25,7 km/h (4 Bft)
13.03.2019 16:47 3,8 °C 61 % 1012,0 hPa 0,0 mm 13,3 km/h (3 Bft) SW 235 ° 0 min 0,000 mm 0,0 UV-I 39 W/m² -3,0 °C 0,6 °C 19,3 km/h (3 Bft)
13.03.2019 16:48 3,8 °C 60 % 1011,9 hPa 0,0 mm 9,5 km/h (2 Bft) W 279 ° 0 min 0,000 mm 0,0 UV-I 51 W/m² -3,2 °C 1,3 °C 17,7 km/h (3 Bft)
13.03.2019 16:49 3,8 °C 60 % 1011,9 hPa 0,0 mm 11,1 km/h (2 Bft) W 259 ° 0 min 0,000 mm 0,6 UV-I 65 W/m² -3,2 °C 1,0 °C 19,3 km/h (3 Bft)
13.03.2019 16:50 3,8 °C 62 % 1011,9 hPa 0,0 mm 11,7 km/h (2 Bft) W-SW 250 ° 0 min 0,000 mm 0,6 UV-I 65 W/m² -2,8 °C 0,9 °C 16,1 km/h (3 Bft)
13.03.2019 16:51 3,8 °C 61 % 1011,9 hPa 0,0 mm 6,5 km/h (2 Bft) W-NW 290 ° 0 min 0,000 mm 0,6 UV-I 58 W/m² -3,0 °C 2,2 °C 14,5 km/h (3 Bft)
13.03.2019 16:52 3,8 °C 61 % 1011,9 hPa 0,0 mm 14,9 km/h (3 Bft) W-SW 240 ° 0 min 0,000 mm 0,6 UV-I 62 W/m² -3,0 °C 0,3 °C 24,1 km/h (4 Bft)
13.03.2019 16:53 3,8 °C 61 % 1011,9 hPa 0,0 mm 9,1 km/h (2 Bft) W 268 ° 0 min 0,000 mm 0,6 UV-I 62 W/m² -3,0 °C 1,4 °C 12,9 km/h (3 Bft)
13.03.2019 16:54 3,8 °C 60 % 1011,9 hPa 0,0 mm 14,7 km/h (3 Bft) W-SW 247 ° 0 min 0,000 mm 0,6 UV-I 69 W/m² -3,2 °C 0,3 °C 19,3 km/h (3 Bft)
13.03.2019 16:55 3,8 °C 61 % 1011,9 hPa 0,0 mm 11,3 km/h (2 Bft) W 263 ° 0 min 0,000 mm 0,5 UV-I 69 W/m² -3,0 °C 0,9 °C 14,5 km/h (3 Bft)
13.03.2019 16:56 3,8 °C 60 % 1012,0 hPa 0,0 mm 12,5 km/h (3 Bft) W-SW 258 ° 0 min 0,000 mm 0,0 UV-I 46 W/m² -3,2 °C 0,7 °C 17,7 km/h (3 Bft)
13.03.2019 16:57 3,8 °C 60 % 1012,0 hPa 0,0 mm 10,8 km/h (2 Bft) W-SW 258 ° 0 min 0,000 mm 0,0 UV-I 39 W/m² -3,2 °C 1,0 °C 16,1 km/h (3 Bft)
13.03.2019 16:58 3,8 °C 60 % 1012,0 hPa 0,0 mm 10,7 km/h (2 Bft) W-NW 288 ° 0 min 0,000 mm 0,5 UV-I 56 W/m² -3,2 °C 1,1 °C 12,9 km/h (3 Bft)
13.03.2019 16:59 3,8 °C 61 % 1012,0 hPa 0,0 mm 8,4 km/h (2 Bft) W-SW 250 ° 0 min 0,000 mm 0,0 UV-I 49 W/m² -3,0 °C 1,6 °C 12,9 km/h (3 Bft)
13.03.2019 17:00 3,8 °C 61 % 1012,0 hPa 0,0 mm 7,8 km/h (2 Bft) W 271 ° 0 min 0,000 mm 0,0 UV-I 44 W/m² -3,0 °C 1,8 °C 11,3 km/h (2 Bft)
13.03.2019 17:01 3,7 °C 60 % 1012,0 hPa 0,0 mm 5,6 km/h (1 Bft) W-SW 254 ° 0 min 0,076 mm 0,0 UV-I 42 W/m² -3,3 °C 2,4 °C 9,7 km/h (2 Bft)
13.03.2019 17:02 3,7 °C 60 % 1012,0 hPa 0,0 mm 11,0 km/h (2 Bft) W 269 ° 0 min 0,000 mm 0,0 UV-I 32 W/m² -3,3 °C 0,9 °C 17,7 km/h (3 Bft)
13.03.2019 17:03 3,7 °C 60 % 1012,0 hPa 0,0 mm 10,5 km/h (2 Bft) S-SW 194 ° 0 min 0,000 mm 0,0 UV-I 32 W/m² -3,3 °C 1,0 °C 14,5 km/h (3 Bft)
13.03.2019 17:04 3,7 °C 60 % 1012,0 hPa 0,0 mm 7,0 km/h (2 Bft) W-SW 252 ° 0 min 0,000 mm 0,0 UV-I 28 W/m² -3,3 °C 1,9 °C 12,9 km/h (3 Bft)
13.03.2019 17:05 3,7 °C 60 % 1012,0 hPa 0,0 mm 13,2 km/h (3 Bft) W 273 ° 0 min 0,000 mm 0,0 UV-I 28 W/m² -3,3 °C 0,5 °C 22,5 km/h (4 Bft)
13.03.2019 17:06 3,7 °C 60 % 1012,0 hPa 0,0 mm 12,6 km/h (3 Bft) SW 226 ° 0 min 0,000 mm 0,0 UV-I 30 W/m² -3,3 °C 0,6 °C 19,3 km/h (3 Bft)
13.03.2019 17:07 3,6 °C 60 % 1012,0 hPa 0,0 mm 7,7 km/h (2 Bft) W-SW 248 ° 0 min 0,000 mm 0,0 UV-I 33 W/m² -3,4 °C 1,6 °C 12,9 km/h (3 Bft)
13.03.2019 17:08 3,6 °C 60 % 1011,9 hPa 0,0 mm 8,6 km/h (2 Bft) W-NW 296 ° 0 min 0,000 mm 0,0 UV-I 35 W/m² -3,4 °C 1,3 °C 12,9 km/h (3 Bft)
13.03.2019 17:09 3,6 °C 60 % 1011,9 hPa 0,0 mm 6,2 km/h (2 Bft) W-SW 242 ° 0 min 0,000 mm 0,0 UV-I 39 W/m² -3,4 °C 2,0 °C 9,7 km/h (2 Bft)
13.03.2019 17:10 3,6 °C 59 % 1011,9 hPa 0,0 mm 7,1 km/h (2 Bft) W-SW 255 ° 0 min 0,000 mm 0,0 UV-I 44 W/m² -3,6 °C 1,8 °C 9,7 km/h (2 Bft)
13.03.2019 17:11 3,6 °C 59 % 1011,9 hPa 0,0 mm 6,3 km/h (2 Bft) W-SW 255 ° 0 min 0,000 mm 0,0 UV-I 49 W/m² -3,6 °C 2,0 °C 11,3 km/h (2 Bft)
13.03.2019 17:12 3,6 °C 59 % 1011,9 hPa 0,0 mm 11,1 km/h (2 Bft) SW 221 ° 0 min 0,000 mm 0,0 UV-I 54 W/m² -3,6 °C 0,7 °C 17,7 km/h (3 Bft)
13.03.2019 17:13 3,6 °C 60 % 1012,0 hPa 0,0 mm 10,8 km/h (2 Bft) W-SW 255 ° 0 min 0,000 mm 0,0 UV-I 62 W/m² -3,4 °C 0,8 °C 17,7 km/h (3 Bft)
13.03.2019 17:14 3,6 °C 60 % 1012,0 hPa 0,0 mm 11,3 km/h (2 Bft) W 267 ° 0 min 0,000 mm 0,0 UV-I 65 W/m² -3,4 °C 0,7 °C 29,0 km/h (5 Bft)
13.03.2019 17:15 3,6 °C 60 % 1012,0 hPa 0,0 mm 19,3 km/h (3 Bft) W-SW 254 ° 0 min 0,000 mm 0,0 UV-I 63 W/m² -3,4 °C -0,6 °C 25,7 km/h (4 Bft)
13.03.2019 17:16 3,6 °C 59 % 1012,1 hPa 0,0 mm 17,5 km/h (3 Bft) W-SW 256 ° 0 min 0,000 mm 0,0 UV-I 60 W/m² -3,6 °C -0,4 °C 25,7 km/h (4 Bft)
13.03.2019 17:17 3,7 °C 60 % 1012,0 hPa 0,0 mm 16,0 km/h (3 Bft) W 259 ° 0 min 0,000 mm 0,0 UV-I 44 W/m² -3,3 °C -0,0 °C 22,5 km/h (4 Bft)
13.03.2019 17:18 3,7 °C 60 % 1012,0 hPa 0,0 mm 13,1 km/h (3 Bft) W-NW 292 ° 0 min 0,000 mm 0,0 UV-I 40 W/m² -3,3 °C 0,5 °C 24,1 km/h (4 Bft)
13.03.2019 17:19 3,7 °C 60 % 1012,0 hPa 0,0 mm 8,6 km/h (2 Bft) W 261 ° 0 min 0,000 mm 0,0 UV-I 44 W/m² -3,3 °C 1,4 °C 12,9 km/h (3 Bft)
13.03.2019 17:20 3,7 °C 60 % 1012,0 hPa 0,0 mm 13,9 km/h (3 Bft) W 265 ° 0 min 0,000 mm 0,0 UV-I 47 W/m² -3,3 °C 0,3 °C 24,1 km/h (4 Bft)
13.03.2019 17:21 3,7 °C 60 % 1012,0 hPa 0,0 mm 12,3 km/h (3 Bft) W 262 ° 0 min 0,000 mm 0,0 UV-I 47 W/m² -3,3 °C 0,6 °C 17,7 km/h (3 Bft)
13.03.2019 17:22 3,7 °C 61 % 1012,1 hPa 0,0 mm 10,1 km/h (2 Bft) S-SW 203 ° 0 min 0,000 mm 0,0 UV-I 35 W/m² -3,1 °C 1,1 °C 19,3 km/h (3 Bft)
13.03.2019 17:23 3,7 °C 60 % 1012,1 hPa 0,0 mm 12,6 km/h (3 Bft) W-NW 282 ° 0 min 0,000 mm 0,0 UV-I 28 W/m² -3,3 °C 0,6 °C 17,7 km/h (3 Bft)
13.03.2019 17:24 3,7 °C 60 % 1012,1 hPa 0,0 mm 16,6 km/h (3 Bft) W-NW 294 ° 0 min 0,000 mm 0,0 UV-I 23 W/m² -3,3 °C -0,1 °C 24,1 km/h (4 Bft)
13.03.2019 17:25 3,7 °C 60 % 1012,1 hPa 0,0 mm 8,7 km/h (2 Bft) SW 217 ° 0 min 0,000 mm 0,0 UV-I 19 W/m² -3,3 °C 1,4 °C 19,3 km/h (3 Bft)
13.03.2019 17:26 3,7 °C 60 % 1012,0 hPa 0,0 mm 15,5 km/h (3 Bft) W-SW 246 ° 0 min 0,000 mm 0,0 UV-I 16 W/m² -3,3 °C 0,1 °C 22,5 km/h (4 Bft)
13.03.2019 17:27 3,7 °C 60 % 1012,1 hPa 0,0 mm 12,6 km/h (3 Bft) W-NW 284 ° 0 min 0,000 mm 0,0 UV-I 14 W/m² -3,3 °C 0,6 °C 20,9 km/h (4 Bft)
13.03.2019 17:28 3,7 °C 60 % 1012,2 hPa 0,0 mm 6,5 km/h (2 Bft) W-NW 292 ° 0 min 0,000 mm 0,0 UV-I 12 W/m² -3,3 °C 2,1 °C 11,3 km/h (2 Bft)
13.03.2019 17:29 3,7 °C 60 % 1012,2 hPa 0,0 mm 11,8 km/h (2 Bft) W-SW 255 ° 0 min 0,000 mm 0,0 UV-I 12 W/m² -3,3 °C 0,7 °C 17,7 km/h (3 Bft)
13.03.2019 17:30 3,7 °C 61 % 1012,3 hPa 0,0 mm 14,2 km/h (3 Bft) W-SW 252 ° 0 min 0,000 mm 0,0 UV-I 12 W/m² -3,1 °C 0,3 °C 20,9 km/h (4 Bft)
13.03.2019 17:31 3,7 °C 60 % 1012,3 hPa 0,0 mm 8,3 km/h (2 Bft) W 280 ° 0 min 0,000 mm 0,0 UV-I 11 W/m² -3,3 °C 1,5 °C 22,5 km/h (4 Bft)
13.03.2019 17:32 3,7 °C 60 % 1012,4 hPa 0,0 mm 16,8 km/h (3 Bft) W 261 ° 0 min 0,000 mm 0,0 UV-I 9 W/m² -3,3 °C -0,1 °C 27,4 km/h (4 Bft)
13.03.2019 17:33 3,7 °C 61 % 1012,6 hPa 0,0 mm 13,6 km/h (3 Bft) NW 309 ° 0 min 0,000 mm 0,0 UV-I 7 W/m² -3,1 °C 0,4 °C 20,9 km/h (4 Bft)
13.03.2019 17:34 3,7 °C 61 % 1012,8 hPa 0,0 mm 21,6 km/h (4 Bft) W-NW 293 ° 0 min 0,000 mm 0,0 UV-I 5 W/m² -3,1 °C -0,8 °C 43,5 km/h (6 Bft)
13.03.2019 17:35 3,6 °C 64 % 1012,8 hPa 0,0 mm 30,6 km/h (5 Bft) W-NW 284 ° 0 min 0,000 mm 0,0 UV-I 5 W/m² -2,6 °C -1,8 °C 48,3 km/h (6 Bft)
13.03.2019 17:36 3,4 °C 67 % 1013,2 hPa 0,0 mm 37,3 km/h (5 Bft) W-SW 240 ° 0 min 0,000 mm 0,0 UV-I 5 W/m² -2,1 °C -2,6 °C 54,7 km/h (7 Bft)
13.03.2019 17:37 3,2 °C 73 % 1013,2 hPa 0,0 mm 29,7 km/h (5 Bft) W 266 ° 0 min 0,000 mm 0,0 UV-I 0 W/m² -1,2 °C -2,3 °C 38,6 km/h (5 Bft)
13.03.2019 17:38 2,8 °C 75 % 1013,2 hPa 0,0 mm 17,4 km/h (3 Bft) W 280 ° 0 min 0,000 mm 0,0 UV-I 0 W/m² -1,2 °C -1,3 °C 27,4 km/h (4 Bft)
13.03.2019 17:39 2,6 °C 77 % 1013,2 hPa 0,0 mm 15,8 km/h (3 Bft) W-SW 247 ° 0 min 0,000 mm 0,0 UV-I 7 W/m² -1,0 °C -1,3 °C 24,1 km/h (4 Bft)
13.03.2019 17:40 2,2 °C 78 % 1013,2 hPa 0,0 mm 21,1 km/h (4 Bft) W-NW 302 ° 0 min 0,000 mm 0,0 UV-I 12 W/m² -1,2 °C -2,6 °C 33,8 km/h (5 Bft)
13.03.2019 17:41 1,9 °C 80 % 1013,0 hPa 0,0 mm 22,3 km/h (4 Bft) W-SW 249 ° 0 min 0,000 mm 0,0 UV-I 25 W/m² -1,2 °C -3,1 °C 29,0 km/h (5 Bft)
13.03.2019 17:42 1,6 °C 80 % 1012,9 hPa 0,0 mm 16,4 km/h (3 Bft) W 261 ° 0 min 0,000 mm 0,0 UV-I 35 W/m² -1,5 °C -2,7 °C 22,5 km/h (4 Bft)
13.03.2019 17:43 1,3 °C 82 % 1012,9 hPa 0,0 mm 15,8 km/h (3 Bft) W 264 ° 0 min 0,000 mm 0,0 UV-I 33 W/m² -1,4 °C -3,0 °C 29,0 km/h (5 Bft)
13.03.2019 17:44 1,2 °C 83 % 1012,9 hPa 0,0 mm 16,7 km/h (3 Bft) SW 236 ° 0 min 0,000 mm 0,0 UV-I 30 W/m² -1,4 °C -3,2 °C 27,4 km/h (4 Bft)
13.03.2019 17:45 1,0 °C 84 % 1012,8 hPa 0,0 mm 13,3 km/h (3 Bft) W-SW 244 ° 0 min 0,000 mm 0,0 UV-I 25 W/m² -1,4 °C -2,9 °C 20,9 km/h (4 Bft)
13.03.2019 17:46 0,9 °C 84 % 1012,8 hPa 0,0 mm 11,3 km/h (2 Bft) W 272 ° 0 min 0,000 mm 0,0 UV-I 23 W/m² -1,5 °C -2,6 °C 17,7 km/h (3 Bft)
13.03.2019 17:47 0,8 °C 85 % 1012,7 hPa 0,0 mm 11,0 km/h (2 Bft) SW 218 ° 0 min 0,000 mm 0,0 UV-I 23 W/m² -1,4 °C -2,6 °C 14,5 km/h (3 Bft)
13.03.2019 17:48 0,7 °C 85 % 1012,7 hPa 0,0 mm 6,4 km/h (2 Bft) W-SW 240 ° 0 min 0,000 mm 0,0 UV-I 23 W/m² -1,5 °C -1,4 °C 12,9 km/h (3 Bft)
13.03.2019 17:49 0,6 °C 86 % 1012,7 hPa 0,0 mm 8,1 km/h (2 Bft) W 269 ° 0 min 0,000 mm 0,0 UV-I 21 W/m² -1,5 °C -2,1 °C 11,3 km/h (2 Bft)
13.03.2019 17:50 0,6 °C 86 % 1012,7 hPa 0,0 mm 10,3 km/h (2 Bft) W-SW 246 ° 0 min 0,000 mm 0,0 UV-I 21 W/m² -1,5 °C -2,7 °C 16,1 km/h (3 Bft)
13.03.2019 17:51 0,6 °C 86 % 1012,6 hPa 0,0 mm 16,9 km/h (3 Bft) W-SW 258 ° 0 min 0,000 mm 0,0 UV-I 19 W/m² -1,5 °C -4,0 °C 22,5 km/h (4 Bft)
13.03.2019 17:52 0,5 °C 87 % 1012,4 hPa 0,0 mm 13,9 km/h (3 Bft) W 259 ° 0 min 0,000 mm 0,0 UV-I 18 W/m² -1,4 °C -3,6 °C 16,1 km/h (3 Bft)
13.03.2019 17:53 0,4 °C 87 % 1012,5 hPa 0,0 mm 9,3 km/h (2 Bft) W 271 ° 0 min 0,000 mm 0,0 UV-I 18 W/m² -1,5 °C -2,6 °C 16,1 km/h (3 Bft)
13.03.2019 17:54 0,4 °C 87 % 1012,5 hPa 0,0 mm 11,4 km/h (2 Bft) W 264 ° 0 min 0,000 mm 0,0 UV-I 16 W/m² -1,5 °C -3,2 °C 14,5 km/h (3 Bft)
13.03.2019 17:55 0,4 °C 87 % 1012,6 hPa 0,0 mm 12,9 km/h (3 Bft) W 271 ° 0 min 0,000 mm 0,0 UV-I 14 W/m² -1,5 °C -3,5 °C 22,5 km/h (4 Bft)
13.03.2019 17:56 0,4 °C 87 % 1012,5 hPa 0,0 mm 10,9 km/h (2 Bft) W 275 ° 0 min 0,000 mm 0,0 UV-I 12 W/m² -1,5 °C -3,1 °C 14,5 km/h (3 Bft)
13.03.2019 17:57 0,4 °C 87 % 1012,6 hPa 0,0 mm 5,8 km/h (2 Bft) W-SW 257 ° 0 min 0,000 mm 0,0 UV-I 12 W/m² -1,5 °C -1,5 °C 9,7 km/h (2 Bft)
13.03.2019 17:58 0,4 °C 87 % 1012,6 hPa 0,0 mm 12,7 km/h (3 Bft) W-SW 239 ° 0 min 0,000 mm 0,0 UV-I 12 W/m² -1,5 °C -3,5 °C 16,1 km/h (3 Bft)
13.03.2019 17:59 0,4 °C 87 % 1012,5 hPa 0,0 mm 10,5 km/h (2 Bft) W 274 ° 0 min 0,000 mm 0,0 UV-I 12 W/m² -1,5 °C -3,0 °C 14,5 km/h (3 Bft)
13.03.2019 18:00 0,4 °C 88 % 1012,4 hPa 0,0 mm 9,8 km/h (2 Bft) W-SW 249 ° 0 min 0,000 mm 0,0 UV-I 12 W/m² -1,3 °C -2,8 °C 12,9 km/h (3 Bft)
13.03.2019 18:01 0,4 °C 87 % 1012,4 hPa 0,0 mm 9,6 km/h (2 Bft) W 262 ° 0 min 0,051 mm 0,0 UV-I 12 W/m² -1,5 °C -2,7 °C 14,5 km/h (3 Bft)
13.03.2019 18:02 0,3 °C 88 % 1012,5 hPa 0,0 mm 8,4 km/h (2 Bft) SW 232 ° 0 min 0,000 mm 0,0 UV-I 12 W/m² -1,4 °C -2,5 °C 12,9 km/h (3 Bft)
13.03.2019 18:03 0,4 °C 88 % 1012,5 hPa 0,0 mm 8,7 km/h (2 Bft) W 260 ° 0 min 0,000 mm 0,0 UV-I 12 W/m² -1,3 °C -2,5 °C 11,3 km/h (2 Bft)
13.03.2019 18:04 0,4 °C 88 % 1012,5 hPa 0,0 mm 9,7 km/h (2 Bft) W-SW 246 ° 0 min 0,000 mm 0,0 UV-I 12 W/m² -1,3 °C -2,8 °C 12,9 km/h (3 Bft)
13.03.2019 18:05 0,4 °C 88 % 1012,5 hPa 0,0 mm 5,9 km/h (2 Bft) W 268 ° 0 min 0,000 mm 0,0 UV-I 12 W/m² -1,3 °C -1,5 °C 9,7 km/h (2 Bft)
13.03.2019 18:06 0,3 °C 88 % 1012,5 hPa 0,0 mm 7,5 km/h (2 Bft) W 273 ° 0 min 0,000 mm 0,0 UV-I 12 W/m² -1,4 °C -2,2 °C 14,5 km/h (3 Bft)
13.03.2019 18:07 0,4 °C 87 % 1012,4 hPa 0,0 mm 15,5 km/h (3 Bft) W-SW 252 ° 0 min 0,000 mm 0,0 UV-I 12 W/m² -1,5 °C -4,0 °C 19,3 km/h (3 Bft)
13.03.2019 18:08 0,4 °C 87 % 1012,4 hPa 0,0 mm 10,3 km/h (2 Bft) W-SW 252 ° 0 min 0,000 mm 0,0 UV-I 12 W/m² -1,5 °C -2,9 °C 19,3 km/h (3 Bft)
13.03.2019 18:09 0,4 °C 87 % 1012,5 hPa 0,0 mm 9,6 km/h (2 Bft) W 270 ° 0 min 0,000 mm 0,0 UV-I 11 W/m² -1,5 °C -2,7 °C 16,1 km/h (3 Bft)
13.03.2019 18:10 0,5 °C 87 % 1012,5 hPa 0,0 mm 11,5 km/h (2 Bft) W 261 ° 0 min 0,000 mm 0,0 UV-I 11 W/m² -1,4 °C -3,1 °C 14,5 km/h (3 Bft)
13.03.2019 18:11 0,5 °C 87 % 1012,5 hPa 0,0 mm 7,3 km/h (2 Bft) W-SW 253 ° 0 min 0,000 mm 0,0 UV-I 11 W/m² -1,4 °C -1,9 °C 11,3 km/h (2 Bft)
13.03.2019 18:12 0,6 °C 87 % 1012,5 hPa 0,0 mm 8,6 km/h (2 Bft) W 262 ° 0 min 0,000 mm 0,0 UV-I 11 W/m² -1,3 °C -2,2 °C 11,3 km/h (2 Bft)
13.03.2019 18:13 0,6 °C 86 % 1012,4 hPa 0,0 mm 10,3 km/h (2 Bft) W-SW 240 ° 0 min 0,000 mm 0,0 UV-I 9 W/m² -1,5 °C -2,7 °C 12,9 km/h (3 Bft)
13.03.2019 18:14 0,6 °C 86 % 1012,4 hPa 0,0 mm 9,9 km/h (2 Bft) W-SW 249 ° 0 min 0,000 mm 0,0 UV-I 9 W/m² -1,5 °C -2,6 °C 16,1 km/h (3 Bft)
13.03.2019 18:15 0,6 °C 86 % 1012,4 hPa 0,0 mm 7,4 km/h (2 Bft) S-SW 210 ° 0 min 0,000 mm 0,0 UV-I 7 W/m² -1,5 °C -1,8 °C 14,5 km/h (3 Bft)
13.03.2019 18:16 0,6 °C 86 % 1012,4 hPa 0,0 mm 8,1 km/h (2 Bft) W 259 ° 0 min 0,000 mm 0,0 UV-I 7 W/m² -1,5 °C -2,1 °C 14,5 km/h (3 Bft)
13.03.2019 18:17 0,7 °C 86 % 1012,4 hPa 0,0 mm 12,0 km/h (2 Bft) W 267 ° 0 min 0,000 mm 0,0 UV-I 5 W/m² -1,4 °C -3,0 °C 19,3 km/h (3 Bft)
13.03.2019 18:18 0,7 °C 85 % 1012,4 hPa 0,0 mm 12,6 km/h (3 Bft) W 269 ° 0 min 0,000 mm 0,0 UV-I 5 W/m² -1,5 °C -3,1 °C 20,9 km/h (4 Bft)
13.03.2019 18:19 0,7 °C 85 % 1012,4 hPa 0,0 mm 10,9 km/h (2 Bft) W-SW 247 ° 0 min 0,000 mm 0,0 UV-I 5 W/m² -1,5 °C -2,7 °C 16,1 km/h (3 Bft)
13.03.2019 18:20 0,8 °C 85 % 1012,5 hPa 0,0 mm 13,1 km/h (3 Bft) W 261 ° 0 min 0,000 mm 0,0 UV-I 0 W/m² -1,4 °C -3,1 °C 19,3 km/h (3 Bft)
13.03.2019 18:21 0,8 °C 85 % 1012,5 hPa 0,0 mm 11,9 km/h (2 Bft) S-SW 200 ° 0 min 0,000 mm 0,0 UV-I 0 W/m² -1,4 °C -2,8 °C 17,7 km/h (3 Bft)
13.03.2019 18:22 0,8 °C 85 % 1012,5 hPa 0,0 mm 14,4 km/h (3 Bft) W-SW 258 ° 0 min 0,000 mm 0,0 UV-I 0 W/m² -1,4 °C -3,3 °C 19,3 km/h (3 Bft)
13.03.2019 18:23 0,9 °C 85 % 1012,4 hPa 0,0 mm 15,0 km/h (3 Bft) W 267 ° 0 min 0,000 mm 0,0 UV-I 0 W/m² -1,3 °C -3,3 °C 22,5 km/h (4 Bft)
13.03.2019 18:24 0,9 °C 84 % 1012,5 hPa 0,0 mm 10,3 km/h (2 Bft) W 271 ° 0 min 0,000 mm 0,0 UV-I 0 W/m² -1,5 °C -2,3 °C 17,7 km/h (3 Bft)
13.03.2019 18:25 0,9 °C 84 % 1012,4 hPa 0,0 mm 16,6 km/h (3 Bft) W-SW 251 ° 0 min 0,000 mm 0,0 UV-I 0 W/m² -1,5 °C -3,6 °C 20,9 km/h (4 Bft)
13.03.2019 18:26 0,9 °C 84 % 1012,5 hPa 0,0 mm 13,1 km/h (3 Bft) W 261 ° 0 min 0,000 mm 0,0 UV-I 0 W/m² -1,5 °C -2,9 °C 17,7 km/h (3 Bft)
13.03.2019 18:27 1,0 °C 84 % 1012,4 hPa 0,0 mm 13,7 km/h (3 Bft) W 279 ° 0 min 0,000 mm 0,0 UV-I 0 W/m² -1,4 °C -2,9 °C 22,5 km/h (4 Bft)
13.03.2019 18:28 1,0 °C 83 % 1012,4 hPa 0,0 mm 14,9 km/h (3 Bft) W 259 ° 0 min 0,000 mm 0,0 UV-I 0 W/m² -1,6 °C -3,2 °C 22,5 km/h (4 Bft)
13.03.2019 18:29 1,0 °C 83 % 1012,5 hPa 0,0 mm 9,2 km/h (2 Bft) W 267 ° 0 min 0,000 mm 0,0 UV-I 0 W/m² -1,6 °C -1,9 °C 11,3 km/h (2 Bft)
13.03.2019 18:30 1,0 °C 83 % 1012,4 hPa 0,0 mm 12,5 km/h (3 Bft) W-SW 247 ° 0 min 0,000 mm 0,0 UV-I 0 W/m² -1,6 °C -2,7 °C 16,1 km/h (3 Bft)
13.03.2019 18:31 1,1 °C 83 % 1012,3 hPa 0,0 mm 9,8 km/h (2 Bft) W 260 ° 0 min 0,000 mm 0,0 UV-I 0 W/m² -1,5 °C -1,9 °C 12,9 km/h (3 Bft)
13.03.2019 18:32 1,1 °C 83 % 1012,4 hPa 0,0 mm 11,1 km/h (2 Bft) W-NW 282 ° 0 min 0,000 mm 0,0 UV-I 0 W/m² -1,5 °C -2,3 °C 16,1 km/h (3 Bft)
13.03.2019 18:33 1,1 °C 82 % 1012,3 hPa 0,0 mm 14,0 km/h (3 Bft) W 272 ° 0 min 0,000 mm 0,0 UV-I 0 W/m² -1,6 °C -2,9 °C 17,7 km/h (3 Bft)
13.03.2019 18:34 1,1 °C 82 % 1012,4 hPa 0,0 mm 13,2 km/h (3 Bft) SW 227 ° 0 min 0,000 mm 0,0 UV-I 0 W/m² -1,6 °C -2,7 °C 17,7 km/h (3 Bft)
13.03.2019 18:35 1,1 °C 82 % 1012,3 hPa 0,0 mm 14,0 km/h (3 Bft) W-SW 246 ° 0 min 0,000 mm 0,0 UV-I 0 W/m² -1,6 °C -2,9 °C 19,3 km/h (3 Bft)
13.03.2019 18:36 1,1 °C 82 % 1012,3 hPa 0,0 mm 10,9 km/h (2 Bft) W 259 ° 0 min 0,000 mm 0,0 UV-I 0 W/m² -1,6 °C -2,2 °C 16,1 km/h (3 Bft)
13.03.2019 18:37 1,1 °C 82 % 1012,3 hPa 0,0 mm 13,6 km/h (3 Bft) S-SW 200 ° 0 min 0,000 mm 0,0 UV-I 0 W/m² -1,6 °C -2,8 °C 32,2 km/h (5 Bft)
13.03.2019 18:38 1,1 °C 81 % 1012,3 hPa 0,0 mm 22,9 km/h (4 Bft) S-SW 213 ° 0 min 0,000 mm 0,0 UV-I 0 W/m² -1,8 °C -4,2 °C 37,0 km/h (5 Bft)
13.03.2019 18:39 1,1 °C 81 % 1012,3 hPa 0,0 mm 13,0 km/h (3 Bft) SW 234 ° 0 min 0,000 mm 0,0 UV-I 0 W/m² -1,8 °C -2,7 °C 17,7 km/h (3 Bft)
13.03.2019 18:40 1,2 °C 81 % 1012,3 hPa 0,0 mm 10,3 km/h (2 Bft) W-SW 238 ° 0 min 0,000 mm 0,0 UV-I 0 W/m² -1,7 °C -2,0 °C 22,5 km/h (4 Bft)
13.03.2019 18:41 1,2 °C 80 % 1012,3 hPa 0,0 mm 12,1 km/h (2 Bft) W-SW 251 ° 0 min 0,000 mm 0,0 UV-I 0 W/m² -1,9 °C -2,4 °C 19,3 km/h (3 Bft)
13.03.2019 18:42 1,3 °C 80 % 1012,3 hPa 0,0 mm 13,5 km/h (3 Bft) SW 234 ° 0 min 0,000 mm 0,0 UV-I 0 W/m² -1,8 °C -2,5 °C 17,7 km/h (3 Bft)
13.03.2019 18:43 1,3 °C 80 % 1012,4 hPa 0,0 mm 11,0 km/h (2 Bft) W 265 ° 0 min 0,000 mm 0,0 UV-I 0 W/m² -1,8 °C -2,0 °C 16,1 km/h (3 Bft)
13.03.2019 18:44 1,3 °C 80 % 1012,4 hPa 0,0 mm 13,3 km/h (3 Bft) W-SW 258 ° 0 min 0,000 mm 0,0 UV-I 0 W/m² -1,8 °C -2,5 °C 17,7 km/h (3 Bft)
13.03.2019 18:45 1,3 °C 80 % 1012,4 hPa 0,0 mm 20,5 km/h (4 Bft) W-SW 251 ° 0 min 0,000 mm 0,0 UV-I 0 W/m² -1,8 °C -3,7 °C 29,0 km/h (5 Bft)
13.03.2019 18:46 1,3 °C 80 % 1012,4 hPa 0,0 mm 17,4 km/h (3 Bft) W-SW 250 ° 0 min 0,000 mm 0,0 UV-I 0 W/m² -1,8 °C -3,2 °C 27,4 km/h (4 Bft)
13.03.2019 18:47 1,3 °C 79 % 1012,4 hPa 0,0 mm 11,6 km/h (2 Bft) W 265 ° 0 min 0,000 mm 0,0 UV-I 0 W/m² -1,9 °C -2,1 °C 17,7 km/h (3 Bft)
13.03.2019 18:48 1,3 °C 79 % 1012,4 hPa 0,0 mm 16,7 km/h (3 Bft) S-SW 194 ° 0 min 0,000 mm 0,0 UV-I 0 W/m² -1,9 °C -3,1 °C 27,4 km/h (4 Bft)
13.03.2019 18:49 1,3 °C 79 % 1012,4 hPa 0,0 mm 16,1 km/h (3 Bft) W 259 ° 0 min 0,000 mm 0,0 UV-I 0 W/m² -1,9 °C -3,0 °C 25,7 km/h (4 Bft)
13.03.2019 18:50 1,3 °C 79 % 1012,4 hPa 0,0 mm 16,7 km/h (3 Bft) W-SW 242 ° 0 min 0,000 mm 0,0 UV-I 0 W/m² -1,9 °C -3,1 °C 24,1 km/h (4 Bft)
13.03.2019 18:51 1,4 °C 79 % 1012,4 hPa 0,0 mm 14,3 km/h (3 Bft) W 267 ° 0 min 0,000 mm 0,0 UV-I 0 W/m² -1,8 °C -2,6 °C 20,9 km/h (4 Bft)
13.03.2019 18:52 1,3 °C 79 % 1012,4 hPa 0,0 mm 11,7 km/h (2 Bft) S-SW 194 ° 0 min 0,000 mm 0,0 UV-I 0 W/m² -1,9 °C -2,2 °C 16,1 km/h (3 Bft)
13.03.2019 18:53 1,3 °C 79 % 1012,4 hPa 0,0 mm 13,8 km/h (3 Bft) W 263 ° 0 min 0,000 mm 0,0 UV-I 0 W/m² -1,9 °C -2,6 °C 19,3 km/h (3 Bft)
13.03.2019 18:54 1,3 °C 79 % 1012,4 hPa 0,0 mm 15,6 km/h (3 Bft) W-SW 247 ° 0 min 0,000 mm 0,0 UV-I 0 W/m² -1,9 °C -2,9 °C 20,9 km/h (4 Bft)
13.03.2019 18:55 1,3 °C 79 % 1012,4 hPa 0,0 mm 15,7 km/h (3 Bft) W 261 ° 0 min 0,000 mm 0,0 UV-I 0 W/m² -1,9 °C -2,9 °C 25,7 km/h (4 Bft)
13.03.2019 18:56 1,3 °C 79 % 1012,4 hPa 0,0 mm 11,9 km/h (2 Bft) W 271 ° 0 min 0,000 mm 0,0 UV-I 0 W/m² -1,9 °C -2,2 °C 19,3 km/h (3 Bft)
13.03.2019 18:57 1,3 °C 79 % 1012,4 hPa 0,0 mm 14,3 km/h (3 Bft) W 261 ° 0 min 0,000 mm 0,0 UV-I 0 W/m² -1,9 °C -2,7 °C 20,9 km/h (4 Bft)
13.03.2019 18:58 1,3 °C 78 % 1012,4 hPa 0,0 mm 11,9 km/h (2 Bft) W 260 ° 0 min 0,000 mm 0,0 UV-I 0 W/m² -2,1 °C -2,2 °C 19,3 km/h (3 Bft)
13.03.2019 18:59 1,4 °C 78 % 1012,3 hPa 0,0 mm 13,5 km/h (3 Bft) W-SW 257 ° 0 min 0,000 mm 0,0 UV-I 0 W/m² -2,0 °C -2,4 °C 16,1 km/h (3 Bft)
13.03.2019 19:00 1,4 °C 78 % 1012,4 hPa 0,0 mm 16,0 km/h (3 Bft) W-SW 240 ° 0 min 0,025 mm 0,0 UV-I 0 W/m² -2,0 °C -2,9 °C 19,3 km/h (3 Bft)
13.03.2019 19:01 1,4 °C 78 % 1012,4 hPa 0,0 mm 11,5 km/h (2 Bft) S-SW 205 ° 0 min 0,000 mm 0,0 UV-I 0 W/m² -2,0 °C -2,0 °C 17,7 km/h (3 Bft)
13.03.2019 19:02 1,4 °C 78 % 1012,4 hPa 0,0 mm 15,3 km/h (3 Bft) W-SW 252 ° 0 min 0,000 mm 0,0 UV-I 0 W/m² -2,0 °C -2,7 °C 29,0 km/h (5 Bft)
13.03.2019 19:03 1,4 °C 78 % 1012,4 hPa 0,0 mm 18,0 km/h (3 Bft) W 280 ° 0 min 0,000 mm 0,0 UV-I 0 W/m² -2,0 °C -3,2 °C 30,6 km/h (5 Bft)
13.03.2019 19:04 1,4 °C 78 % 1012,4 hPa 0,0 mm 17,6 km/h (3 Bft) NW 309 ° 0 min 0,000 mm 0,0 UV-I 0 W/m² -2,0 °C -3,1 °C 27,4 km/h (4 Bft)
13.03.2019 19:05 1,5 °C 78 % 1012,4 hPa 0,0 mm 13,5 km/h (3 Bft) SW 223 ° 0 min 0,000 mm 0,0 UV-I 0 W/m² -1,9 °C -2,3 °C 19,3 km/h (3 Bft)
13.03.2019 19:06 1,6 °C 77 % 1012,4 hPa 0,0 mm 17,4 km/h (3 Bft) W-SW 251 ° 0 min 0,000 mm 0,0 UV-I 0 W/m² -2,0 °C -2,8 °C 24,1 km/h (4 Bft)
13.03.2019 19:07 1,6 °C 77 % 1012,4 hPa 0,0 mm 23,3 km/h (4 Bft) W-SW 252 ° 0 min 0,000 mm 0,0 UV-I 0 W/m² -2,0 °C -3,7 °C 33,8 km/h (5 Bft)
13.03.2019 19:08 1,5 °C 77 % 1012,3 hPa 0,0 mm 12,2 km/h (2 Bft) W 281 ° 0 min 0,000 mm 0,0 UV-I 0 W/m² -2,1 °C -2,0 °C 20,9 km/h (4 Bft)
13.03.2019 19:09 1,6 °C 77 % 1012,3 hPa 0,0 mm 16,4 km/h (3 Bft) W-SW 244 ° 0 min 0,000 mm 0,0 UV-I 0 W/m² -2,0 °C -2,7 °C 24,1 km/h (4 Bft)
13.03.2019 19:10 1,6 °C 77 % 1012,3 hPa 0,0 mm 14,6 km/h (3 Bft) W-SW 249 ° 0 min 0,000 mm 0,0 UV-I 0 W/m² -2,0 °C -2,4 °C 24,1 km/h (4 Bft)
13.03.2019 19:11 1,6 °C 77 % 1012,3 hPa 0,0 mm 12,3 km/h (3 Bft) S-SW 205 ° 0 min 0,000 mm 0,0 UV-I 0 W/m² -2,0 °C -1,9 °C 19,3 km/h (3 Bft)
13.03.2019 19:12 1,6 °C 77 % 1012,3 hPa 0,0 mm 12,1 km/h (2 Bft) W-SW 258 ° 0 min 0,000 mm 0,0 UV-I 0 W/m² -2,0 °C -1,9 °C 17,7 km/h (3 Bft)
13.03.2019 19:13 1,5 °C 77 % 1012,3 hPa 0,0 mm 17,8 km/h (3 Bft) W 275 ° 0 min 0,000 mm 0,0 UV-I 0 W/m² -2,1 °C -3,0 °C 24,1 km/h (4 Bft)
13.03.2019 19:14 1,5 °C 78 % 1012,3 hPa 0,0 mm 14,6 km/h (3 Bft) S 190 ° 0 min 0,000 mm 0,0 UV-I 0 W/m² -1,9 °C -2,5 °C 24,1 km/h (4 Bft)
13.03.2019 19:15 1,5 °C 78 % 1012,3 hPa 0,0 mm 16,6 km/h (3 Bft) W-SW 250 ° 0 min 0,000 mm 0,0 UV-I 0 W/m² -1,9 °C -2,8 °C 24,1 km/h (4 Bft)
13.03.2019 19:16 1,5 °C 78 % 1012,3 hPa 0,0 mm 21,6 km/h (4 Bft) W-SW 243 ° 0 min 0,000 mm 0,0 UV-I 0 W/m² -1,9 °C -3,6 °C 30,6 km/h (5 Bft)
13.03.2019 19:17 1,4 °C 78 % 1012,2 hPa 0,0 mm 10,2 km/h (2 Bft) S-SW 205 ° 0 min 0,000 mm 0,0 UV-I 0 W/m² -2,0 °C -1,7 °C 19,3 km/h (3 Bft)
13.03.2019 19:18 1,4 °C 78 % 1012,2 hPa 0,0 mm 15,5 km/h (3 Bft) W-SW 246 ° 0 min 0,000 mm 0,0 UV-I 0 W/m² -2,0 °C -2,8 °C 20,9 km/h (4 Bft)
13.03.2019 19:19 1,4 °C 78 % 1012,2 hPa 0,0 mm 13,0 km/h (3 Bft) W-SW 237 ° 0 min 0,000 mm 0,0 UV-I 0 W/m² -2,0 °C -2,3 °C 19,3 km/h (3 Bft)
13.03.2019 19:20 1,4 °C 78 % 1012,2 hPa 0,0 mm 14,3 km/h (3 Bft) W 280 ° 0 min 0,000 mm 0,0 UV-I 0 W/m² -2,0 °C -2,6 °C 19,3 km/h (3 Bft)
13.03.2019 19:21 1,4 °C 78 % 1012,3 hPa 0,0 mm 19,5 km/h (3 Bft) NW 304 ° 0 min 0,000 mm 0,0 UV-I 0 W/m² -2,0 °C -3,4 °C 24,1 km/h (4 Bft)
13.03.2019 19:22 1,4 °C 78 % 1012,2 hPa 0,0 mm 17,3 km/h (3 Bft) W 273 ° 0 min 0,000 mm 0,0 UV-I 0 W/m² -2,0 °C -3,1 °C 22,5 km/h (4 Bft)
13.03.2019 19:23 1,3 °C 78 % 1012,2 hPa 0,0 mm 17,6 km/h (3 Bft) W 263 ° 0 min 0,000 mm 0,0 UV-I 0 W/m² -2,1 °C -3,2 °C 24,1 km/h (4 Bft)
13.03.2019 19:24 1,3 °C 78 % 1012,4 hPa 0,0 mm 17,2 km/h (3 Bft) W-NW 283 ° 0 min 0,000 mm 0,0 UV-I 0 W/m² -2,1 °C -3,2 °C 25,7 km/h (4 Bft)
13.03.2019 19:25 1,3 °C 78 % 1012,3 hPa 0,0 mm 15,0 km/h (3 Bft) SW 225 ° 0 min 0,000 mm 0,0 UV-I 0 W/m² -2,1 °C -2,8 °C 27,4 km/h (4 Bft)
13.03.2019 19:26 1,3 °C 78 % 1012,4 hPa 0,0 mm 14,6 km/h (3 Bft) W-SW 256 ° 0 min 0,000 mm 0,0 UV-I 0 W/m² -2,1 °C -2,7 °C 27,4 km/h (4 Bft)
13.03.2019 19:27 1,3 °C 78 % 1012,4 hPa 0,0 mm 11,2 km/h (2 Bft) W 268 ° 0 min 0,000 mm 0,0 UV-I 0 W/m² -2,1 °C -2,0 °C 20,9 km/h (4 Bft)
13.03.2019 19:28 1,3 °C 78 % 1012,3 hPa 0,0 mm 13,5 km/h (3 Bft) W-SW 249 ° 0 min 0,000 mm 0,0 UV-I 0 W/m² -2,1 °C -2,5 °C 19,3 km/h (3 Bft)
13.03.2019 19:29 1,3 °C 78 % 1012,4 hPa 0,0 mm 14,7 km/h (3 Bft) W 259 ° 0 min 0,000 mm 0,0 UV-I 0 W/m² -2,1 °C -2,8 °C 29,0 km/h (5 Bft)
13.03.2019 19:30 1,3 °C 78 % 1012,4 hPa 0,0 mm 17,5 km/h (3 Bft) W 269 ° 0 min 0,000 mm 0,0 UV-I 0 W/m² -2,1 °C -3,2 °C 29,0 km/h (5 Bft)
13.03.2019 19:31 1,3 °C 79 % 1012,4 hPa 0,0 mm 22,8 km/h (4 Bft) SW 216 ° 0 min 0,000 mm 0,0 UV-I 0 W/m² -1,9 °C -4,0 °C 41,8 km/h (6 Bft)
13.03.2019 19:32 1,3 °C 79 % 1012,4 hPa 0,0 mm 23,2 km/h (4 Bft) W 259 ° 0 min 0,000 mm 0,0 UV-I 0 W/m² -1,9 °C -4,0 °C 33,8 km/h (5 Bft)
13.03.2019 19:33 1,3 °C 79 % 1012,4 hPa 0,0 mm 17,4 km/h (3 Bft) W 263 ° 0 min 0,000 mm 0,0 UV-I 0 W/m² -1,9 °C -3,2 °C 29,0 km/h (5 Bft)
13.03.2019 19:34 1,3 °C 79 % 1012,4 hPa 0,0 mm 19,9 km/h (4 Bft) W 259 ° 0 min 0,000 mm 0,0 UV-I 0 W/m² -1,9 °C -3,6 °C 24,1 km/h (4 Bft)
13.03.2019 19:35 1,3 °C 79 % 1012,4 hPa 0,0 mm 14,6 km/h (3 Bft) W-SW 257 ° 0 min 0,000 mm 0,0 UV-I 0 W/m² -1,9 °C -2,7 °C 24,1 km/h (4 Bft)
13.03.2019 19:36 1,2 °C 80 % 1012,4 hPa 0,0 mm 12,0 km/h (2 Bft) W-SW 250 ° 0 min 0,000 mm 0,0 UV-I 0 W/m² -1,9 °C -2,3 °C 19,3 km/h (3 Bft)
13.03.2019 19:37 1,2 °C 80 % 1012,4 hPa 0,0 mm 12,9 km/h (3 Bft) W 263 ° 0 min 0,000 mm 0,0 UV-I 0 W/m² -1,9 °C -2,5 °C 19,3 km/h (3 Bft)
13.03.2019 19:38 1,2 °C 80 % 1012,4 hPa 0,0 mm 15,4 km/h (3 Bft) SW 215 ° 0 min 0,000 mm 0,0 UV-I 0 W/m² -1,9 °C -3,0 °C 29,0 km/h (5 Bft)
13.03.2019 19:39 1,2 °C 80 % 1012,4 hPa 0,0 mm 13,0 km/h (3 Bft) W-SW 250 ° 0 min 0,000 mm 0,0 UV-I 0 W/m² -1,9 °C -2,6 °C 19,3 km/h (3 Bft)
13.03.2019 19:40 1,2 °C 79 % 1012,4 hPa 0,0 mm 15,3 km/h (3 Bft) W-SW 250 ° 0 min 0,000 mm 0,0 UV-I 0 W/m² -2,0 °C -3,0 °C 24,1 km/h (4 Bft)
13.03.2019 19:41 1,2 °C 80 % 1012,4 hPa 0,0 mm 13,8 km/h (3 Bft) W-NW 284 ° 0 min 0,000 mm 0,0 UV-I 0 W/m² -1,9 °C -2,7 °C 24,1 km/h (4 Bft)
13.03.2019 19:42 1,2 °C 79 % 1012,4 hPa 0,0 mm 14,0 km/h (3 Bft) W 266 ° 0 min 0,000 mm 0,0 UV-I 0 W/m² -2,0 °C -2,8 °C 19,3 km/h (3 Bft)
13.03.2019 19:43 1,2 °C 79 % 1012,4 hPa 0,0 mm 12,3 km/h (3 Bft) W 267 ° 0 min 0,000 mm 0,0 UV-I 0 W/m² -2,0 °C -2,4 °C 17,7 km/h (3 Bft)
13.03.2019 19:44 1,2 °C 79 % 1012,4 hPa 0,0 mm 9,9 km/h (2 Bft) W 278 ° 0 min 0,000 mm 0,0 UV-I 0 W/m² -2,0 °C -1,9 °C 16,1 km/h (3 Bft)
13.03.2019 19:45 1,2 °C 79 % 1012,4 hPa 0,0 mm 16,9 km/h (3 Bft) W-SW 237 ° 0 min 0,000 mm 0,0 UV-I 0 W/m² -2,0 °C -3,3 °C 22,5 km/h (4 Bft)
13.03.2019 19:46 1,2 °C 79 % 1012,4 hPa 0,0 mm 16,0 km/h (3 Bft) SW 229 ° 0 min 0,000 mm 0,0 UV-I 0 W/m² -2,0 °C -3,1 °C 24,1 km/h (4 Bft)
13.03.2019 19:47 1,2 °C 79 % 1012,5 hPa 0,0 mm 21,8 km/h (4 Bft) W 271 ° 0 min 0,000 mm 0,0 UV-I 0 W/m² -2,0 °C -4,0 °C 30,6 km/h (5 Bft)
13.03.2019 19:48 1,2 °C 79 % 1012,4 hPa 0,0 mm 11,6 km/h (2 Bft) S-SW 205 ° 0 min 0,000 mm 0,0 UV-I 0 W/m² -2,0 °C -2,3 °C 16,1 km/h (3 Bft)
13.03.2019 19:49 1,2 °C 78 % 1012,3 hPa 0,0 mm 13,1 km/h (3 Bft) W 265 ° 0 min 0,000 mm 0,0 UV-I 0 W/m² -2,2 °C -2,6 °C 16,1 km/h (3 Bft)
13.03.2019 19:50 1,2 °C 78 % 1012,3 hPa 0,0 mm 10,3 km/h (2 Bft) S 174 ° 0 min 0,000 mm 0,0 UV-I 0 W/m² -2,2 °C -2,0 °C 14,5 km/h (3 Bft)
13.03.2019 19:51 1,2 °C 78 % 1012,3 hPa 0,0 mm 11,4 km/h (2 Bft) W-SW 255 ° 0 min 0,000 mm 0,0 UV-I 0 W/m² -2,2 °C -2,2 °C 19,3 km/h (3 Bft)
13.03.2019 19:52 1,3 °C 78 % 1012,3 hPa 0,0 mm 12,5 km/h (3 Bft) W-NW 283 ° 0 min 0,000 mm 0,0 UV-I 0 W/m² -2,1 °C -2,3 °C 19,3 km/h (3 Bft)
13.03.2019 19:53 1,2 °C 78 % 1012,3 hPa 0,0 mm 12,7 km/h (3 Bft) W 265 ° 0 min 0,000 mm 0,0 UV-I 0 W/m² -2,2 °C -2,5 °C 19,3 km/h (3 Bft)
13.03.2019 19:54 1,2 °C 78 % 1012,4 hPa 0,0 mm 15,0 km/h (3 Bft) W 273 ° 0 min 0,000 mm 0,0 UV-I 0 W/m² -2,2 °C -2,9 °C 20,9 km/h (4 Bft)
13.03.2019 19:55 1,2 °C 78 % 1012,4 hPa 0,0 mm 13,1 km/h (3 Bft) SW 234 ° 0 min 0,000 mm 0,0 UV-I 0 W/m² -2,2 °C -2,6 °C 20,9 km/h (4 Bft)
13.03.2019 19:56 1,2 °C 78 % 1012,3 hPa 0,0 mm 12,3 km/h (3 Bft) W 260 ° 0 min 0,000 mm 0,0 UV-I 0 W/m² -2,2 °C -2,4 °C 17,7 km/h (3 Bft)
13.03.2019 19:57 1,2 °C 77 % 1012,4 hPa 0,0 mm 9,6 km/h (2 Bft) S-SW 202 ° 0 min 0,000 mm 0,0 UV-I 0 W/m² -2,4 °C -1,8 °C 12,9 km/h (3 Bft)
13.03.2019 19:58 1,2 °C 77 % 1012,3 hPa 0,0 mm 12,3 km/h (3 Bft) S-SW 202 ° 0 min 0,000 mm 0,0 UV-I 0 W/m² -2,4 °C -2,4 °C 24,1 km/h (4 Bft)
13.03.2019 19:59 1,3 °C 77 % 1012,4 hPa 0,0 mm 15,0 km/h (3 Bft) W-SW 255 ° 0 min 0,000 mm 0,0 UV-I 0 W/m² -2,3 °C -2,8 °C 20,9 km/h (4 Bft)
13.03.2019 20:00 1,3 °C 76 % 1012,3 hPa 0,0 mm 13,1 km/h (3 Bft) W-SW 257 ° 0 min 0,000 mm 0,0 UV-I 0 W/m² -2,5 °C -2,5 °C 20,9 km/h (4 Bft)
13.03.2019 20:01 1,3 °C 77 % 1012,4 hPa 0,0 mm 8,7 km/h (2 Bft) W 261 ° 0 min 0,026 mm 0,0 UV-I 0 W/m² -2,3 °C -1,4 °C 16,1 km/h (3 Bft)
13.03.2019 20:02 1,3 °C 76 % 1012,3 hPa 0,0 mm 10,2 km/h (2 Bft) SW 232 ° 0 min 0,000 mm 0,0 UV-I 0 W/m² -2,5 °C -1,8 °C 17,7 km/h (3 Bft)
13.03.2019 20:03 1,3 °C 76 % 1012,4 hPa 0,0 mm 15,2 km/h (3 Bft) W 264 ° 0 min 0,000 mm 0,0 UV-I 0 W/m² -2,5 °C -2,8 °C 20,9 km/h (4 Bft)
13.03.2019 20:04 1,4 °C 76 % 1012,3 hPa 0,0 mm 16,8 km/h (3 Bft) SW 232 ° 0 min 0,000 mm 0,0 UV-I 0 W/m² -2,4 °C -3,0 °C 19,3 km/h (3 Bft)
13.03.2019 20:05 1,4 °C 76 % 1012,3 hPa 0,0 mm 11,1 km/h (2 Bft) W 275 ° 0 min 0,000 mm 0,0 UV-I 0 W/m² -2,4 °C -1,9 °C 14,5 km/h (3 Bft)
13.03.2019 20:06 1,4 °C 76 % 1012,3 hPa 0,0 mm 8,4 km/h (2 Bft) W-NW 288 ° 0 min 0,000 mm 0,0 UV-I 0 W/m² -2,4 °C -1,2 °C 14,5 km/h (3 Bft)
13.03.2019 20:07 1,4 °C 75 % 1012,3 hPa 0,0 mm 15,0 km/h (3 Bft) SW 225 ° 0 min 0,000 mm 0,0 UV-I 0 W/m² -2,5 °C -2,7 °C 19,3 km/h (3 Bft)
13.03.2019 20:08 1,5 °C 75 % 1012,3 hPa 0,0 mm 13,8 km/h (3 Bft) W 268 ° 0 min 0,000 mm 0,0 UV-I 0 W/m² -2,4 °C -2,3 °C 27,4 km/h (4 Bft)
13.03.2019 20:09 1,6 °C 75 % 1012,3 hPa 0,0 mm 12,4 km/h (3 Bft) W-SW 257 ° 0 min 0,000 mm 0,0 UV-I 0 W/m² -2,3 °C -1,9 °C 19,3 km/h (3 Bft)
13.03.2019 20:10 1,6 °C 75 % 1012,4 hPa 0,0 mm 16,9 km/h (3 Bft) W-SW 240 ° 0 min 0,000 mm 0,0 UV-I 0 W/m² -2,3 °C -2,8 °C 25,7 km/h (4 Bft)
13.03.2019 20:11 1,6 °C 74 % 1012,3 hPa 0,0 mm 20,9 km/h (4 Bft) W 260 ° 0 min 0,000 mm 0,0 UV-I 0 W/m² -2,5 °C -3,3 °C 35,4 km/h (5 Bft)
13.03.2019 20:12 1,7 °C 74 % 1012,3 hPa 0,0 mm 11,0 km/h (2 Bft) SW 229 ° 0 min 0,000 mm 0,0 UV-I 0 W/m² -2,4 °C -1,5 °C 16,1 km/h (3 Bft)
13.03.2019 20:13 1,7 °C 74 % 1012,4 hPa 0,0 mm 11,3 km/h (2 Bft) W 260 ° 0 min 0,000 mm 0,0 UV-I 0 W/m² -2,4 °C -1,6 °C 19,3 km/h (3 Bft)
13.03.2019 20:14 1,8 °C 73 % 1012,3 hPa 0,0 mm 16,4 km/h (3 Bft) W-SW 243 ° 0 min 0,000 mm 0,0 UV-I 0 W/m² -2,5 °C -2,4 °C 22,5 km/h (4 Bft)
13.03.2019 20:15 1,8 °C 73 % 1012,4 hPa 0,0 mm 16,8 km/h (3 Bft) W 269 ° 0 min 0,000 mm 0,0 UV-I 0 W/m² -2,5 °C -2,5 °C 22,5 km/h (4 Bft)
13.03.2019 20:16 1,9 °C 73 % 1012,3 hPa 0,0 mm 13,8 km/h (3 Bft) SW 230 ° 0 min 0,000 mm 0,0 UV-I 0 W/m² -2,4 °C -1,9 °C 20,9 km/h (4 Bft)
13.03.2019 20:17 1,9 °C 73 % 1012,4 hPa 0,0 mm 18,0 km/h (3 Bft) SW 234 ° 0 min 0,000 mm 0,0 UV-I 0 W/m² -2,4 °C -2,6 °C 24,1 km/h (4 Bft)
13.03.2019 20:18 1,9 °C 73 % 1012,4 hPa 0,0 mm 8,7 km/h (2 Bft) W-SW 257 ° 0 min 0,000 mm 0,0 UV-I 0 W/m² -2,4 °C -0,7 °C 14,5 km/h (3 Bft)
13.03.2019 20:19 1,9 °C 72 % 1012,4 hPa 0,0 mm 16,8 km/h (3 Bft) W-SW 244 ° 0 min 0,000 mm 0,0 UV-I 0 W/m² -2,6 °C -2,4 °C 29,0 km/h (5 Bft)
13.03.2019 20:20 2,0 °C 72 % 1012,3 hPa 0,0 mm 20,2 km/h (4 Bft) SW 220 ° 0 min 0,000 mm 0,0 UV-I 0 W/m² -2,5 °C -2,7 °C 27,4 km/h (4 Bft)
13.03.2019 20:21 2,0 °C 72 % 1012,3 hPa 0,0 mm 19,2 km/h (3 Bft) W 265 ° 0 min 0,000 mm 0,0 UV-I 0 W/m² -2,5 °C -2,6 °C 27,4 km/h (4 Bft)
13.03.2019 20:22 2,1 °C 72 % 1012,4 hPa 0,0 mm 15,6 km/h (3 Bft) W 259 ° 0 min 0,000 mm 0,0 UV-I 0 W/m² -2,4 °C -1,9 °C 20,9 km/h (4 Bft)
13.03.2019 20:23 2,1 °C 72 % 1012,3 hPa 0,0 mm 11,0 km/h (2 Bft) W-SW 254 ° 0 min 0,000 mm 0,0 UV-I 0 W/m² -2,4 °C -1,0 °C 16,1 km/h (3 Bft)
13.03.2019 20:24 2,1 °C 72 % 1012,3 hPa 0,0 mm 15,0 km/h (3 Bft) W-SW 247 ° 0 min 0,000 mm 0,0 UV-I 0 W/m² -2,4 °C -1,8 °C 22,5 km/h (4 Bft)
13.03.2019 20:25 2,1 °C 72 % 1012,3 hPa 0,0 mm 11,2 km/h (2 Bft) W 264 ° 0 min 0,000 mm 0,0 UV-I 0 W/m² -2,4 °C -1,1 °C 19,3 km/h (3 Bft)
13.03.2019 20:26 2,1 °C 71 % 1012,4 hPa 0,0 mm 18,8 km/h (3 Bft) W-NW 294 ° 0 min 0,000 mm 0,0 UV-I 0 W/m² -2,6 °C -2,4 °C 29,0 km/h (5 Bft)
13.03.2019 20:27 2,1 °C 71 % 1012,3 hPa 0,0 mm 19,1 km/h (3 Bft) W 279 ° 0 min 0,000 mm 0,0 UV-I 0 W/m² -2,6 °C -2,5 °C 25,7 km/h (4 Bft)
13.03.2019 20:28 2,2 °C 71 % 1012,3 hPa 0,0 mm 14,1 km/h (3 Bft) SW 233 ° 0 min 0,000 mm 0,0 UV-I 0 W/m² -2,5 °C -1,5 °C 25,7 km/h (4 Bft)
13.03.2019 20:29 2,2 °C 71 % 1012,3 hPa 0,0 mm 17,7 km/h (3 Bft) S-SO 164 ° 0 min 0,000 mm 0,0 UV-I 0 W/m² -2,5 °C -2,1 °C 25,7 km/h (4 Bft)
13.03.2019 20:30 2,2 °C 70 % 1012,3 hPa 0,0 mm 16,6 km/h (3 Bft) W-NW 290 ° 0 min 0,000 mm 0,0 UV-I 0 W/m² -2,7 °C -2,0 °C 24,1 km/h (4 Bft)
13.03.2019 20:31 2,2 °C 71 % 1012,3 hPa 0,0 mm 18,8 km/h (3 Bft) W-NW 301 ° 0 min 0,000 mm 0,0 UV-I 0 W/m² -2,5 °C -2,3 °C 30,6 km/h (5 Bft)
13.03.2019 20:32 2,2 °C 71 % 1012,3 hPa 0,0 mm 12,2 km/h (2 Bft) W 271 ° 0 min 0,000 mm 0,0 UV-I 0 W/m² -2,5 °C -1,2 °C 17,7 km/h (3 Bft)
13.03.2019 20:33 2,2 °C 70 % 1012,4 hPa 0,0 mm 21,8 km/h (4 Bft) W 264 ° 0 min 0,000 mm 0,0 UV-I 0 W/m² -2,7 °C -2,7 °C 33,8 km/h (5 Bft)
13.03.2019 20:34 2,3 °C 70 % 1012,3 hPa 0,0 mm 17,1 km/h (3 Bft) W-SW 258 ° 0 min 0,000 mm 0,0 UV-I 0 W/m² -2,6 °C -1,9 °C 27,4 km/h (4 Bft)
13.03.2019 20:35 2,3 °C 70 % 1012,4 hPa 0,0 mm 12,4 km/h (3 Bft) W-NW 298 ° 0 min 0,000 mm 0,0 UV-I 0 W/m² -2,6 °C -1,1 °C 17,7 km/h (3 Bft)
13.03.2019 20:36 2,3 °C 70 % 1012,4 hPa 0,0 mm 15,8 km/h (3 Bft) W 269 ° 0 min 0,000 mm 0,0 UV-I 0 W/m² -2,6 °C -1,7 °C 20,9 km/h (4 Bft)
13.03.2019 20:37 2,3 °C 70 % 1012,4 hPa 0,0 mm 14,1 km/h (3 Bft) SW 236 ° 0 min 0,000 mm 0,0 UV-I 0 W/m² -2,6 °C -1,4 °C 19,3 km/h (3 Bft)
13.03.2019 20:38 2,3 °C 70 % 1012,4 hPa 0,0 mm 11,1 km/h (2 Bft) W-SW 251 ° 0 min 0,000 mm 0,0 UV-I 0 W/m² -2,6 °C -0,8 °C 17,7 km/h (3 Bft)
13.03.2019 20:39 2,3 °C 70 % 1012,4 hPa 0,0 mm 13,1 km/h (3 Bft) W 263 ° 0 min 0,000 mm 0,0 UV-I 0 W/m² -2,6 °C -1,2 °C 22,5 km/h (4 Bft)
13.03.2019 20:40 2,3 °C 70 % 1012,4 hPa 0,0 mm 13,1 km/h (3 Bft) W 277 ° 0 min 0,000 mm 0,0 UV-I 0 W/m² -2,6 °C -1,2 °C 17,7 km/h (3 Bft)
13.03.2019 20:41 2,3 °C 70 % 1012,4 hPa 0,0 mm 14,1 km/h (3 Bft) W-NW 290 ° 0 min 0,000 mm 0,0 UV-I 0 W/m² -2,6 °C -1,4 °C 17,7 km/h (3 Bft)
13.03.2019 20:42 2,2 °C 70 % 1012,4 hPa 0,0 mm 15,2 km/h (3 Bft) W 277 ° 0 min 0,000 mm 0,0 UV-I 0 W/m² -2,7 °C -1,7 °C 27,4 km/h (4 Bft)
13.03.2019 20:43 2,2 °C 70 % 1012,4 hPa 0,0 mm 13,6 km/h (3 Bft) W-SW 247 ° 0 min 0,000 mm 0,0 UV-I 0 W/m² -2,7 °C -1,5 °C 22,5 km/h (4 Bft)
13.03.2019 20:44 2,2 °C 70 % 1012,5 hPa 0,0 mm 19,9 km/h (4 Bft) W-SW 248 ° 0 min 0,000 mm 0,0 UV-I 0 W/m² -2,7 °C -2,5 °C 27,4 km/h (4 Bft)
13.03.2019 20:45 2,2 °C 71 % 1012,5 hPa 0,0 mm 18,6 km/h (3 Bft) W-SW 256 ° 0 min 0,000 mm 0,0 UV-I 0 W/m² -2,5 °C -2,3 °C 24,1 km/h (4 Bft)
13.03.2019 20:46 2,2 °C 71 % 1012,5 hPa 0,0 mm 14,1 km/h (3 Bft) SW 219 ° 0 min 0,000 mm 0,0 UV-I 0 W/m² -2,5 °C -1,5 °C 19,3 km/h (3 Bft)
13.03.2019 20:47 2,2 °C 71 % 1012,5 hPa 0,0 mm 21,3 km/h (4 Bft) SW 236 ° 0 min 0,000 mm 0,0 UV-I 0 W/m² -2,5 °C -2,6 °C 32,2 km/h (5 Bft)
13.03.2019 20:48 2,2 °C 70 % 1012,4 hPa 0,0 mm 16,0 km/h (3 Bft) W-SW 238 ° 0 min 0,000 mm 0,0 UV-I 0 W/m² -2,7 °C -1,9 °C 24,1 km/h (4 Bft)
13.03.2019 20:49 2,2 °C 70 % 1012,4 hPa 0,0 mm 12,0 km/h (2 Bft) W 263 ° 0 min 0,000 mm 0,0 UV-I 0 W/m² -2,7 °C -1,1 °C 14,5 km/h (3 Bft)
13.03.2019 20:50 2,2 °C 70 % 1012,4 hPa 0,0 mm 12,9 km/h (3 Bft) W 261 ° 0 min 0,000 mm 0,0 UV-I 0 W/m² -2,7 °C -1,3 °C 24,1 km/h (4 Bft)
13.03.2019 20:51 2,3 °C 70 % 1012,5 hPa 0,0 mm 15,1 km/h (3 Bft) SW 217 ° 0 min 0,000 mm 0,0 UV-I 0 W/m² -2,6 °C -1,6 °C 19,3 km/h (3 Bft)
13.03.2019 20:52 2,3 °C 70 % 1012,4 hPa 0,0 mm 20,8 km/h (4 Bft) W 264 ° 0 min 0,000 mm 0,0 UV-I 0 W/m² -2,6 °C -2,4 °C 27,4 km/h (4 Bft)
13.03.2019 20:53 2,3 °C 69 % 1012,4 hPa 0,0 mm 18,4 km/h (3 Bft) W-SW 242 ° 0 min 0,000 mm 0,0 UV-I 0 W/m² -2,8 °C -2,1 °C 32,2 km/h (5 Bft)
13.03.2019 20:54 2,3 °C 69 % 1012,5 hPa 0,0 mm 17,2 km/h (3 Bft) W-SW 254 ° 0 min 0,000 mm 0,0 UV-I 0 W/m² -2,8 °C -1,9 °C 27,4 km/h (4 Bft)
13.03.2019 20:55 2,3 °C 69 % 1012,5 hPa 0,0 mm 16,3 km/h (3 Bft) W 267 ° 0 min 0,000 mm 0,0 UV-I 0 W/m² -2,8 °C -1,8 °C 22,5 km/h (4 Bft)
13.03.2019 20:56 2,3 °C 70 % 1012,5 hPa 0,0 mm 15,0 km/h (3 Bft) W 273 ° 0 min 0,000 mm 0,0 UV-I 0 W/m² -2,6 °C -1,6 °C 22,5 km/h (4 Bft)
13.03.2019 20:57 2,3 °C 70 % 1012,4 hPa 0,0 mm 17,3 km/h (3 Bft) W 264 ° 0 min 0,000 mm 0,0 UV-I 0 W/m² -2,6 °C -2,0 °C 27,4 km/h (4 Bft)
13.03.2019 20:58 2,3 °C 70 % 1012,4 hPa 0,0 mm 15,4 km/h (3 Bft) W-SW 240 ° 0 min 0,000 mm 0,0 UV-I 0 W/m² -2,6 °C -1,6 °C 19,3 km/h (3 Bft)
13.03.2019 20:59 2,2 °C 70 % 1012,3 hPa 0,0 mm 10,2 km/h (2 Bft) W-SW 249 ° 0 min 0,000 mm 0,0 UV-I 0 W/m² -2,7 °C -0,7 °C 14,5 km/h (3 Bft)
13.03.2019 21:00 2,2 °C 70 % 1012,4 hPa 0,0 mm 7,3 km/h (2 Bft) W-SW 237 ° 0 min 0,000 mm 0,0 UV-I 0 W/m² -2,7 °C 0,1 °C 12,9 km/h (3 Bft)
13.03.2019 21:01 2,2 °C 70 % 1012,3 hPa 0,0 mm 13,9 km/h (3 Bft) SW 234 ° 0 min 0,025 mm 0,0 UV-I 0 W/m² -2,7 °C -1,5 °C 19,3 km/h (3 Bft)
13.03.2019 21:02 2,2 °C 70 % 1012,4 hPa 0,0 mm 11,7 km/h (2 Bft) W-NW 287 ° 0 min 0,000 mm 0,0 UV-I 0 W/m² -2,7 °C -1,1 °C 20,9 km/h (4 Bft)
13.03.2019 21:03 2,1 °C 70 % 1012,3 hPa 0,0 mm 10,1 km/h (2 Bft) W 262 ° 0 min 0,000 mm 0,0 UV-I 0 W/m² -2,8 °C -0,8 °C 14,5 km/h (3 Bft)
13.03.2019 21:04 2,1 °C 70 % 1012,4 hPa 0,0 mm 8,9 km/h (2 Bft) W-SW 257 ° 0 min 0,000 mm 0,0 UV-I 0 W/m² -2,8 °C -0,5 °C 14,5 km/h (3 Bft)
13.03.2019 21:05 2,1 °C 70 % 1012,4 hPa 0,0 mm 13,9 km/h (3 Bft) W-SW 253 ° 0 min 0,000 mm 0,0 UV-I 0 W/m² -2,8 °C -1,6 °C 19,3 km/h (3 Bft)
13.03.2019 21:06 2,1 °C 70 % 1012,4 hPa 0,0 mm 11,6 km/h (2 Bft) S-SW 198 ° 0 min 0,000 mm 0,0 UV-I 0 W/m² -2,8 °C -1,2 °C 17,7 km/h (3 Bft)
13.03.2019 21:07 2,1 °C 70 % 1012,4 hPa 0,0 mm 14,4 km/h (3 Bft) W 271 ° 0 min 0,000 mm 0,0 UV-I 0 W/m² -2,8 °C -1,7 °C 22,5 km/h (4 Bft)
13.03.2019 21:08 2,1 °C 70 % 1012,4 hPa 0,0 mm 9,9 km/h (2 Bft) W-SW 247 ° 0 min 0,000 mm 0,0 UV-I 0 W/m² -2,8 °C -0,8 °C 14,5 km/h (3 Bft)
13.03.2019 21:09 2,0 °C 70 % 1012,5 hPa 0,0 mm 9,2 km/h (2 Bft) W-SW 244 ° 0 min 0,000 mm 0,0 UV-I 0 W/m² -2,9 °C -0,7 °C 17,7 km/h (3 Bft)
13.03.2019 21:10 2,1 °C 70 % 1012,4 hPa 0,0 mm 17,6 km/h (3 Bft) W-SW 252 ° 0 min 0,000 mm 0,0 UV-I 0 W/m² -2,8 °C -2,2 °C 27,4 km/h (4 Bft)
13.03.2019 21:11 2,1 °C 70 % 1012,4 hPa 0,0 mm 12,7 km/h (3 Bft) W-SW 244 ° 0 min 0,000 mm 0,0 UV-I 0 W/m² -2,8 °C -1,4 °C 17,7 km/h (3 Bft)
13.03.2019 21:12 2,1 °C 70 % 1012,5 hPa 0,0 mm 11,7 km/h (2 Bft) W-SW 238 ° 0 min 0,000 mm 0,0 UV-I 0 W/m² -2,8 °C -1,2 °C 16,1 km/h (3 Bft)
13.03.2019 21:13 2,1 °C 70 % 1012,5 hPa 0,0 mm 15,0 km/h (3 Bft) W-SW 251 ° 0 min 0,000 mm 0,0 UV-I 0 W/m² -2,8 °C -1,8 °C 22,5 km/h (4 Bft)
13.03.2019 21:14 2,0 °C 70 % 1012,5 hPa 0,0 mm 8,5 km/h (2 Bft) W-SW 258 ° 0 min 0,000 mm 0,0 UV-I 0 W/m² -2,9 °C -0,5 °C 16,1 km/h (3 Bft)
13.03.2019 21:15 2,1 °C 70 % 1012,5 hPa 0,0 mm 13,3 km/h (3 Bft) W 260 ° 0 min 0,000 mm 0,0 UV-I 0 W/m² -2,8 °C -1,5 °C 16,1 km/h (3 Bft)
13.03.2019 21:16 2,0 °C 70 % 1012,4 hPa 0,0 mm 10,6 km/h (2 Bft) W-NW 285 ° 0 min 0,000 mm 0,0 UV-I 0 W/m² -2,9 °C -1,1 °C 14,5 km/h (3 Bft)
13.03.2019 21:17 2,0 °C 70 % 1012,5 hPa 0,0 mm 11,3 km/h (2 Bft) W-SW 238 ° 0 min 0,000 mm 0,0 UV-I 0 W/m² -2,9 °C -1,2 °C 17,7 km/h (3 Bft)
13.03.2019 21:18 2,0 °C 70 % 1012,5 hPa 0,0 mm 16,4 km/h (3 Bft) SW 225 ° 0 min 0,000 mm 0,0 UV-I 0 W/m² -2,9 °C -2,2 °C 19,3 km/h (3 Bft)
13.03.2019 21:19 2,0 °C 70 % 1012,4 hPa 0,0 mm 14,1 km/h (3 Bft) W-SW 251 ° 0 min 0,000 mm 0,0 UV-I 0 W/m² -2,9 °C -1,8 °C 17,7 km/h (3 Bft)
13.03.2019 21:20 2,0 °C 70 % 1012,5 hPa 0,0 mm 16,0 km/h (3 Bft) W-SW 254 ° 0 min 0,000 mm 0,0 UV-I 0 W/m² -2,9 °C -2,1 °C 25,7 km/h (4 Bft)
13.03.2019 21:21 2,1 °C 70 % 1012,4 hPa 0,0 mm 15,4 km/h (3 Bft) W-NW 284 ° 0 min 0,000 mm 0,0 UV-I 0 W/m² -2,8 °C -1,9 °C 24,1 km/h (4 Bft)
13.03.2019 21:22 2,0 °C 70 % 1012,5 hPa 0,0 mm 16,1 km/h (3 Bft) W 261 ° 0 min 0,000 mm 0,0 UV-I 0 W/m² -2,9 °C -2,1 °C 20,9 km/h (4 Bft)
13.03.2019 21:23 2,0 °C 70 % 1012,4 hPa 0,0 mm 13,9 km/h (3 Bft) W 269 ° 0 min 0,000 mm 0,0 UV-I 0 W/m² -2,9 °C -1,8 °C 17,7 km/h (3 Bft)
13.03.2019 21:24 2,1 °C 70 % 1012,4 hPa 0,0 mm 18,0 km/h (3 Bft) SW 227 ° 0 min 0,000 mm 0,0 UV-I 0 W/m² -2,8 °C -2,3 °C 24,1 km/h (4 Bft)
13.03.2019 21:25 2,1 °C 70 % 1012,4 hPa 0,0 mm 14,3 km/h (3 Bft) W 281 ° 0 min 0,000 mm 0,0 UV-I 0 W/m² -2,8 °C -1,7 °C 19,3 km/h (3 Bft)
13.03.2019 21:26 2,1 °C 70 % 1012,5 hPa 0,0 mm 19,3 km/h (3 Bft) W 261 ° 0 min 0,000 mm 0,0 UV-I 0 W/m² -2,8 °C -2,5 °C 27,4 km/h (4 Bft)
13.03.2019 21:27 2,1 °C 70 % 1012,6 hPa 0,0 mm 17,0 km/h (3 Bft) W 265 ° 0 min 0,000 mm 0,0 UV-I 0 W/m² -2,8 °C -2,2 °C 24,1 km/h (4 Bft)
13.03.2019 21:28 2,1 °C 70 % 1012,6 hPa 0,0 mm 17,5 km/h (3 Bft) W 267 ° 0 min 0,000 mm 0,0 UV-I 0 W/m² -2,8 °C -2,2 °C 24,1 km/h (4 Bft)
13.03.2019 21:29 2,1 °C 70 % 1012,5 hPa 0,0 mm 18,4 km/h (3 Bft) W 270 ° 0 min 0,000 mm 0,0 UV-I 0 W/m² -2,8 °C -2,4 °C 27,4 km/h (4 Bft)
13.03.2019 21:30 2,2 °C 69 % 1012,5 hPa 0,0 mm 17,5 km/h (3 Bft) W 263 ° 0 min 0,000 mm 0,0 UV-I 0 W/m² -2,9 °C -2,1 °C 24,1 km/h (4 Bft)
13.03.2019 21:31 2,2 °C 69 % 1012,5 hPa 0,0 mm 17,6 km/h (3 Bft) W 271 ° 0 min 0,000 mm 0,0 UV-I 0 W/m² -2,9 °C -2,1 °C 27,4 km/h (4 Bft)
13.03.2019 21:32 2,2 °C 69 % 1012,5 hPa 0,0 mm 16,7 km/h (3 Bft) W-SW 243 ° 0 min 0,000 mm 0,0 UV-I 0 W/m² -2,9 °C -2,0 °C 24,1 km/h (4 Bft)
13.03.2019 21:33 2,2 °C 69 % 1012,5 hPa 0,0 mm 14,6 km/h (3 Bft) W 275 ° 0 min 0,000 mm 0,0 UV-I 0 W/m² -2,9 °C -1,6 °C 25,7 km/h (4 Bft)
13.03.2019 21:34 2,3 °C 69 % 1012,6 hPa 0,0 mm 18,3 km/h (3 Bft) NW 321 ° 0 min 0,000 mm 0,0 UV-I 0 W/m² -2,8 °C -2,1 °C 25,7 km/h (4 Bft)
13.03.2019 21:35 2,3 °C 69 % 1012,6 hPa 0,0 mm 11,9 km/h (2 Bft) W 266 ° 0 min 0,000 mm 0,0 UV-I 0 W/m² -2,8 °C -1,0 °C 20,9 km/h (4 Bft)
13.03.2019 21:36 2,3 °C 69 % 1012,6 hPa 0,0 mm 15,9 km/h (3 Bft) W 265 ° 0 min 0,000 mm 0,0 UV-I 0 W/m² -2,8 °C -1,7 °C 19,3 km/h (3 Bft)
13.03.2019 21:37 2,3 °C 69 % 1012,6 hPa 0,0 mm 11,3 km/h (2 Bft) W 271 ° 0 min 0,000 mm 0,0 UV-I 0 W/m² -2,8 °C -0,9 °C 19,3 km/h (3 Bft)
13.03.2019 21:38 2,3 °C 69 % 1012,6 hPa 0,0 mm 11,2 km/h (2 Bft) W-SW 258 ° 0 min 0,000 mm 0,0 UV-I 0 W/m² -2,8 °C -0,8 °C 17,7 km/h (3 Bft)
13.03.2019 21:39 2,2 °C 70 % 1012,5 hPa 0,0 mm 12,7 km/h (3 Bft) W-NW 300 ° 0 min 0,000 mm 0,0 UV-I 0 W/m² -2,7 °C -1,3 °C 16,1 km/h (3 Bft)
13.03.2019 21:40 2,2 °C 70 % 1012,4 hPa 0,0 mm 14,8 km/h (3 Bft) W-SW 249 ° 0 min 0,000 mm 0,0 UV-I 0 W/m² -2,7 °C -1,7 °C 20,9 km/h (4 Bft)
13.03.2019 21:41 2,2 °C 70 % 1012,6 hPa 0,0 mm 15,6 km/h (3 Bft) W 265 ° 0 min 0,000 mm 0,0 UV-I 0 W/m² -2,7 °C -1,8 °C 27,4 km/h (4 Bft)
13.03.2019 21:42 2,2 °C 70 % 1012,4 hPa 0,0 mm 15,9 km/h (3 Bft) W-SW 256 ° 0 min 0,000 mm 0,0 UV-I 0 W/m² -2,7 °C -1,9 °C 22,5 km/h (4 Bft)
13.03.2019 21:43 2,2 °C 70 % 1012,5 hPa 0,0 mm 10,3 km/h (2 Bft) W-SW 257 ° 0 min 0,000 mm 0,0 UV-I 0 W/m² -2,7 °C -0,8 °C 14,5 km/h (3 Bft)
13.03.2019 21:44 2,2 °C 70 % 1012,5 hPa 0,0 mm 12,7 km/h (3 Bft) W 273 ° 0 min 0,000 mm 0,0 UV-I 0 W/m² -2,7 °C -1,3 °C 16,1 km/h (3 Bft)
13.03.2019 21:45 2,2 °C 70 % 1012,4 hPa 0,0 mm 12,1 km/h (2 Bft) W-SW 254 ° 0 min 0,000 mm 0,0 UV-I 0 W/m² -2,7 °C -1,2 °C 17,7 km/h (3 Bft)
13.03.2019 21:46 2,2 °C 70 % 1012,5 hPa 0,0 mm 15,8 km/h (3 Bft) W-SW 250 ° 0 min 0,000 mm 0,0 UV-I 0 W/m² -2,7 °C -1,8 °C 20,9 km/h (4 Bft)
13.03.2019 21:47 2,3 °C 69 % 1012,5 hPa 0,0 mm 17,9 km/h (3 Bft) W-NW 300 ° 0 min 0,000 mm 0,0 UV-I 0 W/m² -2,8 °C -2,0 °C 24,1 km/h (4 Bft)
13.03.2019 21:48 2,3 °C 69 % 1012,5 hPa 0,0 mm 12,4 km/h (3 Bft) W-NW 295 ° 0 min 0,000 mm 0,0 UV-I 0 W/m² -2,8 °C -1,1 °C 16,1 km/h (3 Bft)
13.03.2019 21:49 2,3 °C 70 % 1012,4 hPa 0,0 mm 19,0 km/h (3 Bft) W-NW 284 ° 0 min 0,000 mm 0,0 UV-I 0 W/m² -2,6 °C -2,2 °C 27,4 km/h (4 Bft)
13.03.2019 21:50 2,3 °C 69 % 1012,4 hPa 0,0 mm 13,6 km/h (3 Bft) W-NW 298 ° 0 min 0,000 mm 0,0 UV-I 0 W/m² -2,8 °C -1,3 °C 19,3 km/h (3 Bft)
13.03.2019 21:51 2,3 °C 69 % 1012,4 hPa 0,0 mm 11,6 km/h (2 Bft) W 259 ° 0 min 0,000 mm 0,0 UV-I 0 W/m² -2,8 °C -0,9 °C 17,7 km/h (3 Bft)
13.03.2019 21:52 2,4 °C 69 % 1012,4 hPa 0,0 mm 16,3 km/h (3 Bft) W 262 ° 0 min 0,000 mm 0,0 UV-I 0 W/m² -2,7 °C -1,7 °C 29,0 km/h (5 Bft)
13.03.2019 21:53 2,4 °C 69 % 1012,4 hPa 0,0 mm 18,5 km/h (3 Bft) W 275 ° 0 min 0,000 mm 0,0 UV-I 0 W/m² -2,7 °C -2,0 °C 33,8 km/h (5 Bft)
13.03.2019 21:54 2,4 °C 69 % 1012,4 hPa 0,0 mm 15,4 km/h (3 Bft) W 261 ° 0 min 0,000 mm 0,0 UV-I 0 W/m² -2,7 °C -1,5 °C 20,9 km/h (4 Bft)
13.03.2019 21:55 2,5 °C 69 % 1012,5 hPa 0,0 mm 20,3 km/h (4 Bft) W-NW 290 ° 0 min 0,000 mm 0,0 UV-I 0 W/m² -2,6 °C -2,1 °C 27,4 km/h (4 Bft)
13.03.2019 21:56 2,5 °C 69 % 1012,5 hPa 0,0 mm 16,3 km/h (3 Bft) W-SW 248 ° 0 min 0,000 mm 0,0 UV-I 0 W/m² -2,6 °C -1,5 °C 22,5 km/h (4 Bft)
13.03.2019 21:57 2,6 °C 69 % 1012,5 hPa 0,0 mm 14,0 km/h (3 Bft) W 259 ° 0 min 0,000 mm 0,0 UV-I 0 W/m² -2,5 °C -1,0 °C 17,7 km/h (3 Bft)
13.03.2019 21:58 2,5 °C 69 % 1012,6 hPa 0,0 mm 18,3 km/h (3 Bft) W-SW 255 ° 0 min 0,000 mm 0,0 UV-I 0 W/m² -2,6 °C -1,9 °C 22,5 km/h (4 Bft)
13.03.2019 21:59 2,6 °C 69 % 1012,6 hPa 0,0 mm 16,6 km/h (3 Bft) W 267 ° 0 min 0,000 mm 0,0 UV-I 0 W/m² -2,5 °C -1,5 °C 27,4 km/h (4 Bft)
13.03.2019 22:00 2,6 °C 69 % 1012,5 hPa 0,0 mm 14,8 km/h (3 Bft) W 278 ° 0 min 0,000 mm 0,0 UV-I 0 W/m² -2,5 °C -1,2 °C 24,1 km/h (4 Bft)
13.03.2019 22:01 2,6 °C 69 % 1012,4 hPa 0,0 mm 13,9 km/h (3 Bft) W-NW 284 ° 0 min 0,051 mm 0,0 UV-I 0 W/m² -2,5 °C -1,0 °C 19,3 km/h (3 Bft)
13.03.2019 22:02 2,6 °C 69 % 1012,5 hPa 0,0 mm 11,7 km/h (2 Bft) W 273 ° 0 min 0,000 mm 0,0 UV-I 0 W/m² -2,5 °C -0,6 °C 17,7 km/h (3 Bft)
13.03.2019 22:03 2,6 °C 69 % 1012,4 hPa 0,0 mm 15,0 km/h (3 Bft) W 265 ° 0 min 0,000 mm 0,0 UV-I 0 W/m² -2,5 °C -1,2 °C 22,5 km/h (4 Bft)
13.03.2019 22:04 2,6 °C 69 % 1012,4 hPa 0,0 mm 14,7 km/h (3 Bft) W-SW 252 ° 0 min 0,000 mm 0,0 UV-I 0 W/m² -2,5 °C -1,2 °C 20,9 km/h (4 Bft)
13.03.2019 22:05 2,6 °C 70 % 1012,4 hPa 0,0 mm 11,6 km/h (2 Bft) W-SW 242 ° 0 min 0,000 mm 0,0 UV-I 0 W/m² -2,3 °C -0,6 °C 17,7 km/h (3 Bft)
13.03.2019 22:06 2,5 °C 69 % 1012,4 hPa 0,0 mm 9,3 km/h (2 Bft) W 260 ° 0 min 0,000 mm 0,0 UV-I 0 W/m² -2,6 °C -0,2 °C 19,3 km/h (3 Bft)
13.03.2019 22:07 2,5 °C 70 % 1012,4 hPa 0,0 mm 20,0 km/h (4 Bft) W 272 ° 0 min 0,000 mm 0,0 UV-I 0 W/m² -2,4 °C -2,1 °C 32,2 km/h (5 Bft)
13.03.2019 22:08 2,5 °C 69 % 1012,3 hPa 0,0 mm 17,5 km/h (3 Bft) W-SW 245 ° 0 min 0,000 mm 0,0 UV-I 0 W/m² -2,6 °C -1,7 °C 24,1 km/h (4 Bft)
13.03.2019 22:09 2,6 °C 70 % 1012,3 hPa 0,0 mm 16,3 km/h (3 Bft) W-SW 255 ° 0 min 0,000 mm 0,0 UV-I 0 W/m² -2,3 °C -1,4 °C 22,5 km/h (4 Bft)
13.03.2019 22:10 2,5 °C 70 % 1012,4 hPa 0,0 mm 16,8 km/h (3 Bft) W-SW 255 ° 0 min 0,000 mm 0,0 UV-I 0 W/m² -2,4 °C -1,6 °C 25,7 km/h (4 Bft)
13.03.2019 22:11 2,6 °C 70 % 1012,3 hPa 0,0 mm 18,5 km/h (3 Bft) W 281 ° 0 min 0,000 mm 0,0 UV-I 0 W/m² -2,3 °C -1,8 °C 27,4 km/h (4 Bft)
13.03.2019 22:12 2,6 °C 70 % 1012,3 hPa 0,0 mm 18,5 km/h (3 Bft) W-SW 251 ° 0 min 0,000 mm 0,0 UV-I 0 W/m² -2,3 °C -1,8 °C 27,4 km/h (4 Bft)
13.03.2019 22:13 2,6 °C 70 % 1012,3 hPa 0,0 mm 15,7 km/h (3 Bft) W-SW 253 ° 0 min 0,000 mm 0,0 UV-I 0 W/m² -2,3 °C -1,3 °C 27,4 km/h (4 Bft)
13.03.2019 22:14 2,6 °C 70 % 1012,4 hPa 0,0 mm 18,6 km/h (3 Bft) W 279 ° 0 min 0,000 mm 0,0 UV-I 0 W/m² -2,3 °C -1,8 °C 30,6 km/h (5 Bft)
13.03.2019 22:15 2,6 °C 70 % 1012,4 hPa 0,0 mm 16,0 km/h (3 Bft) W 274 ° 0 min 0,000 mm 0,0 UV-I 0 W/m² -2,3 °C -1,4 °C 25,7 km/h (4 Bft)
13.03.2019 22:16 2,6 °C 70 % 1012,4 hPa 0,0 mm 14,5 km/h (3 Bft) W 280 ° 0 min 0,000 mm 0,0 UV-I 0 W/m² -2,3 °C -1,1 °C 25,7 km/h (4 Bft)
13.03.2019 22:17 2,6 °C 70 % 1012,4 hPa 0,0 mm 13,6 km/h (3 Bft) W-SW 242 ° 0 min 0,000 mm 0,0 UV-I 0 W/m² -2,3 °C -1,0 °C 19,3 km/h (3 Bft)
13.03.2019 22:18 2,6 °C 70 % 1012,5 hPa 0,0 mm 17,1 km/h (3 Bft) W-NW 283 ° 0 min 0,000 mm 0,0 UV-I 0 W/m² -2,3 °C -1,5 °C 25,7 km/h (4 Bft)
13.03.2019 22:19 2,6 °C 70 % 1012,5 hPa 0,0 mm 12,9 km/h (3 Bft) W-NW 291 ° 0 min 0,000 mm 0,0 UV-I 0 W/m² -2,3 °C -0,8 °C 19,3 km/h (3 Bft)
13.03.2019 22:20 2,6 °C 71 % 1012,4 hPa 0,0 mm 14,6 km/h (3 Bft) W 279 ° 0 min 0,000 mm 0,0 UV-I 0 W/m² -2,1 °C -1,1 °C 27,4 km/h (4 Bft)
13.03.2019 22:21 2,6 °C 70 % 1012,5 hPa 0,0 mm 15,2 km/h (3 Bft) W-SW 256 ° 0 min 0,000 mm 0,0 UV-I 0 W/m² -2,3 °C -1,2 °C 24,1 km/h (4 Bft)
13.03.2019 22:22 2,6 °C 70 % 1012,6 hPa 0,0 mm 18,2 km/h (3 Bft) W 271 ° 0 min 0,000 mm 0,0 UV-I 0 W/m² -2,3 °C -1,7 °C 22,5 km/h (4 Bft)
13.03.2019 22:23 2,6 °C 70 % 1012,6 hPa 0,0 mm 13,2 km/h (3 Bft) W 271 ° 0 min 0,000 mm 0,0 UV-I 0 W/m² -2,3 °C -0,9 °C 20,9 km/h (4 Bft)
13.03.2019 22:24 2,6 °C 71 % 1012,6 hPa 0,0 mm 17,4 km/h (3 Bft) W 263 ° 0 min 0,000 mm 0,0 UV-I 0 W/m² -2,1 °C -1,6 °C 25,7 km/h (4 Bft)
13.03.2019 22:25 2,6 °C 71 % 1012,6 hPa 0,0 mm 16,4 km/h (3 Bft) W 259 ° 0 min 0,000 mm 0,0 UV-I 0 W/m² -2,1 °C -1,4 °C 24,1 km/h (4 Bft)
13.03.2019 22:26 2,6 °C 71 % 1012,7 hPa 0,0 mm 23,2 km/h (4 Bft) W 275 ° 0 min 0,000 mm 0,0 UV-I 0 W/m² -2,1 °C -2,4 °C 29,0 km/h (5 Bft)
13.03.2019 22:27 2,6 °C 71 % 1012,6 hPa 0,0 mm 16,4 km/h (3 Bft) W-SW 249 ° 0 min 0,000 mm 0,0 UV-I 0 W/m² -2,1 °C -1,4 °C 30,6 km/h (5 Bft)
13.03.2019 22:28 2,6 °C 72 % 1012,6 hPa 0,0 mm 18,5 km/h (3 Bft) W-NW 300 ° 0 min 0,000 mm 0,0 UV-I 0 W/m² -1,9 °C -1,8 °C 27,4 km/h (4 Bft)
13.03.2019 22:29 2,6 °C 72 % 1012,7 hPa 0,0 mm 16,3 km/h (3 Bft) W 281 ° 0 min 0,000 mm 0,0 UV-I 0 W/m² -1,9 °C -1,4 °C 22,5 km/h (4 Bft)
13.03.2019 22:30 2,5 °C 73 % 1012,7 hPa 0,0 mm 15,5 km/h (3 Bft) W 262 ° 0 min 0,000 mm 0,0 UV-I 0 W/m² -1,8 °C -1,4 °C 24,1 km/h (4 Bft)
13.03.2019 22:31 2,5 °C 73 % 1012,7 hPa 0,0 mm 13,7 km/h (3 Bft) NW 304 ° 0 min 0,000 mm 0,0 UV-I 0 W/m² -1,8 °C -1,1 °C 19,3 km/h (3 Bft)
13.03.2019 22:32 2,4 °C 74 % 1012,7 hPa 0,0 mm 19,0 km/h (3 Bft) W-SW 240 ° 0 min 0,000 mm 0,0 UV-I 0 W/m² -1,7 °C -2,1 °C 29,0 km/h (5 Bft)
13.03.2019 22:33 2,4 °C 74 % 1012,6 hPa 0,0 mm 17,9 km/h (3 Bft) W-SW 257 ° 0 min 0,000 mm 0,0 UV-I 0 W/m² -1,7 °C -1,9 °C 24,1 km/h (4 Bft)
13.03.2019 22:34 2,3 °C 75 % 1012,7 hPa 0,0 mm 14,5 km/h (3 Bft) W-NW 290 ° 0 min 0,000 mm 0,0 UV-I 0 W/m² -1,7 °C -1,5 °C 20,9 km/h (4 Bft)
13.03.2019 22:35 2,2 °C 76 % 1012,6 hPa 0,0 mm 17,1 km/h (3 Bft) W 267 ° 0 min 0,000 mm 0,0 UV-I 0 W/m² -1,6 °C -2,0 °C 24,1 km/h (4 Bft)
13.03.2019 22:36 2,2 °C 76 % 1012,7 hPa 0,0 mm 14,9 km/h (3 Bft) W 279 ° 0 min 0,000 mm 0,0 UV-I 0 W/m² -1,6 °C -1,7 °C 22,5 km/h (4 Bft)
13.03.2019 22:37 2,1 °C 77 % 1012,7 hPa 0,0 mm 13,9 km/h (3 Bft) W 260 ° 0 min 0,000 mm 0,0 UV-I 0 W/m² -1,5 °C -1,6 °C 24,1 km/h (4 Bft)
13.03.2019 22:38 2,0 °C 77 % 1012,6 hPa 0,0 mm 11,0 km/h (2 Bft) W-NW 297 ° 0 min 0,000 mm 0,0 UV-I 0 W/m² -1,6 °C -1,2 °C 16,1 km/h (3 Bft)
13.03.2019 22:39 1,9 °C 78 % 1012,5 hPa 0,0 mm 10,2 km/h (2 Bft) W-NW 292 ° 0 min 0,000 mm 0,0 UV-I 0 W/m² -1,5 °C -1,1 °C 17,7 km/h (3 Bft)
13.03.2019 22:40 1,9 °C 78 % 1012,5 hPa 0,0 mm 14,1 km/h (3 Bft) SW 215 ° 0 min 0,000 mm 0,0 UV-I 0 W/m² -1,5 °C -1,9 °C 20,9 km/h (4 Bft)
13.03.2019 22:41 1,8 °C 79 % 1012,5 hPa 0,0 mm 15,1 km/h (3 Bft) W 263 ° 0 min 0,000 mm 0,0 UV-I 0 W/m² -1,4 °C -2,2 °C 20,9 km/h (4 Bft)
13.03.2019 22:42 1,7 °C 80 % 1012,5 hPa 0,0 mm 13,7 km/h (3 Bft) W 261 ° 0 min 0,000 mm 0,0 UV-I 0 W/m² -1,4 °C -2,1 °C 17,7 km/h (3 Bft)
13.03.2019 22:43 1,7 °C 80 % 1012,5 hPa 0,0 mm 10,5 km/h (2 Bft) W-NW 287 ° 0 min 0,000 mm 0,0 UV-I 0 W/m² -1,4 °C -1,4 °C 14,5 km/h (3 Bft)
13.03.2019 22:44 1,6 °C 81 % 1012,5 hPa 0,0 mm 12,1 km/h (2 Bft) W 277 ° 0 min 0,000 mm 0,0 UV-I 0 W/m² -1,3 °C -1,9 °C 20,9 km/h (4 Bft)
13.03.2019 22:45 1,5 °C 81 % 1012,5 hPa 0,0 mm 13,0 km/h (3 Bft) W 275 ° 0 min 0,000 mm 0,0 UV-I 0 W/m² -1,4 °C -2,2 °C 17,7 km/h (3 Bft)
13.03.2019 22:46 1,4 °C 82 % 1012,5 hPa 0,0 mm 15,2 km/h (3 Bft) W 273 ° 0 min 0,000 mm 0,0 UV-I 0 W/m² -1,3 °C -2,7 °C 19,3 km/h (3 Bft)
13.03.2019 22:47 1,4 °C 82 % 1012,5 hPa 0,0 mm 12,8 km/h (3 Bft) W-NW 288 ° 0 min 0,000 mm 0,0 UV-I 0 W/m² -1,3 °C -2,3 °C 17,7 km/h (3 Bft)
13.03.2019 22:48 1,3 °C 83 % 1012,4 hPa 0,0 mm 9,2 km/h (2 Bft) W-SW 249 ° 0 min 0,000 mm 0,0 UV-I 0 W/m² -1,3 °C -1,6 °C 12,9 km/h (3 Bft)
13.03.2019 22:49 1,3 °C 83 % 1012,4 hPa 0,0 mm 8,0 km/h (2 Bft) W-SW 258 ° 0 min 0,000 mm 0,0 UV-I 0 W/m² -1,3 °C -1,2 °C 16,1 km/h (3 Bft)
13.03.2019 22:50 1,3 °C 83 % 1012,4 hPa 0,0 mm 9,7 km/h (2 Bft) W 269 ° 0 min 0,000 mm 0,0 UV-I 0 W/m² -1,3 °C -1,7 °C 12,9 km/h (3 Bft)
13.03.2019 22:51 1,2 °C 84 % 1012,5 hPa 0,0 mm 8,6 km/h (2 Bft) W 259 ° 0 min 0,000 mm 0,0 UV-I 0 W/m² -1,2 °C -1,5 °C 14,5 km/h (3 Bft)
13.03.2019 22:52 1,2 °C 84 % 1012,5 hPa 0,0 mm 14,6 km/h (3 Bft) W 271 ° 0 min 0,000 mm 0,0 UV-I 0 W/m² -1,2 °C -2,9 °C 20,9 km/h (4 Bft)
13.03.2019 22:53 1,1 °C 84 % 1012,5 hPa 0,0 mm 17,4 km/h (3 Bft) W 276 ° 0 min 0,000 mm 0,0 UV-I 0 W/m² -1,3 °C -3,5 °C 20,9 km/h (4 Bft)
13.03.2019 22:54 1,1 °C 85 % 1012,4 hPa 0,0 mm 14,2 km/h (3 Bft) W-SW 238 ° 0 min 0,000 mm 0,0 UV-I 0 W/m² -1,1 °C -2,9 °C 20,9 km/h (4 Bft)
13.03.2019 22:55 1,1 °C 85 % 1012,5 hPa 0,0 mm 8,2 km/h (2 Bft) W-SW 247 ° 0 min 0,000 mm 0,0 UV-I 0 W/m² -1,1 °C -1,5 °C 14,5 km/h (3 Bft)
13.03.2019 22:56 1,1 °C 85 % 1012,6 hPa 0,0 mm 11,9 km/h (2 Bft) W 274 ° 0 min 0,000 mm 0,0 UV-I 0 W/m² -1,1 °C -2,4 °C 19,3 km/h (3 Bft)
13.03.2019 22:57 1,0 °C 85 % 1012,6 hPa 0,0 mm 13,4 km/h (3 Bft) W-SW 252 ° 0 min 0,000 mm 0,0 UV-I 0 W/m² -1,2 °C -2,9 °C 17,7 km/h (3 Bft)
13.03.2019 22:58 1,0 °C 86 % 1012,7 hPa 0,0 mm 8,7 km/h (2 Bft) S-SW 205 ° 0 min 0,000 mm 0,0 UV-I 0 W/m² -1,1 °C -1,8 °C 12,9 km/h (3 Bft)
13.03.2019 22:59 0,9 °C 86 % 1012,7 hPa 0,0 mm 8,1 km/h (2 Bft) W 261 ° 0 min 0,000 mm 0,0 UV-I 0 W/m² -1,2 °C -1,7 °C 11,3 km/h (2 Bft)
13.03.2019 23:00 0,9 °C 86 % 1012,7 hPa 0,0 mm 9,9 km/h (2 Bft) S-SW 211 ° 0 min 0,025 mm 0,0 UV-I 0 W/m² -1,2 °C -2,2 °C 14,5 km/h (3 Bft)
13.03.2019 23:01 0,9 °C 86 % 1012,7 hPa 0,0 mm 9,3 km/h (2 Bft) W-NW 284 ° 0 min 0,000 mm 0,0 UV-I 0 W/m² -1,2 °C -2,1 °C 14,5 km/h (3 Bft)
13.03.2019 23:02 0,9 °C 86 % 1012,7 hPa 0,0 mm 10,3 km/h (2 Bft) W-SW 240 ° 0 min 0,000 mm 0,0 UV-I 0 W/m² -1,2 °C -2,3 °C 17,7 km/h (3 Bft)
13.03.2019 23:03 0,9 °C 87 % 1012,7 hPa 0,0 mm 7,5 km/h (2 Bft) W 265 ° 0 min 0,000 mm 0,0 UV-I 0 W/m² -1,0 °C -1,5 °C 11,3 km/h (2 Bft)
13.03.2019 23:04 0,9 °C 87 % 1012,7 hPa 0,0 mm 9,5 km/h (2 Bft) W 277 ° 0 min 0,000 mm 0,0 UV-I 0 W/m² -1,0 °C -2,1 °C 14,5 km/h (3 Bft)
13.03.2019 23:05 0,8 °C 87 % 1012,7 hPa 0,0 mm 7,8 km/h (2 Bft) W 261 ° 0 min 0,000 mm 0,0 UV-I 0 W/m² -1,1 °C -1,7 °C 14,5 km/h (3 Bft)
13.03.2019 23:06 0,8 °C 87 % 1012,7 hPa 0,0 mm 10,9 km/h (2 Bft) W-SW 242 ° 0 min 0,000 mm 0,0 UV-I 0 W/m² -1,1 °C -2,6 °C 14,5 km/h (3 Bft)
13.03.2019 23:07 0,9 °C 87 % 1012,7 hPa 0,0 mm 9,5 km/h (2 Bft) N-NW 331 ° 0 min 0,000 mm 0,0 UV-I 0 W/m² -1,0 °C -2,1 °C 16,1 km/h (3 Bft)
13.03.2019 23:08 0,9 °C 87 % 1012,7 hPa 0,0 mm 14,1 km/h (3 Bft) W 262 ° 0 min 0,000 mm 0,0 UV-I 0 W/m² -1,0 °C -3,1 °C 24,1 km/h (4 Bft)
13.03.2019 23:09 0,9 °C 87 % 1012,8 hPa 0,0 mm 11,1 km/h (2 Bft) S-SW 202 ° 0 min 0,000 mm 0,0 UV-I 0 W/m² -1,0 °C -2,5 °C 17,7 km/h (3 Bft)
13.03.2019 23:10 0,9 °C 87 % 1012,7 hPa 0,0 mm 7,9 km/h (2 Bft) NW 315 ° 0 min 0,000 mm 0,0 UV-I 0 W/m² -1,0 °C -1,7 °C 12,9 km/h (3 Bft)
13.03.2019 23:11 0,9 °C 87 % 1012,6 hPa 0,0 mm 13,5 km/h (3 Bft) W-SW 257 ° 0 min 0,000 mm 0,0 UV-I 0 W/m² -1,0 °C -3,0 °C 22,5 km/h (4 Bft)
13.03.2019 23:12 0,9 °C 87 % 1012,6 hPa 0,0 mm 13,8 km/h (3 Bft) W 271 ° 0 min 0,000 mm 0,0 UV-I 0 W/m² -1,0 °C -3,1 °C 19,3 km/h (3 Bft)
13.03.2019 23:13 1,0 °C 87 % 1012,5 hPa 0,0 mm 14,5 km/h (3 Bft) W-SW 251 ° 0 min 0,000 mm 0,0 UV-I 0 W/m² -0,9 °C -3,1 °C 22,5 km/h (4 Bft)
13.03.2019 23:14 1,0 °C 87 % 1012,6 hPa 0,0 mm 9,3 km/h (2 Bft) W-SW 255 ° 0 min 0,000 mm 0,0 UV-I 0 W/m² -0,9 °C -1,9 °C 14,5 km/h (3 Bft)
13.03.2019 23:15 1,1 °C 87 % 1012,5 hPa 0,0 mm 11,6 km/h (2 Bft) W 280 ° 0 min 0,000 mm 0,0 UV-I 0 W/m² -0,8 °C -2,4 °C 20,9 km/h (4 Bft)
13.03.2019 23:16 1,1 °C 86 % 1012,6 hPa 0,0 mm 12,9 km/h (3 Bft) W 273 ° 0 min 0,000 mm 0,0 UV-I 0 W/m² -1,0 °C -2,7 °C 16,1 km/h (3 Bft)
13.03.2019 23:17 1,2 °C 86 % 1012,5 hPa 0,0 mm 11,7 km/h (2 Bft) W-SW 256 ° 0 min 0,000 mm 0,0 UV-I 0 W/m² -0,9 °C -2,3 °C 14,5 km/h (3 Bft)
13.03.2019 23:18 1,2 °C 86 % 1012,6 hPa 0,0 mm 15,6 km/h (3 Bft) SW 236 ° 0 min 0,000 mm 0,0 UV-I 0 W/m² -0,9 °C -3,0 °C 20,9 km/h (4 Bft)
13.03.2019 23:19 1,2 °C 86 % 1012,6 hPa 0,0 mm 14,0 km/h (3 Bft) W 271 ° 0 min 0,000 mm 0,0 UV-I 0 W/m² -0,9 °C -2,8 °C 20,9 km/h (4 Bft)
13.03.2019 23:20 1,2 °C 86 % 1012,6 hPa 0,0 mm 15,3 km/h (3 Bft) W 270 ° 0 min 0,000 mm 0,0 UV-I 0 W/m² -0,9 °C -3,0 °C 24,1 km/h (4 Bft)
13.03.2019 23:21 1,2 °C 86 % 1012,6 hPa 0,0 mm 10,4 km/h (2 Bft) W-NW 285 ° 0 min 0,000 mm 0,0 UV-I 0 W/m² -0,9 °C -2,0 °C 16,1 km/h (3 Bft)
13.03.2019 23:22 1,2 °C 86 % 1012,6 hPa 0,0 mm 7,2 km/h (2 Bft) W-SW 238 ° 0 min 0,000 mm 0,0 UV-I 0 W/m² -0,9 °C -1,1 °C 11,3 km/h (2 Bft)
13.03.2019 23:23 1,2 °C 86 % 1012,6 hPa 0,0 mm 6,0 km/h (2 Bft) W 263 ° 0 min 0,000 mm 0,0 UV-I 0 W/m² -0,9 °C -0,6 °C 9,7 km/h (2 Bft)
13.03.2019 23:24 1,2 °C 86 % 1012,5 hPa 0,0 mm 10,3 km/h (2 Bft) W 259 ° 0 min 0,000 mm 0,0 UV-I 0 W/m² -0,9 °C -2,0 °C 17,7 km/h (3 Bft)
13.03.2019 23:25 1,2 °C 86 % 1012,5 hPa 0,0 mm 11,9 km/h (2 Bft) W-SW 244 ° 0 min 0,000 mm 0,0 UV-I 0 W/m² -0,9 °C -2,3 °C 19,3 km/h (3 Bft)
13.03.2019 23:26 1,2 °C 86 % 1012,6 hPa 0,0 mm 12,0 km/h (2 Bft) W 270 ° 0 min 0,000 mm 0,0 UV-I 0 W/m² -0,9 °C -2,3 °C 16,1 km/h (3 Bft)
13.03.2019 23:27 1,2 °C 86 % 1012,5 hPa 0,0 mm 10,4 km/h (2 Bft) W-NW 287 ° 0 min 0,000 mm 0,0 UV-I 0 W/m² -0,9 °C -2,0 °C 14,5 km/h (3 Bft)
13.03.2019 23:28 1,2 °C 86 % 1012,5 hPa 0,0 mm 11,0 km/h (2 Bft) NW 306 ° 0 min 0,000 mm 0,0 UV-I 0 W/m² -0,9 °C -2,1 °C 17,7 km/h (3 Bft)
13.03.2019 23:29 1,3 °C 86 % 1012,6 hPa 0,0 mm 10,5 km/h (2 Bft) W 281 ° 0 min 0,000 mm 0,0 UV-I 0 W/m² -0,8 °C -1,9 °C 14,5 km/h (3 Bft)
13.03.2019 23:30 1,2 °C 86 % 1012,6 hPa 0,0 mm 11,5 km/h (2 Bft) W 278 ° 0 min 0,000 mm 0,0 UV-I 0 W/m² -0,9 °C -2,2 °C 16,1 km/h (3 Bft)
13.03.2019 23:31 1,3 °C 86 % 1012,6 hPa 0,0 mm 12,9 km/h (3 Bft) W 264 ° 0 min 0,000 mm 0,0 UV-I 0 W/m² -0,8 °C -2,4 °C 17,7 km/h (3 Bft)
13.03.2019 23:32 1,3 °C 86 % 1012,6 hPa 0,0 mm 10,1 km/h (2 Bft) W 269 ° 0 min 0,000 mm 0,0 UV-I 0 W/m² -0,8 °C -1,8 °C 16,1 km/h (3 Bft)
13.03.2019 23:33 1,3 °C 85 % 1012,6 hPa 0,0 mm 11,5 km/h (2 Bft) W-NW 289 ° 0 min 0,000 mm 0,0 UV-I 0 W/m² -0,9 °C -2,1 °C 16,1 km/h (3 Bft)
13.03.2019 23:34 1,3 °C 85 % 1012,6 hPa 0,0 mm 6,4 km/h (2 Bft) W-SW 257 ° 0 min 0,000 mm 0,0 UV-I 0 W/m² -0,9 °C -0,7 °C 12,9 km/h (3 Bft)
13.03.2019 23:35 1,3 °C 85 % 1012,6 hPa 0,0 mm 13,4 km/h (3 Bft) W 262 ° 0 min 0,000 mm 0,0 UV-I 0 W/m² -0,9 °C -2,5 °C 20,9 km/h (4 Bft)
13.03.2019 23:36 1,3 °C 85 % 1012,6 hPa 0,0 mm 13,0 km/h (3 Bft) W-NW 302 ° 0 min 0,000 mm 0,0 UV-I 0 W/m² -0,9 °C -2,4 °C 16,1 km/h (3 Bft)
13.03.2019 23:37 1,3 °C 85 % 1012,6 hPa 0,0 mm 13,6 km/h (3 Bft) SW 225 ° 0 min 0,000 mm 0,0 UV-I 0 W/m² -0,9 °C -2,6 °C 19,3 km/h (3 Bft)
13.03.2019 23:38 1,4 °C 85 % 1012,6 hPa 0,0 mm 10,3 km/h (2 Bft) W 263 ° 0 min 0,000 mm 0,0 UV-I 0 W/m² -0,8 °C -1,7 °C 14,5 km/h (3 Bft)
13.03.2019 23:39 1,4 °C 85 % 1012,6 hPa 0,0 mm 15,2 km/h (3 Bft) S-SW 212 ° 0 min 0,000 mm 0,0 UV-I 0 W/m² -0,8 °C -2,7 °C 22,5 km/h (4 Bft)
13.03.2019 23:40 1,4 °C 84 % 1012,7 hPa 0,0 mm 12,5 km/h (3 Bft) W-SW 243 ° 0 min 0,000 mm 0,0 UV-I 0 W/m² -1,0 °C -2,2 °C 17,7 km/h (3 Bft)
13.03.2019 23:41 1,4 °C 84 % 1012,7 hPa 0,0 mm 10,5 km/h (2 Bft) NW 304 ° 0 min 0,000 mm 0,0 UV-I 0 W/m² -1,0 °C -1,8 °C 19,3 km/h (3 Bft)
13.03.2019 23:42 1,5 °C 84 % 1012,7 hPa 0,0 mm 12,6 km/h (3 Bft) W-SW 254 ° 0 min 0,000 mm 0,0 UV-I 0 W/m² -0,9 °C -2,1 °C 17,7 km/h (3 Bft)
13.03.2019 23:43 1,5 °C 84 % 1012,7 hPa 0,0 mm 13,3 km/h (3 Bft) W-NW 287 ° 0 min 0,000 mm 0,0 UV-I 0 W/m² -0,9 °C -2,2 °C 17,7 km/h (3 Bft)
13.03.2019 23:44 1,5 °C 84 % 1012,7 hPa 0,0 mm 14,3 km/h (3 Bft) W-SW 255 ° 0 min 0,000 mm 0,0 UV-I 0 W/m² -0,9 °C -2,4 °C 19,3 km/h (3 Bft)
13.03.2019 23:45 1,5 °C 84 % 1012,7 hPa 0,0 mm 10,0 km/h (2 Bft) W 272 ° 0 min 0,000 mm 0,0 UV-I 0 W/m² -0,9 °C -1,5 °C 12,9 km/h (3 Bft)
13.03.2019 23:46 1,5 °C 84 % 1012,7 hPa 0,0 mm 11,0 km/h (2 Bft) SW 232 ° 0 min 0,000 mm 0,0 UV-I 0 W/m² -0,9 °C -1,8 °C 17,7 km/h (3 Bft)
13.03.2019 23:47 1,5 °C 84 % 1012,7 hPa 0,0 mm 9,5 km/h (2 Bft) W 261 ° 0 min 0,000 mm 0,0 UV-I 0 W/m² -0,9 °C -1,4 °C 16,1 km/h (3 Bft)
13.03.2019 23:48 1,5 °C 84 % 1012,7 hPa 0,0 mm 16,0 km/h (3 Bft) W-SW 247 ° 0 min 0,000 mm 0,0 UV-I 0 W/m² -0,9 °C -2,7 °C 20,9 km/h (4 Bft)
13.03.2019 23:49 1,6 °C 83 % 1012,7 hPa 0,0 mm 13,5 km/h (3 Bft) W-SW 247 ° 0 min 0,000 mm 0,0 UV-I 0 W/m² -1,0 °C -2,2 °C 17,7 km/h (3 Bft)
13.03.2019 23:50 1,6 °C 83 % 1012,7 hPa 0,0 mm 14,3 km/h (3 Bft) W 260 ° 0 min 0,000 mm 0,0 UV-I 0 W/m² -1,0 °C -2,3 °C 19,3 km/h (3 Bft)
13.03.2019 23:51 1,6 °C 83 % 1012,6 hPa 0,0 mm 11,5 km/h (2 Bft) W-SW 249 ° 0 min 0,000 mm 0,0 UV-I 0 W/m² -1,0 °C -1,8 °C 16,1 km/h (3 Bft)
13.03.2019 23:52 1,6 °C 83 % 1012,8 hPa 0,0 mm 10,5 km/h (2 Bft) W 271 ° 0 min 0,000 mm 0,0 UV-I 0 W/m² -1,0 °C -1,5 °C 14,5 km/h (3 Bft)
13.03.2019 23:53 1,6 °C 83 % 1012,7 hPa 0,0 mm 8,7 km/h (2 Bft) W 281 ° 0 min 0,000 mm 0,0 UV-I 0 W/m² -1,0 °C -1,1 °C 12,9 km/h (3 Bft)
13.03.2019 23:54 1,6 °C 83 % 1012,7 hPa 0,0 mm 7,0 km/h (2 Bft) W 271 ° 0 min 0,000 mm 0,0 UV-I 0 W/m² -1,0 °C -0,5 °C 9,7 km/h (2 Bft)
13.03.2019 23:55 1,6 °C 83 % 1012,7 hPa 0,0 mm 5,9 km/h (2 Bft) W-SW 245 ° 0 min 0,000 mm 0,0 UV-I 0 W/m² -1,0 °C -0,1 °C 9,7 km/h (2 Bft)
13.03.2019 23:56 1,6 °C 83 % 1012,7 hPa 0,0 mm 9,5 km/h (2 Bft) SW 218 ° 0 min 0,000 mm 0,0 UV-I 0 W/m² -1,0 °C -1,3 °C 16,1 km/h (3 Bft)
13.03.2019 23:57 1,7 °C 83 % 1012,7 hPa 0,0 mm 13,1 km/h (3 Bft) W-SW 250 ° 0 min 0,000 mm 0,0 UV-I 0 W/m² -0,9 °C -2,0 °C 17,7 km/h (3 Bft)
13.03.2019 23:58 1,7 °C 83 % 1012,8 hPa 0,0 mm 10,8 km/h (2 Bft) W 275 ° 0 min 0,000 mm 0,0 UV-I 0 W/m² -0,9 °C -1,5 °C 14,5 km/h (3 Bft)
13.03.2019 23:59 1,7 °C 83 % 1012,8 hPa 0,0 mm 11,1 km/h (2 Bft) W-SW 257 ° 0 min 0,000 mm 0,0 UV-I 0 W/m² -0,9 °C -1,5 °C 14,5 km/h (3 Bft)
_ Min-Zeit 18:06 00:12 01:57 - 01:57 - - - - - - 00:05 18:38 01:57
Minimum _ 0,3 °C 47 % 1007,7 hPa - 0,0 km/h (0 Bft) - - - - - - -3,9 °C -4,2 °C 0,0 km/h (0 Bft)
_ Max-Zeit 02:50 18:06 09:25 05:17 17:36 - - 14:27 12:00 12:12 12:09 05:08 00:14 04:00
Maximum _ 7,6 °C 88 % 1014,5 hPa 0,2 mm 37,3 km/h
W-SW (5 Bft)
- - 1 min 0,305 mm 3,9 UV-I 895 W/m² 0,9 °C 7,4 °C 56,3 km/h
W (7 Bft)
Durchschnitt _ 3,4 °C 71 % 1012,2 hPa #0,2 mm 14,3 km/h (3 Bft) W - #2:06 h #2,057 mm 2,0 UV-I 131 W/m² -1,5 °C 0,1 °C 21,8 km/h (4 Bft)